GFSSE_prec_cloud_003.txt.gz
Cloud_Cover
4 2 5 4 5 72 20 30 0 0 3 0 5 0 4 1 5 92 5 99 100 4 0 0 0 0 0 0 0 4 32 91 90 98 100 100 25 100 100 100 100 100 100
5 5 5 5 5 20 0 5 2 5 0 1 0 5 5 58 52 100 100 68 0 0 0 0 0 0 0 4 0 0 0 0 52 47 4 100 99 96 100 100 100 100 100
5 5 5 5 5 5 5 5 2 0 0 4 5 34 100 100 100 31 12 2 0 0 0 0 0 1 0 0 0 0 0 0 0 0 0 12 98 37 65 100 100 100 100
5 25 22 40 53 5 5 4 5 4 5 26 55 92 100 84 92 86 5 0 0 0 0 0 0 0 0 0 0 0 0 0 0 0 0 1 3 0 1 75 97 60 97
33 86 99 26 7 9 35 85 14 57 87 99 96 100 100 97 100 83 1 0 0 0 0 0 0 0 0 0 0 0 0 0 0 0 0 0 0 3 4 5 5 95 99
100 87 91 64 52 54 94 98 100 100 100 100 100 100 100 100 42 0 0 0 0 0 0 0 0 0 0 0 0 0 0 0 0 0 0 4 21 43 25 34 91 100 93
98 98 94 100 100 92 100 100 100 100 100 100 100 100 100 100 5 2 0 0 0 0 0 0 0 0 0 0 0 0 0 0 0 0 8 10 82 100 100 100 100 100 100
100 81 100 100 100 100 100 100 100 97 100 100 100 100 86 8 4 0 0 0 0 0 0 0 0 0 0 0 0 0 0 0 0 0 0 100 100 100 100 100 100 100 100
100 100 100 100 100 100 100 100 100 100 100 100 100 100 69 1 1 0 0 0 0 0 0 0 0 0 0 0 0 0 0 0 0 0 0 63 100 100 100 100 100 100 100
100 100 100 100 100 100 100 100 100 100 100 100 100 7 4 0 0 0 0 0 0 0 0 0 0 0 0 0 0 0 0 0 0 0 0 28 100 100 100 100 100 100 100
100 100 100 100 100 100 100 100 100 100 100 95 85 8 0 0 0 0 0 0 0 0 0 0 0 0 0 0 0 0 0 0 0 0 1 5 77 100 100 100 100 100 100
100 100 100 100 100 100 100 100 100 100 98 2 0 0 0 0 0 0 0 0 0 0 0 0 0 0 0 0 0 0 0 0 0 0 1 1 6 100 100 100 100 100 98
100 100 100 100 100 100 100 100 100 46 6 0 0 0 0 0 0 0 0 0 0 1 3 0 0 0 0 0 0 0 0 0 0 0 2 4 5 99 100 100 100 100 100
100 100 100 100 100 100 100 100 41 0 0 0 0 0 0 0 0 0 0 0 0 0 2 0 0 0 0 0 0 0 0 0 0 0 0 4 5 5 58 100 100 100 100
100 100 100 100 100 100 100 63 88 13 5 5 5 5 0 0 0 0 4 2 0 0 0 0 0 0 0 0 0 0 0 0 0 0 0 0 4 5 5 25 100 100 100
100 100 100 100 100 100 100 100 100 100 100 9 29 4 0 2 5 5 5 5 5 5 3 0 0 0 0 0 0 0 0 0 0 0 0 0 0 1 5 5 6 42 88
100 100 100 100 100 100 100 100 100 100 45 61 8 0 2 5 64 5 5 5 2 0 5 5 3 0 0 0 0 0 0 0 0 0 0 0 0 0 0 5 5 5 93
82 83 88 85 100 100 100 100 100 100 92 5 5 5 3 4 5 1 4 5 5 5 5 5 5 5 0 0 5 100 77 0 5 5 1 0 4 4 0 0 3 5 4
1 1 23 24 28 99 100 100 100 78 8 5 11 25 90 26 5 5 5 16 70 5 5 5 2 5 5 5 5 5 5 5 5 5 8 5 2 0 3 3 0 1 5
0 3 9 5 5 1 85 72 40 100 75 44 21 98 5 5 41 53 67 6 5 3 2 5 3 1 1 4 5 13 76 70 41 14 34 48 32 11 38 5 4 0 0
4 1 5 5 0 9 5 96 83 92 29 36 50 74 70 13 25 100 5 4 1 0 0 5 5 5 5 5 5 5 27 66 5 6 25 19 6 48 25 5 80 49 5
60 26 98 12 55 13 2 20 42 95 77 93 83 88 38 14 54 5 6 0 0 3 5 5 3 2 4 5 5 4 4 34 10 38 42 52 61 68 64 5 47 99 68
5 40 99 100 81 20 27 10 89 35 8 27 64 96 86 52 82 62 6 6 5 5 5 5 3 0 4 11 5 5 4 7 10 64 96 81 92 100 66 94 78 71 43
0 0 5 47 98 83 57 56 8 5 17 92 76 6 27 6 5 19 15 9 5 2 5 5 5 10 34 22 17 12 5 5 23 19 16 98 99 100 100 100 100 100 89
0 0 4 5 5 24 74 8 51 36 7 6 15 16 6 6 6 6 8 38 100 100 98 91 19 5 0 0 5 99 100 100 100 100 89 6 5 5 24 11 54 100 100
4 5 5 5 5 36 89 100 100 100 100 100 98 82 84 92 100 100 100 100 87 100 100 100 98 5 5 5 10 100 92 100 54 100 20 4 5 3 0 0 2 62 99

GFSSE_prec_cloud_006.txt.gz
Cloud_Cover
49 31 5 4 4 5 3 0 2 4 2 0 0 0 1 0 0 0 0 3 55 31 93 5 0 3 51 6 0 0 0 0 12 59 100 100 100 100 100 100 100 100 100
80 5 5 5 22 9 5 5 5 5 5 1 0 0 0 0 0 1 4 10 100 6 96 0 0 0 0 0 0 0 0 0 0 1 99 100 100 100 100 100 100 100 100
68 5 5 55 62 15 5 8 5 3 4 2 5 3 0 0 5 60 95 46 100 100 10 0 0 0 0 0 0 0 0 0 0 0 0 0 0 41 35 30 100 100 100
72 5 58 76 67 32 5 82 43 19 5 6 10 5 5 5 23 58 33 100 94 0 0 0 0 0 0 0 0 0 0 0 0 0 0 0 0 1 34 74 100 100 100
96 83 82 78 47 86 96 99 10 19 30 50 11 15 26 89 5 80 100 100 37 1 0 0 0 0 0 0 0 0 0 0 0 0 0 0 0 0 0 4 47 95 100
100 97 92 99 100 38 20 77 99 100 90 62 50 9 99 98 100 100 100 48 5 1 0 0 0 0 0 0 0 0 0 0 0 0 0 0 0 0 0 5 5 97 100
100 94 40 77 42 17 99 100 100 100 83 24 28 82 100 100 100 100 97 60 0 0 0 0 0 0 0 0 0 0 0 0 0 0 0 0 0 0 4 22 22 92 100
100 100 100 100 82 94 100 100 100 100 96 98 100 100 100 100 100 100 97 37 0 0 0 0 0 0 0 0 0 0 0 0 0 0 0 1 2 2 11 100 100 100 100
100 100 99 98 100 100 100 100 100 100 100 100 100 100 100 99 89 100 24 0 0 0 0 0 0 0 0 0 0 0 0 0 0 0 0 0 0 93 5 100 100 100 85
100 97 81 78 100 100 100 100 100 96 100 100 100 100 100 99 91 100 27 2 2 0 0 0 0 0 0 0 0 0 0 0 0 0 0 0 0 11 86 100 100 94 100
99 100 100 100 100 100 100 100 100 100 100 100 100 100 100 100 73 62 0 1 0 0 0 0 0 0 0 0 0 0 0 0 0 0 0 0 0 5 100 99 35 98 100
100 100 100 100 100 100 100 100 100 100 100 100 100 83 100 86 8 0 1 2 0 0 0 0 0 0 0 0 0 0 0 0 0 0 0 0 0 0 6 92 99 66 94
100 100 100 100 100 100 100 100 100 100 100 83 100 100 73 5 26 10 5 2 2 0 0 0 0 0 0 0 0 0 0 0 0 0 0 0 0 0 2 52 100 100 84
100 100 100 100 100 100 100 100 100 100 100 100 100 100 100 100 99 25 21 9 2 0 0 0 0 0 0 0 0 0 2 0 0 0 0 0 0 0 0 5 99 100 100
100 100 100 100 100 100 100 100 100 100 100 100 100 100 100 100 24 39 29 75 0 3 0 0 1 0 0 0 0 0 0 4 2 0 0 0 0 0 0 5 8 68 100
100 100 100 100 100 100 100 100 100 100 100 100 100 100 100 98 57 100 27 2 0 5 5 4 5 0 5 3 4 4 1 0 6 9 5 1 0 0 0 1 4 7 25
100 100 100 98 29 19 72 100 100 100 100 100 100 90 11 24 67 9 0 0 3 0 0 0 0 3 5 5 5 6 5 5 5 3 1 0 0 0 0 0 0 3 5
59 4 7 8 11 3 0 4 19 100 100 100 100 97 88 100 9 5 3 2 3 5 3 0 0 0 3 5 5 5 13 5 5 5 3 0 0 1 0 0 0 6 5
4 4 5 97 25 48 5 5 5 5 94 86 88 62 53 46 28 72 66 60 30 59 23 2 2 5 5 7 5 9 45 42 35 22 29 56 50 6 80 5 2 1 2
1 5 50 18 5 86 96 19 5 8 18 8 75 8 47 5 82 94 65 91 21 5 2 0 0 3 5 5 21 51 92 100 100 100 99 74 98 82 32 26 6 5 1
5 44 42 100 100 44 5 5 4 5 5 6 98 66 78 75 36 95 26 5 5 2 0 0 2 0 3 5 5 5 62 99 100 100 80 90 79 51 100 100 100 44 5
14 11 79 58 5 5 5 3 4 5 45 80 73 75 76 90 28 16 21 4 2 2 0 0 0 0 0 1 0 0 2 7 10 43 22 90 80 98 100 93 51 88 100
0 0 0 5 5 5 6 31 42 76 89 99 56 5 93 68 8 5 5 0 1 3 5 5 5 8 5 3 2 4 0 0 3 9 5 5 9 41 14 17 94 95 66
0 0 0 1 4 5 5 39 100 100 95 8 5 5 5 5 5 5 5 5 11 15 5 24 51 63 92 60 60 49 11 9 2 60 5 5 5 4 0 4 5 28 98
0 0 0 3 5 5 14 55 52 58 5 5 5 5 7 61 16 5 80 100 100 100 5 5 5 5 29 81 61 3 4 5 5 5 10 4 3 0 0 0 0 0 32
0 0 5 0 7 30 26 88 91 44 17 11 44 73 31 35 47 68 76 90 95 39 63 41 2 2 5 21 15 5 14 98 46 30 12 7 5 5 0 0 0 0 0

GFSSE_prec_cloud_012.txt.gz
Cloud_Cover
100 100 100 100 100 100 100 34 16 4 0 4 4 0 0 0 2 0 0 5 1 0 0 0 0 0 0 0 0 0 0 0 0 0 0 0 0 0 2 4 70 99 100
100 96 99 95 100 100 95 98 60 5 5 5 1 0 0 0 1 5 0 0 2 0 0 0 0 0 0 5 5 0 0 0 0 0 0 0 0 0 0 0 0 45 100
91 88 99 100 100 100 50 15 5 5 5 4 5 8 0 0 0 5 3 0 0 0 0 0 2 1 5 5 0 0 0 0 0 0 0 0 0 0 0 0 4 2 6
96 100 100 100 69 93 50 5 5 12 98 57 13 5 4 0 5 3 0 0 0 0 0 4 5 5 23 5 2 0 0 0 0 0 0 0 0 0 0 0 0 40 29
100 100 100 100 100 100 23 77 100 81 73 14 19 67 7 43 76 5 2 0 1 4 5 5 5 20 2 0 0 0 0 0 0 0 0 0 0 0 0 0 0 0 7
100 100 100 97 88 96 100 97 27 5 22 66 25 78 100 63 9 5 5 5 5 5 5 67 100 55 4 2 0 0 0 0 0 0 0 0 0 0 0 0 0 0 0
100 100 100 58 98 66 24 78 83 15 100 51 100 100 82 65 5 5 5 5 5 5 14 100 51 4 5 0 0 0 0 0 0 0 0 0 0 0 0 0 0 0 0
95 87 51 89 56 20 5 95 99 100 28 90 66 80 21 5 5 12 7 5 7 96 50 82 5 5 0 0 0 0 0 0 0 0 0 0 0 0 0 0 0 0 0
91 70 93 100 72 100 100 100 100 100 90 49 100 93 5 20 21 56 91 100 100 100 79 5 12 0 0 0 0 0 0 0 0 0 0 0 0 0 0 0 0 0 0
100 100 100 100 100 100 100 100 100 100 100 100 100 67 100 100 87 73 100 100 99 58 78 47 7 0 0 0 0 0 0 0 0 0 0 0 0 0 0 0 0 0 0
100 100 100 100 100 78 83 100 100 100 100 100 100 100 100 100 100 100 100 100 70 8 44 8 2 1 1 4 5 0 0 0 0 0 0 0 0 0 0 0 0 0 0
100 100 100 100 100 100 100 100 99 100 100 100 100 100 100 100 100 100 100 98 49 5 5 2 0 0 0 0 2 5 0 0 0 0 0 0 0 0 0 0 0 0 0
100 100 100 100 99 100 100 100 100 100 100 100 100 100 100 100 100 76 13 41 8 0 0 0 2 0 4 3 5 5 0 0 0 0 0 0 0 0 0 0 0 0 0
98 100 100 100 100 100 100 100 100 100 100 100 100 100 100 86 50 64 4 27 12 7 4 24 8 5 0 0 2 0 0 0 0 0 0 0 0 0 0 0 0 0 0
100 100 100 100 100 100 100 100 100 100 100 100 100 97 80 22 80 61 5 5 5 0 0 0 2 0 0 0 0 0 0 0 0 0 0 0 0 0 0 0 0 0 0
100 84 100 100 100 100 100 100 100 100 100 89 74 32 5 42 5 5 5 5 5 2 5 5 5 0 0 0 0 0 0 0 0 0 0 0 0 0 0 0 0 0 5
85 60 100 100 100 100 100 100 100 100 100 98 96 20 99 31 5 14 5 5 5 5 6 5 5 4 1 0 0 0 0 1 3 0 0 0 0 0 2 5 0 0 0
84 100 100 63 94 74 100 100 100 100 100 60 5 68 82 57 6 5 5 7 88 71 38 5 5 5 1 0 0 0 0 1 5 5 4 2 0 0 0 0 0 0 0
100 100 57 95 94 100 100 100 100 100 100 100 100 100 83 5 48 6 77 9 78 75 7 5 5 1 0 0 3 5 5 5 5 5 5 5 5 5 2 0 1 4 3
98 100 77 94 100 100 100 100 100 100 100 100 100 72 5 14 91 84 97 98 9 4 5 4 0 0 0 0 1 0 0 0 0 1 5 6 26 62 64 49 5 1 3
11 95 100 100 100 95 100 100 100 97 48 10 43 5 5 99 65 5 33 4 1 0 0 0 0 0 0 0 0 0 0 0 0 1 5 1 3 5 5 5 44 96 19
7 6 83 11 20 35 68 16 10 5 4 2 5 5 5 5 42 5 4 0 0 0 1 5 5 5 5 5 1 0 0 3 3 1 0 0 0 0 1 2 2 4 17
10 9 5 2 4 0 3 0 3 5 1 5 3 1 2 1 0 0 0 1 1 5 5 5 17 5 5 26 18 25 5 1 1 1 0 0 0 0 0 0 0 0 4
95 64 29 89 92 42 5 5 5 5 5 0 0 0 0 4 3 5 5 5 5 5 6 36 6 12 35 14 15 3 4 62 97 14 5 5 4 1 0 0 0 0 0
100 100 92 57 5 5 4 2 1 0 0 0 0 0 5 5 5 5 39 86 17 5 6 59 21 3 5 2 1 1 4 5 33 66 84 10 25 5 5 2 0 5 1
100 80 8 2 5 1 0 0 0 0 1 1 2 3 5 5 5 5 5 9 60 21 5 21 87 50 5 3 4 6 8 13 7 68 20 34 11 5 10 5 1 4 5

GFSSE_prec_cloud_015.txt.gz
Cloud_Cover
100 100 100 96 100 97 100 49 51 5 84 21 5 0 0 0 4 5 4 37 6 0 0 0 0 0 0 0 0 3 2 0 0 0 0 0 0 0 0 0 0 0 0
100 100 100 100 100 99 76 8 22 67 52 5 2 2 24 23 4 1 0 4 5 0 2 0 0 0 0 0 0 0 3 0 0 0 0 0 0 0 0 0 0 0 0
94 98 87 100 100 82 95 30 73 98 5 23 6 5 4 11 5 0 21 1 1 0 0 0 0 0 0 0 3 4 3 0 0 0 0 0 0 0 0 0 0 0 0
100 100 100 100 100 100 100 92 11 18 15 5 26 4 5 18 1 4 5 2 0 0 0 0 0 0 3 5 16 5 0 0 0 0 0 0 0 0 0 0 0 0 0
100 100 100 100 100 93 100 100 80 81 54 8 36 5 5 48 0 5 49 40 4 1 0 0 36 5 47 92 5 5 0 0 0 0 0 0 0 0 0 0 0 0 0
100 100 100 100 100 100 100 99 87 50 5 8 5 5 2 0 6 68 88 11 5 0 0 3 5 50 26 60 6 5 3 0 0 0 0 0 0 0 0 0 0 0 0
100 100 100 100 100 100 100 100 97 24 47 5 5 60 74 10 96 39 47 5 3 5 5 5 21 95 76 27 4 2 0 0 0 0 0 0 0 0 0 0 0 0 0
100 100 100 87 100 100 100 100 99 79 6 95 100 100 31 34 91 5 5 5 5 5 19 5 87 66 99 25 2 0 0 0 0 0 0 0 0 0 0 0 0 0 0
100 100 100 100 100 100 100 98 57 90 73 71 97 18 65 86 52 88 15 5 8 5 93 97 25 71 13 6 0 0 0 0 0 0 0 0 0 0 0 0 0 0 0
100 100 100 100 100 100 100 100 89 100 100 99 36 18 100 97 100 98 100 35 10 84 6 21 27 5 5 3 0 0 0 0 0 0 0 0 0 0 0 0 0 0 0
100 100 100 98 100 99 100 100 82 85 100 99 56 100 100 100 100 100 100 85 99 45 7 87 8 4 0 0 0 7 0 0 0 0 0 0 0 0 0 0 0 0 0
100 100 100 100 100 100 100 97 100 100 100 100 100 100 100 100 97 97 100 100 100 37 41 6 4 0 0 0 0 5 1 0 0 0 0 0 0 0 0 0 0 0 0
100 100 100 100 100 100 100 100 100 100 100 100 100 100 100 100 91 95 32 30 53 5 4 6 0 0 0 0 0 0 0 0 0 0 0 0 0 0 0 0 0 0 0
100 100 100 100 100 100 100 100 100 100 100 100 100 100 100 73 21 21 22 5 5 8 10 3 0 0 0 0 0 0 0 0 0 0 0 0 0 0 0 0 0 0 0
100 100 100 98 100 100 100 100 100 100 100 100 100 100 100 61 5 5 7 51 7 5 5 6 5 4 0 0 0 0 0 0 0 0 0 0 0 0 0 0 0 0 0
88 100 100 88 82 100 100 100 100 100 100 100 100 100 100 100 69 92 9 6 5 5 8 14 5 5 5 0 0 0 0 0 0 0 0 0 0 0 0 0 0 0 0
71 76 82 83 100 100 100 100 100 100 100 100 100 100 93 100 84 95 86 96 100 53 9 10 38 5 0 0 0 0 0 0 0 0 0 0 0 0 0 0 0 0 0
44 21 60 99 100 100 100 100 100 100 100 100 100 100 100 100 100 100 100 100 72 42 49 25 5 3 3 3 4 5 4 0 0 0 1 5 5 5 1 2 0 0 0
90 100 100 100 100 100 100 100 100 100 100 100 100 100 100 100 100 100 28 9 55 25 5 5 5 5 2 0 0 0 0 0 0 0 2 5 5 5 5 3 5 5 3
54 56 42 76 94 100 100 92 100 100 100 100 100 100 100 76 14 2 5 5 5 5 4 0 0 0 0 4 1 0 0 0 0 0 0 1 5 5 5 5 5 23 5
100 100 100 67 86 84 77 91 100 100 100 99 38 0 0 0 5 5 5 5 0 0 0 0 0 5 5 5 5 5 2 0 3 3 5 5 3 3 4 0 0 5 0
42 87 79 20 30 20 5 4 1 2 1 0 0 0 1 4 2 0 0 0 2 5 5 5 5 0 4 4 2 0 0 5 5 4 0 0 0 0 0 1 0 0 0
6 5 5 1 3 5 2 3 3 0 0 0 0 0 0 0 0 0 3 4 5 5 5 2 0 0 0 0 0 0 0 0 5 0 0 1 4 5 5 5 5 5 5
52 5 39 59 79 13 52 34 4 0 0 0 0 0 0 0 0 0 0 3 2 0 0 0 3 0 0 1 1 5 3 9 5 0 4 5 5 5 5 5 5 5 5
75 82 88 100 100 97 0 0 0 0 0 0 0 0 0 0 0 5 5 5 3 0 0 0 1 8 5 73 98 98 99 100 100 68 3 4 5 5 21 5 5 5 5
87 5 0 1 3 5 5 4 2 5 3 3 5 5 5 1 0 0 0 0 0 2 4 43 87 93 70 56 35 17 76 86 86 96 100 25 2 0 4 5 4 0 0

GFSSE_prec_cloud_018.txt.gz
Cloud_Cover
100 100 100 100 100 100 58 78 98 78 100 100 100 90 26 5 5 0 0 0 2 1 0 0 0 1 0 0 0 0 0 0 0 3 0 0 0 0 0 0 0 5 0
96 99 100 100 100 100 100 100 99 100 98 73 78 89 100 89 5 1 1 0 36 1 4 0 0 0 3 0 0 0 0 0 0 0 0 0 0 0 0 0 0 0 0
98 100 92 100 99 100 99 100 98 98 100 100 96 96 51 5 5 16 3 3 1 2 1 0 0 0 0 0 0 0 0 4 5 5 0 0 10 0 0 0 0 0 0
100 100 80 97 99 100 98 90 100 100 100 99 66 6 100 81 22 62 13 6 22 2 4 0 0 0 0 1 2 3 0 0 50 2 0 0 27 0 0 0 0 0 0
100 100 89 100 87 94 13 84 93 70 100 100 68 17 20 10 5 4 1 0 23 4 65 4 0 0 0 4 2 5 5 4 5 3 0 0 2 12 0 0 0 0 0
100 100 100 96 100 100 100 100 100 100 33 8 5 54 45 2 2 5 6 9 6 3 5 5 5 5 4 5 4 5 7 3 5 0 0 0 0 0 0 0 0 0 0
100 100 100 100 100 97 100 100 94 10 98 40 94 79 100 29 12 42 66 71 5 5 5 52 46 5 13 13 18 42 61 0 0 0 0 0 0 0 0 0 0 0 0
100 100 100 100 100 100 100 98 100 100 100 100 100 100 82 25 44 5 42 6 32 78 96 69 11 11 10 43 74 95 23 2 0 0 0 0 0 0 0 2 0 0 0
100 100 100 100 100 100 100 100 100 100 100 100 100 100 30 76 60 32 89 98 22 100 100 97 98 99 100 100 7 5 4 0 0 0 0 0 0 0 0 0 0 0 0
100 100 100 100 100 100 100 100 100 100 100 100 87 63 100 100 100 91 95 44 96 99 97 98 100 100 100 100 22 5 0 0 0 0 0 0 0 0 0 0 0 0 0
100 100 100 100 100 100 100 100 100 100 100 99 100 100 100 94 100 100 84 40 65 15 5 21 84 5 88 11 1 0 0 0 0 0 0 0 0 0 0 0 0 0 0
100 100 100 100 100 98 100 100 100 100 100 100 100 100 100 100 100 77 5 41 25 29 8 18 5 5 5 0 0 0 0 0 0 0 0 0 0 0 0 0 0 0 0
100 100 100 100 100 100 99 99 100 100 100 100 100 100 100 100 100 44 6 5 50 16 6 5 5 5 0 0 0 0 0 0 0 0 0 0 0 0 0 0 0 0 0
100 100 100 100 100 100 100 100 100 100 100 100 100 100 100 100 78 66 20 6 7 5 5 5 4 0 0 0 0 0 0 0 0 0 0 0 0 0 0 0 0 0 2
100 100 100 100 100 100 99 100 97 100 100 100 100 100 96 100 100 93 96 99 22 5 66 25 6 18 18 5 1 0 0 0 0 0 0 0 0 0 4 1 0 0 0
96 89 100 100 100 100 100 100 100 100 100 100 100 100 100 100 100 100 100 66 84 71 7 72 97 25 5 5 0 0 0 0 0 0 0 0 0 0 0 1 0 0 0
85 100 100 53 67 90 100 100 96 100 100 100 100 100 100 100 100 100 100 100 100 100 100 100 95 62 4 0 0 0 0 0 0 0 0 0 0 0 0 0 0 0 0
100 100 90 90 41 94 100 100 100 100 100 100 100 100 100 100 100 100 100 100 100 100 100 55 15 0 0 0 5 5 5 5 2 0 1 0 0 0 0 1 0 0 0
72 80 85 77 76 97 100 100 100 100 100 100 100 100 100 100 100 100 100 100 57 4 0 1 2 5 2 2 2 1 4 4 0 4 26 3 1 1 0 2 4 0 0
100 71 70 97 100 99 100 100 100 100 100 100 100 100 96 90 72 100 62 6 3 2 0 0 0 0 0 3 0 0 1 0 1 2 5 5 3 5 1 0 0 2 4
48 83 99 100 98 100 93 99 100 94 58 19 4 4 0 0 0 0 0 0 0 0 0 0 5 5 1 2 0 0 0 4 42 78 77 33 44 58 93 100 73 28 5
19 53 73 57 56 72 76 63 0 1 4 5 3 0 0 0 0 0 0 0 0 0 0 0 1 2 4 6 22 5 4 3 0 55 46 5 5 5 5 6 5 5 5
83 31 7 5 5 5 77 61 27 3 36 0 0 0 0 0 0 0 0 0 0 0 1 0 0 5 5 5 43 5 4 2 3 3 18 13 5 5 15 6 5 9 5
75 5 5 5 5 5 43 35 0 0 0 3 5 5 5 3 5 5 0 0 0 0 0 1 5 1 5 5 5 5 5 5 34 26 20 91 37 4 33 28 29 36 4
5 5 47 79 14 0 0 0 1 5 5 5 5 5 5 5 5 5 3 0 4 1 5 0 0 5 6 46 63 82 5 5 7 37 6 5 5 7 5 5 5 5 23
5 5 5 0 0 5 5 5 5 5 43 23 30 5 5 18 23 5 2 0 0 0 16 5 5 5 50 100 86 5 5 5 5 24 35 9 11 2 6 5 40 62 6

GFSSE_prec_cloud_021.txt.gz
Cloud_Cover
97 97 69 37 91 73 58 11 26 77 68 100 100 94 100 99 73 87 36 3 0 4 3 4 3 0 0 0 0 0 0 0 0 0 0 0 0 0 0 0 0 21 0
97 33 55 85 87 30 90 6 5 5 42 100 100 100 98 100 100 89 97 17 5 5 4 5 2 0 2 0 1 0 0 0 0 0 0 0 1 0 0 0 0 0 0
100 100 90 100 100 82 90 56 10 5 5 6 11 78 92 74 95 48 6 54 5 4 5 0 5 0 4 5 4 0 0 0 0 0 0 72 44 0 0 0 0 0 0
99 96 100 100 100 100 93 55 12 5 8 8 55 93 98 6 6 3 14 22 5 4 5 7 5 5 4 0 0 3 5 0 0 0 6 5 14 0 0 0 0 0 0
100 100 100 100 100 98 64 92 70 38 86 49 38 73 13 30 5 2 1 3 78 57 5 28 36 5 3 0 3 74 2 1 3 6 5 5 28 0 0 0 0 0 0
100 100 100 100 100 100 100 97 98 100 79 65 10 24 50 40 24 100 99 100 14 42 8 24 5 5 22 96 6 5 5 5 5 83 0 0 0 1 0 0 0 0 0
100 100 100 100 100 100 99 100 100 66 99 100 99 100 100 100 98 100 100 75 60 86 5 2 16 74 78 30 7 12 82 13 5 6 4 0 0 0 0 0 0 0 0
100 100 100 100 100 100 100 100 100 100 100 100 100 100 100 100 100 100 100 80 91 31 89 78 100 94 80 79 47 87 89 100 89 50 0 0 0 0 0 0 0 0 0
100 100 100 100 100 100 100 100 100 100 100 100 100 100 100 100 100 100 100 98 99 48 71 98 5 6 20 97 90 86 23 76 6 5 2 0 0 0 0 0 0 0 0
100 100 100 100 100 100 100 100 100 100 100 100 100 81 100 100 100 100 100 100 100 100 79 27 29 5 5 58 56 100 33 5 2 1 0 0 0 0 0 0 0 0 0
100 100 100 100 100 100 100 100 100 100 100 100 100 100 100 100 100 100 100 100 100 86 99 6 5 5 13 5 59 92 43 31 4 2 0 0 0 0 0 0 0 0 0
100 100 100 100 100 100 100 100 100 100 100 100 100 100 100 100 100 100 94 100 89 66 14 4 27 1 0 5 5 5 10 1 2 2 0 0 0 0 0 0 0 0 0
100 100 100 100 100 100 100 100 100 100 100 100 100 100 100 100 100 98 36 59 43 43 17 5 23 3 1 3 0 0 2 5 0 0 0 0 0 0 0 0 0 0 0
100 100 100 100 100 100 100 100 100 100 99 100 100 100 100 100 98 87 89 60 14 54 5 7 40 16 58 100 12 100 98 74 3 0 0 0 0 0 0 0 0 0 0
100 100 100 100 100 100 100 100 100 100 100 100 100 100 100 100 100 100 100 100 79 79 40 100 100 88 99 100 90 45 11 4 0 0 0 0 0 0 0 0 0 0 0
96 100 100 100 100 100 100 100 100 100 100 100 100 100 100 100 100 100 100 100 100 100 97 86 96 100 65 94 90 3 1 5 3 5 2 0 0 0 0 0 0 0 0
100 100 100 100 100 100 100 100 100 100 100 100 100 100 100 100 100 100 100 100 100 100 100 100 100 99 9 5 1 4 3 5 5 4 5 5 5 5 5 1 0 0 0
100 100 93 100 100 96 55 97 100 100 100 100 100 100 100 100 100 100 100 100 100 100 100 100 100 92 2 0 0 5 5 1 5 5 3 35 99 4 51 37 6 0 0
100 100 100 99 100 99 100 100 100 91 46 100 100 100 98 100 94 98 100 100 99 69 8 0 0 0 0 0 4 5 3 0 5 0 1 5 53 42 92 2 5 4 0
92 70 100 100 100 86 72 100 100 100 100 84 61 55 38 12 77 57 16 2 0 0 0 0 0 0 0 2 1 5 0 2 0 2 5 17 24 23 66 88 6 46 51
7 52 96 100 100 54 88 100 100 100 40 22 4 0 0 0 0 0 0 0 0 0 0 0 2 0 0 0 2 5 5 0 1 5 7 74 89 48 90 55 84 97 46
18 80 78 87 78 91 99 56 25 73 7 7 0 0 0 0 5 5 5 4 5 3 5 5 0 4 2 0 5 5 5 5 5 4 5 5 5 72 53 99 44 62 94
97 100 98 98 54 80 33 5 12 5 2 0 0 0 3 5 5 4 2 5 5 5 4 0 4 5 5 5 5 5 5 5 5 4 5 5 5 68 88 7 69 95 98
63 41 18 18 12 8 5 2 0 8 94 6 5 5 5 5 2 5 5 5 5 0 4 6 5 4 5 5 5 5 34 58 99 31 5 5 30 23 42 31 99 59 9
5 5 6 8 2 0 0 0 0 3 5 5 5 5 5 5 9 72 5 5 3 0 5 5 5 5 5 11 60 40 100 91 76 88 6 32 30 52 92 98 99 17 5
5 5 5 1 0 0 0 0 0 4 5 5 42 37 19 85 11 17 71 39 0 5 5 5 8 28 8 76 67 37 73 89 68 95 70 33 84 20 100 93 7 80 22

GFSSE_prec_cloud_024.txt.gz
Cloud_Cover
84 81 100 69 16 7 5 6 21 11 16 5 5 5 5 5 3 5 4 5 5 52 53 35 7 5 8 6 0 0 0 0 0 0 0 0 0 0 0 0 0 0 0
92 61 88 63 99 82 81 91 41 15 47 5 5 5 3 5 5 48 45 4 50 3 1 2 0 0 0 1 1 0 0 0 0 0 3 3 20 0 0 0 0 0 0
100 100 59 86 92 98 98 95 59 87 88 36 12 38 42 6 14 99 60 28 1 0 1 5 5 5 2 4 0 0 0 0 3 31 68 100 86 0 0 0 0 0 0
95 89 90 90 60 91 100 100 89 82 100 100 100 100 81 66 24 32 32 46 56 5 24 7 3 4 1 0 0 3 4 1 33 75 0 100 0 4 0 0 0 0 0
34 78 100 100 99 100 100 100 100 100 100 100 100 100 100 100 100 86 81 76 100 96 100 48 9 20 5 5 6 100 18 66 18 4 0 3 9 5 4 0 0 0 0
100 100 100 100 100 100 100 100 100 100 100 100 100 100 100 100 100 100 100 100 100 100 100 100 100 68 10 99 60 6 14 3 5 6 3 2 5 5 5 0 0 0 0
96 100 100 100 100 100 100 100 100 100 100 100 100 100 100 100 100 100 100 100 100 100 100 100 99 100 100 100 5 13 5 43 6 5 20 5 52 5 0 0 0 0 0
87 100 100 100 100 100 100 100 100 100 100 100 100 100 100 100 100 100 100 100 100 99 78 89 100 90 37 100 85 95 34 23 25 13 71 58 5 2 0 0 0 0 0
100 100 100 100 100 100 100 100 100 100 100 100 100 100 100 100 100 100 100 96 87 100 100 85 100 100 100 78 100 99 5 11 8 93 14 5 0 0 0 0 0 0 0
100 100 100 100 100 100 100 100 100 100 100 100 100 100 100 100 100 100 100 100 100 100 62 11 100 100 100 100 23 26 3 5 37 69 5 0 2 0 0 0 0 0 0
100 100 100 100 100 100 100 100 100 100 100 100 100 100 100 100 100 100 100 98 100 100 99 60 24 100 84 11 5 1 2 0 0 4 0 0 3 0 0 0 0 0 0
100 100 100 100 100 100 100 100 100 100 100 100 100 100 100 100 100 100 100 100 100 97 78 100 100 49 41 17 2 0 0 0 0 0 0 4 94 5 0 0 2 0 0
100 100 100 100 100 100 100 100 100 100 100 100 100 100 100 100 100 100 100 100 93 100 100 42 74 99 56 58 22 5 4 5 5 64 98 12 0 0 0 0 0 0 0
100 100 100 100 100 100 100 100 100 100 100 100 100 100 100 100 100 100 100 57 16 16 92 35 60 98 5 5 11 39 100 76 100 3 0 0 0 0 0 0 0 0 0
100 100 100 100 100 100 100 100 100 100 100 100 100 100 100 100 100 100 98 45 82 100 90 100 85 100 70 90 100 100 100 100 100 95 3 0 0 0 1 0 0 0 0
100 100 100 100 100 100 100 100 100 100 100 100 100 100 100 100 100 100 100 100 100 100 100 100 100 95 52 57 99 100 100 100 66 1 5 4 5 5 3 5 0 0 0
84 100 100 100 100 100 100 100 100 100 100 100 100 100 100 100 100 100 100 99 100 100 99 100 93 100 100 100 62 4 0 0 0 0 0 0 1 5 92 12 5 3 0
37 100 100 100 100 100 100 100 100 100 100 100 100 100 90 94 100 100 100 100 72 97 100 96 42 5 4 2 0 0 0 0 0 0 0 3 0 5 90 100 96 5 5
100 100 100 100 100 100 100 100 97 85 71 87 100 100 100 100 70 10 5 4 6 5 4 0 0 0 0 0 0 0 0 0 0 0 0 0 0 20 68 100 97 58 33
100 100 100 100 100 99 80 51 100 90 95 98 100 92 36 5 5 4 1 2 1 0 0 0 0 5 5 3 0 0 0 0 0 0 1 12 6 77 100 98 83 74 91
100 97 100 58 100 98 67 88 100 23 5 5 5 5 5 1 0 0 0 1 4 0 3 0 5 0 0 0 0 0 0 0 0 0 0 1 1 76 100 100 100 100 17
64 9 75 47 100 83 26 96 51 24 8 4 0 0 0 5 4 1 3 4 1 5 5 5 4 0 0 0 0 0 0 3 0 0 1 0 5 45 95 100 53 37 98
91 84 49 26 60 5 39 99 100 99 0 0 0 0 5 5 5 5 4 5 5 5 5 4 0 0 1 2 0 2 1 4 5 4 2 0 1 4 2 4 52 89 56
77 99 48 75 30 100 71 0 0 0 0 0 7 0 4 17 79 41 23 5 1 5 5 1 0 2 0 0 3 1 5 5 5 5 4 5 5 5 4 2 3 5 5
82 19 100 64 52 5 4 0 0 0 0 0 0 5 16 83 86 5 36 5 0 0 0 0 0 5 5 6 5 5 5 5 5 5 5 5 0 0 0 60 100 12 11
49 82 11 5 5 5 2 0 0 0 0 1 5 36 66 91 65 24 4 1 4 4 5 0 5 5 44 18 3 39 28 13 5 51 3 3 0 1 0 4 27 12 75

GFSSE_prec_cloud_027.txt.gz
Cloud_Cover
100 98 100 100 95 100 99 100 96 64 82 12 5 20 10 53 10 5 5 5 54 10 0 0 2 0 0 0 0 0 0 0 0 0 0 0 14 0 0 1 0 0 0
45 72 100 100 100 100 100 100 100 100 98 78 84 92 33 88 98 92 82 92 5 5 35 5 2 0 0 0 5 0 0 0 0 1 0 4 19 3 7 0 0 0 0
88 100 100 84 100 100 100 100 100 100 99 100 100 58 86 80 100 100 100 89 7 100 17 39 39 4 4 11 5 0 8 89 93 3 39 5 12 3 0 3 0 0 0
22 100 100 100 100 100 100 100 98 87 100 93 97 100 100 100 100 100 100 100 100 100 100 86 80 21 4 98 82 100 100 66 5 5 4 2 2 3 2 0 0 0 0
9 98 100 100 100 100 100 99 100 94 100 100 100 100 100 100 100 100 100 100 100 100 100 8 47 100 100 99 98 100 70 5 2 10 75 1 66 5 0 3 0 1 1
23 51 100 100 100 99 100 100 100 100 78 100 100 100 100 100 100 100 100 100 100 100 100 100 10 38 100 100 100 7 6 5 86 99 24 98 30 5 4 5 4 4 0
92 90 96 100 100 100 100 100 100 100 73 100 100 100 100 100 100 100 100 100 100 100 87 100 100 100 100 95 98 100 61 93 16 54 100 78 5 5 5 5 0 0 0
100 100 100 100 100 100 100 100 100 100 100 100 100 100 100 100 100 100 100 100 100 100 100 100 100 100 100 100 100 98 30 100 85 56 67 50 46 5 8 6 5 0 0
100 100 100 100 100 100 100 100 100 100 100 100 100 100 100 100 100 100 100 100 100 87 100 100 100 100 100 100 27 48 18 5 78 58 94 97 22 3 3 5 2 0 0
100 100 100 100 100 100 100 100 100 100 100 100 100 100 100 100 100 100 100 100 100 100 100 100 100 100 57 100 85 88 100 15 88 84 14 5 3 0 0 0 0 9 2
100 100 100 100 100 100 100 100 100 100 100 100 100 100 100 100 100 100 93 100 100 100 100 100 100 100 100 100 100 41 7 2 5 3 0 0 0 0 0 0 3 5 9
100 100 100 100 100 100 100 100 100 100 100 100 100 100 100 100 100 100 100 100 100 100 99 100 100 100 100 55 6 2 7 17 21 5 13 1 4 78 4 5 4 4 1
100 100 100 100 100 100 100 100 100 100 100 100 100 100 100 100 100 100 100 100 100 100 100 100 100 100 77 6 88 79 91 80 5 14 4 5 5 8 14 100 100 14 0
100 100 100 100 100 100 100 100 100 100 100 100 100 100 100 100 100 100 100 100 100 100 100 100 100 99 75 20 100 79 95 100 82 11 5 33 100 100 83 7 0 0 0
100 100 100 100 100 100 100 100 100 100 100 100 100 100 100 100 100 100 99 100 100 100 100 100 100 100 88 53 37 30 31 93 96 100 100 68 0 2 0 0 0 0 0
100 100 100 100 100 100 100 100 100 100 100 100 100 100 100 100 100 100 100 100 100 100 100 100 100 67 97 75 52 38 17 1 0 0 0 0 0 0 0 0 0 5 4
100 100 100 100 100 100 100 100 100 100 100 100 100 100 100 100 100 100 100 100 100 100 60 11 7 5 4 0 0 0 0 0 0 0 0 0 0 0 0 0 52 54 21
100 100 100 100 100 100 100 100 100 100 100 100 100 100 100 100 100 100 98 92 28 18 6 5 4 1 0 0 0 0 0 0 0 0 0 0 0 0 0 2 35 22 5
39 89 100 100 100 100 100 100 100 100 100 100 100 100 100 98 77 68 73 10 29 12 5 5 2 0 0 0 0 0 0 0 0 0 0 0 0 2 27 90 30 48 60
90 99 100 25 8 37 100 100 100 100 99 49 51 27 71 49 58 8 5 5 5 5 4 5 2 0 0 0 0 0 0 0 0 0 0 0 0 3 5 8 79 89 99
100 95 100 100 100 100 100 100 100 100 57 100 100 97 57 5 7 5 5 3 4 5 5 5 0 0 0 0 0 0 0 0 0 0 0 0 0 0 5 5 79 87 83
100 96 93 100 100 95 87 52 43 26 21 10 5 5 5 5 5 5 5 60 97 5 6 3 0 0 0 0 0 0 0 0 0 0 0 0 0 0 4 83 100 100 96
76 19 100 90 90 38 5 7 20 5 42 8 4 2 0 0 5 5 75 81 11 25 23 0 0 0 0 0 0 2 2 0 0 0 2 0 0 0 0 1 44 55 76
74 97 100 55 23 6 22 58 50 41 2 0 0 0 0 5 5 5 74 76 68 4 0 2 0 0 0 2 3 5 5 3 0 3 0 0 0 0 0 0 0 5 5
5 44 44 43 76 77 9 21 21 72 26 0 0 0 5 6 74 10 84 88 97 98 59 2 2 3 3 5 5 5 6 5 5 5 0 0 0 0 0 0 0 0 2
43 100 59 1 76 65 50 28 5 4 0 0 0 3 52 98 99 5 57 6 27 36 4 5 4 5 5 5 23 97 25 18 22 17 5 0 0 0 0 0 0 0 0

GFSSE_prec_cloud_030.txt.gz
Cloud_Cover
85 49 9 45 81 83 100 89 76 93 69 66 80 94 100 100 48 11 5 5 5 5 5 5 22 5 4 1 1 0 0 0 0 1 0 3 1 3 2 0 0 0 0
84 58 22 5 54 90 93 100 95 100 78 85 99 100 82 97 99 63 32 97 74 5 74 96 61 5 57 45 0 0 0 0 0 45 5 4 97 10 0 0 0 7 1
100 52 5 93 100 100 100 100 98 100 100 100 100 100 100 95 100 100 100 96 31 100 90 97 99 93 100 100 19 5 5 19 100 71 52 61 65 5 2 21 6 60 17
95 89 100 33 98 98 100 100 100 100 100 100 100 100 100 100 100 100 100 96 100 100 100 32 73 100 100 99 14 90 81 100 100 100 100 8 8 56 34 90 0 4 0
96 75 78 96 86 100 100 100 74 100 100 100 100 100 100 100 100 100 100 100 100 100 84 86 100 100 100 36 4 52 100 99 100 100 100 100 100 54 6 5 3 0 0
77 76 96 97 100 98 100 100 100 100 100 100 100 100 100 100 100 100 100 100 100 100 100 100 100 100 100 99 19 33 99 24 100 100 100 100 17 5 90 5 1 5 5
100 100 100 100 100 100 100 100 100 100 100 100 100 100 100 100 100 100 100 100 100 100 100 100 100 100 100 26 90 100 100 100 100 100 100 100 100 100 100 11 5 5 4
100 100 100 100 100 100 100 100 100 100 100 100 100 100 100 100 100 100 100 100 86 99 100 100 100 98 100 98 100 100 100 100 100 100 98 100 77 5 5 0 5 7 72
100 100 100 100 100 100 100 100 100 100 100 100 100 100 100 100 66 100 96 100 100 100 100 100 100 100 100 27 100 100 100 100 100 98 46 8 6 33 4 5 5 3 0
100 100 100 100 100 100 100 100 100 100 100 100 100 100 100 100 87 100 100 100 100 99 78 100 100 100 69 100 100 100 99 100 40 5 12 100 90 5 6 5 4 0 6
100 100 100 100 100 100 100 100 100 100 100 100 100 100 100 100 100 100 100 100 100 100 100 100 100 100 100 100 44 13 41 44 68 23 15 49 68 50 1 0 4 5 3
100 100 100 100 100 100 100 100 100 100 100 100 100 100 100 100 100 100 100 100 100 100 100 99 100 100 100 100 94 99 8 5 98 90 74 91 47 41 73 63 33 5 6
100 100 100 100 100 100 100 100 100 100 100 100 100 100 100 100 100 100 100 100 100 100 100 100 100 100 36 22 85 74 34 83 94 100 99 100 80 24 27 12 18 93 100
100 100 100 100 100 100 100 100 100 100 100 100 100 100 100 100 100 100 100 100 100 100 78 8 98 78 99 100 100 100 100 89 11 2 5 0 0 0 0 0 0 0 0
100 100 100 100 100 100 100 100 100 100 100 100 100 100 100 100 100 100 100 100 100 100 100 100 100 100 100 100 100 100 60 2 4 1 0 0 0 0 0 0 0 0 0
100 100 100 100 100 100 100 100 100 100 100 100 100 100 100 100 100 100 100 100 100 100 100 100 100 100 100 100 100 34 3 0 0 0 0 0 0 0 0 0 0 0 0
100 100 100 100 100 100 100 100 100 100 100 100 100 100 100 100 100 100 100 100 100 100 100 100 100 100 78 36 5 0 0 0 0 0 0 0 0 0 0 0 0 1 15
100 100 100 100 100 100 100 100 100 100 100 100 100 100 100 100 100 100 100 100 100 100 100 100 97 53 16 8 5 3 0 0 0 0 0 0 0 0 0 56 100 41 45
100 100 100 100 100 100 100 100 100 100 100 100 100 100 100 100 100 100 100 100 100 100 100 50 18 6 5 3 0 0 0 0 0 0 0 0 0 0 0 5 4 8 45
100 100 100 100 100 100 100 100 100 100 100 100 100 100 100 100 100 100 100 99 39 40 5 16 40 5 5 0 0 0 0 0 0 0 0 0 0 0 4 3 5 11 95
100 93 52 80 90 95 100 100 100 100 100 100 100 100 100 100 100 92 9 5 23 43 26 83 73 62 0 2 0 0 0 0 0 0 0 2 2 0 0 0 5 55 78
0 3 4 5 27 100 100 96 65 46 35 80 62 42 19 5 5 22 40 77 24 17 69 14 78 15 78 46 2 0 0 0 0 4 5 5 5 4 1 0 0 4 48
5 5 5 72 92 100 26 38 23 26 10 5 5 5 16 51 44 6 73 44 25 5 49 67 20 6 12 0 0 1 1 0 0 5 7 5 4 2 0 0 0 0 0
63 5 62 100 100 79 96 7 7 6 20 8 9 6 2 1 5 5 5 5 5 5 4 4 5 46 5 0 1 4 5 5 5 5 4 5 5 0 0 0 2 0 0
6 13 4 100 88 100 98 37 15 80 5 5 1 0 5 5 8 76 96 85 5 5 5 7 92 74 0 0 5 5 17 56 92 12 5 5 5 2 0 0 4 3 0
3 5 27 17 22 78 10 4 80 97 15 5 5 5 14 63 54 94 83 62 95 38 67 49 6 5 0 3 5 14 25 36 68 5 5 5 5 7 88 68 5 5 0

GFSSE_prec_cloud_033.txt.gz
Cloud_Cover
92 69 3 17 5 56 100 96 72 69 56 21 13 5 5 5 52 58 44 5 8 5 5 1 4 3 5 5 5 5 96 100 7 0 0 0 0 0 2 1 3 3 0
100 76 16 0 3 5 6 53 100 100 70 98 31 99 46 33 79 38 8 12 12 5 5 5 5 5 5 5 30 32 18 76 52 21 3 0 1 64 28 94 93 6 5
100 76 27 3 5 30 64 100 96 98 94 100 100 100 100 59 28 82 100 93 96 36 5 5 39 5 15 97 47 37 77 100 100 59 3 10 62 80 86 68 5 74 97
100 76 15 5 5 97 98 92 100 100 92 98 100 100 100 92 97 96 100 70 73 7 5 29 22 17 25 68 100 94 5 100 96 6 5 5 3 27 26 96 100 100 64
100 67 26 37 54 78 94 58 82 100 100 100 98 100 100 100 100 100 100 97 76 97 98 13 15 78 100 100 100 96 100 100 22 5 5 21 100 93 100 100 100 100 5
100 73 30 28 36 88 100 99 82 90 100 100 100 100 100 100 100 100 100 100 69 100 100 100 100 71 81 89 96 99 100 74 5 4 100 100 100 100 100 100 89 5 5
100 100 93 97 100 100 100 100 100 100 100 99 100 100 100 100 100 100 100 92 100 100 68 98 99 61 95 100 100 96 59 100 100 100 100 62 100 99 16 5 5 5 18
92 100 100 100 100 100 100 100 100 100 100 100 100 100 100 100 100 100 100 99 100 96 87 97 100 97 95 70 54 99 100 100 100 100 81 100 21 15 5 6 25 4 5
100 100 100 100 100 100 100 100 100 100 100 100 100 100 100 100 100 100 100 100 76 97 100 100 96 90 100 84 100 100 100 100 100 90 54 74 5 5 10 5 5 4 4
100 100 100 100 100 100 100 100 100 100 100 100 100 100 100 100 98 100 100 55 90 100 100 94 99 100 100 100 100 100 100 100 50 5 5 8 89 6 6 7 5 4 1
100 100 100 100 100 100 100 100 100 100 100 100 100 100 100 99 97 100 100 100 89 68 100 100 100 100 100 63 78 96 100 36 5 56 29 5 76 80 73 30 5 47 100
100 100 100 100 100 100 100 100 100 100 100 100 100 100 100 98 100 100 100 100 100 100 100 99 100 100 99 8 3 5 36 18 5 13 84 20 61 97 22 5 3 1 0
100 100 100 100 100 100 100 100 100 100 100 100 100 100 100 100 100 100 100 100 90 100 89 100 100 100 100 90 70 24 37 18 93 5 6 5 77 5 5 3 0 0 0
100 100 100 100 100 100 100 100 100 100 100 100 100 100 100 100 100 100 100 100 100 98 100 94 72 64 100 100 54 61 32 81 6 84 6 1 2 0 0 0 0 0 0
100 100 100 100 100 100 100 100 100 100 100 100 100 100 100 100 100 100 100 99 100 100 100 100 66 49 81 75 19 49 100 57 64 5 5 0 0 0 0 0 0 0 0
100 100 100 100 100 100 100 100 100 100 100 100 100 100 100 100 100 100 100 100 100 83 100 100 100 100 100 93 11 90 99 94 31 28 5 3 0 0 0 0 0 0 1
100 100 100 100 100 99 100 69 95 100 100 100 100 100 100 100 100 99 100 100 100 100 100 100 100 100 100 98 100 70 30 5 5 5 0 0 0 0 0 0 0 1 100
100 100 100 100 42 100 99 100 99 100 100 100 100 100 100 100 96 100 84 94 98 100 100 100 100 100 86 99 90 19 5 5 3 0 0 0 0 0 0 0 0 4 97
100 100 100 100 100 100 100 100 100 100 100 100 100 100 100 100 100 100 100 100 100 100 100 100 100 100 90 27 6 5 2 0 0 0 0 0 0 0 0 0 2 46 5
100 99 100 100 100 100 100 100 100 100 100 100 100 100 100 100 100 100 100 100 100 100 100 100 76 52 11 5 5 5 5 1 0 0 0 0 0 0 0 0 4 5 5
100 100 100 100 100 100 100 100 100 100 100 100 100 100 100 100 100 100 100 87 58 85 75 34 6 4 5 5 99 4 5 3 0 0 0 0 0 0 0 0 0 0 0
100 100 100 100 100 100 100 100 80 84 91 96 100 100 100 95 72 76 46 62 50 17 6 7 0 0 0 1 8 60 77 12 0 0 0 0 0 0 0 0 0 0 0
72 72 100 100 98 13 11 9 38 53 36 72 38 5 8 6 7 18 8 5 2 0 4 5 2 2 5 70 53 49 3 1 3 5 5 5 5 29 93 98 87 49 6
5 14 12 15 63 68 83 93 92 94 21 47 62 5 5 5 6 5 5 5 5 6 33 5 5 5 5 3 1 1 5 5 10 6 5 5 5 5 5 5 5 7 38
8 5 5 27 100 100 100 100 100 100 100 90 42 5 5 6 5 17 28 46 8 98 96 68 31 5 5 5 5 5 5 5 7 5 5 33 77 68 5 5 5 19 14
7 5 18 66 100 100 98 88 63 51 13 5 38 5 96 76 30 33 5 7 16 99 98 92 96 85 64 20 15 24 93 24 69 76 67 54 27 5 33 23 97 100 100

GFSSE_prec_cloud_036.txt.gz
Cloud_Cover
93 59 11 5 3 3 5 5 5 5 26 43 5 90 100 78 5 5 5 5 5 5 5 5 5 3 5 5 4 5 2 5 23 5 5 5 10 3 0 0 0 5 3
75 54 5 1 5 0 0 5 5 77 83 99 6 100 100 36 5 5 5 5 5 5 5 5 5 5 5 5 1 0 5 5 11 96 98 86 91 18 4 5 1 2 5
96 48 25 5 0 0 5 8 6 16 100 60 80 100 5 5 5 5 5 5 5 5 5 33 35 5 9 5 0 1 5 5 3 5 2 26 94 100 100 35 3 21 100
88 47 60 63 13 5 32 30 90 93 100 85 100 99 8 5 5 40 22 5 9 11 5 72 12 15 6 5 5 75 24 2 44 11 66 80 100 96 41 38 100 96 52
95 40 51 38 33 23 15 92 92 63 100 100 99 50 73 12 24 11 36 100 87 26 5 73 29 5 5 5 83 5 5 2 78 31 68 84 98 43 100 100 100 100 64
100 33 26 24 70 32 100 100 94 100 100 73 100 73 36 87 100 100 89 70 98 100 37 98 100 70 79 99 92 65 73 5 5 3 21 61 98 100 100 100 72 5 0
97 55 95 100 100 93 100 100 100 100 91 98 98 96 100 100 78 98 100 100 100 39 100 100 100 72 100 96 99 90 14 24 5 33 100 100 100 100 100 2 3 6 0
100 100 100 100 100 100 100 100 100 100 100 100 100 100 100 100 100 100 100 96 62 100 98 82 90 64 33 30 15 75 77 97 100 92 31 84 94 100 65 2 5 5 0
100 100 100 100 100 100 100 100 100 100 100 100 100 100 100 100 100 100 89 54 65 94 38 21 15 26 5 13 70 96 86 100 45 56 100 58 2 5 13 5 5 2 13
100 100 100 100 100 100 100 100 100 100 100 100 100 100 100 100 100 96 75 92 94 36 5 6 63 92 15 83 100 100 60 100 73 6 7 5 5 5 8 5 4 5 1
100 100 100 100 100 100 100 100 100 100 100 100 100 100 100 100 96 95 78 100 44 60 96 73 15 100 100 94 26 56 74 28 65 70 76 5 5 5 5 0 0 4 5
100 100 100 100 100 100 100 100 100 100 100 100 100 100 90 76 91 100 100 100 100 100 100 100 100 77 70 10 36 42 6 5 5 5 0 3 0 2 30 4 5 1 0
100 100 100 100 100 100 100 100 100 100 100 100 100 100 100 100 100 96 77 100 100 100 100 100 88 44 100 85 83 75 4 92 21 6 0 0 5 5 14 5 0 0 0
100 100 100 100 100 100 100 100 100 100 100 100 100 100 100 100 86 98 100 100 100 100 98 81 54 100 99 89 100 90 97 44 27 5 2 3 3 5 6 5 7 0 0
100 100 100 100 100 100 100 100 100 100 100 100 100 100 100 100 100 100 99 92 100 91 92 97 100 100 32 6 5 5 55 5 28 5 24 5 5 6 5 0 6 4 0
100 100 100 100 100 100 100 100 100 100 100 100 100 100 100 100 100 100 100 100 100 87 100 100 88 97 40 27 10 36 92 100 86 26 7 33 6 1 0 0 6 27 30
100 100 100 100 100 100 100 100 100 100 100 100 100 100 100 97 100 100 100 100 100 100 100 73 6 5 31 25 28 100 100 62 31 55 10 2 0 0 0 0 0 0 1
100 100 100 100 100 100 100 100 100 100 100 94 100 100 100 98 100 100 100 100 100 100 100 80 57 100 100 93 64 92 84 13 23 4 0 0 0 0 0 0 0 0 0
86 100 89 74 100 78 100 100 100 100 80 94 100 100 100 100 100 100 100 100 100 100 100 95 82 76 24 64 63 49 19 0 0 0 0 0 0 0 0 0 0 1 5
100 86 100 32 37 74 94 73 58 81 100 100 100 100 100 100 100 100 100 100 100 100 92 25 66 77 58 14 4 0 0 0 0 0 2 5 2 0 0 0 0 0 0
87 44 8 100 100 100 100 100 100 100 100 100 100 100 100 100 100 100 100 100 100 37 6 99 86 5 0 0 0 0 0 0 2 0 0 0 0 0 0 0 0 0 0
100 100 100 100 79 94 100 100 100 100 100 100 100 100 100 91 72 74 63 25 13 68 39 2 0 0 0 0 5 4 1 0 3 54 5 5 5 4 0 0 0 0 4
100 100 100 100 100 100 89 86 97 77 50 39 51 30 60 59 31 5 17 47 14 0 0 0 4 6 32 84 5 67 25 5 4 5 21 5 5 5 4 5 22 59 15
91 82 78 94 77 20 18 85 93 84 100 74 77 73 30 7 20 33 11 0 0 3 4 5 76 85 91 46 30 45 21 5 5 4 3 4 5 5 5 5 13 72 78
100 100 100 100 100 84 84 100 100 100 100 100 82 18 5 13 5 5 5 5 6 5 7 88 89 85 6 5 79 93 32 5 5 5 5 5 0 2 6 98 99 99 98
5 11 93 77 94 100 100 100 100 100 100 47 62 45 5 5 6 40 5 23 35 92 100 90 99 95 80 26 5 6 5 5 5 5 5 3 4 2 6 5 63 93 64

GFSSE_prec_cloud_039.txt.gz
Cloud_Cover
54 86 100 87 54 49 33 18 5 5 6 30 33 6 8 23 5 5 3 3 0 0 0 0 0 0 0 0 0 0 0 0 0 0 2 2 2 4 3 5 39 57 35
57 24 24 6 44 34 5 5 5 5 29 19 94 8 64 28 5 5 5 5 5 0 0 0 0 0 0 0 0 0 0 0 0 5 14 5 1 0 0 2 5 100 96
86 42 5 5 5 5 52 5 6 35 91 46 50 5 17 75 5 5 5 10 19 5 5 2 0 0 0 0 0 0 2 2 3 4 0 5 1 5 5 3 9 5 45
78 55 39 5 53 23 5 87 76 12 64 27 100 5 88 100 21 34 95 96 5 15 64 93 6 5 9 2 3 2 2 1 5 3 5 0 0 30 54 93 83 61 97
78 64 51 68 14 5 70 99 99 91 84 52 100 61 100 100 34 90 100 78 23 58 37 32 64 38 5 3 5 79 60 1 3 4 0 2 0 1 22 85 92 50 100
92 66 92 39 87 47 100 100 97 38 68 8 100 7 5 16 55 96 55 7 43 43 96 10 48 99 21 6 42 98 24 5 17 5 18 26 5 47 62 45 1 5 42
74 79 100 100 97 87 100 100 99 100 6 93 94 53 8 35 98 100 96 51 5 6 7 19 93 97 86 15 73 5 5 4 1 13 10 10 71 68 94 58 36 0 68
100 98 100 100 100 100 100 100 100 89 100 100 100 97 100 99 89 87 94 15 19 51 16 9 9 48 5 14 5 2 2 0 1 2 4 5 12 3 1 0 6 41 3
100 100 100 100 100 100 100 100 100 100 100 100 98 100 100 100 87 11 45 77 100 56 5 5 9 7 3 3 5 0 1 34 22 6 2 68 2 2 3 15 18 8 15
100 100 100 100 100 100 100 100 100 100 100 100 100 100 100 100 100 12 8 8 75 5 5 0 0 2 5 5 5 31 99 100 18 0 5 2 0 0 0 3 0 0 0
100 100 100 100 100 100 100 100 100 100 100 100 100 100 100 70 63 35 93 27 5 6 17 3 14 5 5 55 100 90 18 20 5 5 5 5 12 3 0 0 0 1 2
100 100 100 100 100 100 100 100 100 100 100 100 100 90 99 86 72 14 99 87 11 3 5 66 61 75 100 74 34 6 6 6 84 7 5 2 0 0 8 0 5 5 1
100 100 100 100 100 100 100 100 100 100 100 98 100 90 99 74 100 100 100 41 37 61 59 97 100 100 74 45 81 26 11 3 0 1 4 0 5 25 30 3 0 0 0
100 100 100 100 100 100 100 100 100 100 100 100 63 70 97 100 100 100 99 98 66 100 100 100 100 97 100 100 51 22 5 5 5 5 4 5 4 0 3 6 6 0 0
100 100 100 100 100 100 100 100 100 100 100 99 100 100 100 86 66 58 100 100 100 100 100 100 100 71 100 96 100 72 34 84 66 7 5 4 0 0 0 0 13 3 1
100 100 100 100 100 100 100 100 100 79 90 100 100 97 99 91 100 100 100 100 100 100 100 100 100 94 100 38 25 99 100 49 3 5 5 5 2 0 0 0 2 16 3
100 100 100 100 100 100 100 99 100 100 100 100 100 100 100 100 100 100 100 100 100 100 91 87 100 100 50 98 100 32 16 55 6 10 5 0 0 0 0 0 2 2 37
100 100 100 100 100 100 100 100 100 100 100 100 100 100 100 100 100 100 100 100 100 100 100 98 100 100 100 76 66 88 5 9 17 5 0 0 0 0 0 0 0 0 0
100 100 100 100 100 100 100 100 100 100 100 100 100 100 100 100 100 100 96 56 100 100 99 98 100 89 60 5 5 5 5 4 0 0 0 0 0 0 0 0 0 0 0
100 100 100 100 100 100 100 100 100 100 100 100 100 100 100 96 49 80 100 100 100 100 84 50 75 44 14 5 5 4 0 0 0 0 0 0 0 0 0 0 0 0 0
98 100 100 100 100 100 100 100 100 100 100 85 100 100 96 100 100 100 100 100 100 76 71 74 57 40 8 2 0 0 0 3 0 0 0 0 0 0 0 0 0 0 0
58 100 100 100 100 100 94 82 68 56 61 30 100 100 100 100 100 93 80 74 36 6 11 22 38 9 5 5 5 5 5 4 0 3 0 0 0 0 0 0 0 0 0
45 54 34 65 100 99 76 65 36 99 100 100 100 100 100 96 69 64 32 21 5 12 38 6 5 5 5 5 5 5 5 1 1 0 0 0 0 0 0 2 5 5 5
100 100 100 100 100 100 100 100 100 100 87 59 23 76 30 60 39 17 5 5 5 5 5 5 5 6 8 90 38 97 64 6 4 4 1 1 0 4 5 5 5 5 5
100 100 100 100 100 89 100 98 96 11 53 100 100 79 99 100 100 14 5 5 5 5 5 10 69 98 100 100 50 45 5 0 3 4 0 0 1 4 5 1 5 5 5
100 100 100 100 100 56 100 100 88 100 88 95 100 100 100 100 54 37 38 42 90 57 16 98 97 100 98 54 5 5 5 1 1 4 5 5 5 5 5 2 4 0 2

GFSSE_prec_cloud_042.txt.gz
Cloud_Cover
97 11 5 100 92 94 85 84 90 90 22 40 20 5 5 5 5 5 0 0 0 0 0 0 0 0 0 0 0 0 0 0 0 0 0 0 0 0 0 0 2 17 18
100 8 9 100 100 93 22 56 12 10 5 95 72 13 5 5 14 5 2 0 0 0 0 0 0 0 0 0 0 0 0 0 0 0 0 0 0 0 1 0 0 8 94
100 17 5 81 100 100 51 23 5 5 5 16 8 5 8 8 11 5 5 5 3 0 1 0 0 0 2 3 0 0 2 3 1 0 0 0 4 0 0 0 0 1 81
95 98 93 64 23 12 5 5 5 5 5 5 5 38 86 96 68 5 5 5 5 5 0 0 0 0 4 1 0 0 4 5 5 1 0 0 0 0 0 0 0 0 19
90 98 32 7 9 5 5 5 41 5 28 5 5 5 97 66 16 5 56 16 5 5 5 3 3 5 0 0 3 2 13 2 2 5 2 5 2 2 5 0 5 6 2
89 100 49 5 5 5 75 96 97 88 87 5 5 60 100 17 5 82 99 25 5 5 5 4 0 22 0 4 4 5 4 5 2 5 5 5 4 53 83 72 87 1 2
100 98 100 70 76 100 100 98 98 100 95 5 93 68 100 48 5 75 31 34 40 53 27 45 31 25 5 5 5 5 4 3 0 0 1 0 0 0 0 3 45 5 72
100 79 100 100 100 100 100 100 97 100 53 50 100 100 100 100 100 100 100 90 87 75 84 100 99 4 5 4 4 0 0 0 0 0 1 1 3 2 3 3 1 3 1
100 100 100 100 100 100 100 100 100 100 100 100 100 100 100 100 100 100 94 15 5 48 98 100 88 1 1 4 0 0 0 5 3 5 7 3 5 3 2 0 0 0 2
100 100 100 100 100 100 100 100 100 100 100 100 100 100 100 100 100 98 43 31 42 96 89 73 2 4 5 0 1 5 57 13 76 35 5 0 3 3 0 5 0 0 0
100 100 100 100 100 100 100 100 100 100 100 100 100 100 100 100 100 47 56 83 88 21 12 4 0 1 4 7 97 72 85 25 7 5 5 4 1 3 0 0 0 1 1
100 100 100 100 100 100 100 100 100 100 100 100 100 100 100 100 100 100 100 51 5 6 36 5 17 11 54 92 90 96 95 7 4 5 66 83 6 5 50 73 12 1 2
100 100 100 100 100 100 100 100 100 100 100 100 100 100 100 83 24 22 100 60 73 26 6 61 68 100 95 40 93 28 43 23 48 99 88 100 25 91 5 20 0 0 0
100 100 100 100 100 100 100 100 100 100 100 100 100 100 100 100 100 26 86 98 70 91 71 100 100 100 98 63 76 9 70 76 92 99 100 100 41 2 5 2 8 9 0
100 100 100 100 100 100 100 100 100 100 100 100 100 100 100 94 63 77 97 91 99 100 100 100 99 100 98 57 68 90 70 22 29 89 43 5 0 0 0 0 22 27 19
100 100 100 100 100 100 100 100 100 100 100 100 100 100 100 92 100 100 91 80 99 100 78 100 100 100 99 93 96 53 32 12 60 7 5 5 4 2 0 0 3 18 7
100 100 100 100 100 100 100 100 100 100 100 100 100 100 100 99 99 100 100 54 96 100 100 100 100 100 92 66 70 29 94 12 6 5 5 2 0 0 0 0 0 1 6
100 100 100 100 100 100 100 100 100 100 100 100 100 100 100 100 100 98 100 100 100 100 100 99 39 11 59 10 66 5 7 26 5 5 1 0 0 0 1 0 0 0 0
100 100 100 100 100 100 100 100 100 100 100 100 100 92 97 100 100 100 100 100 100 100 64 10 42 100 97 67 36 18 5 5 4 4 0 0 0 0 0 0 0 0 0
100 100 100 100 100 100 100 100 100 100 100 100 100 100 100 100 100 100 100 100 66 19 26 61 99 22 5 5 4 5 5 1 0 0 0 0 0 0 0 0 0 0 0
100 100 100 100 100 100 100 100 100 100 100 100 100 100 100 100 100 100 74 5 5 82 100 24 55 5 5 2 5 5 0 0 0 0 5 0 0 0 0 0 0 0 3
84 93 100 100 100 100 100 100 100 100 100 100 100 100 98 58 61 31 57 21 10 11 38 7 4 4 5 5 5 5 39 19 1 4 0 2 2 0 0 0 0 0 3
28 26 50 98 100 100 100 100 100 100 100 100 87 91 100 100 62 98 100 97 25 5 5 5 5 5 5 5 12 95 89 96 24 4 1 5 4 5 2 2 2 4 5
100 48 87 100 99 100 100 61 39 82 99 38 36 52 70 99 90 67 100 100 70 6 5 5 5 5 89 100 100 89 55 73 5 5 3 2 4 0 5 5 1 5 5
100 100 100 100 100 100 100 100 100 100 74 33 65 75 100 100 100 100 100 100 100 100 69 5 16 98 96 100 79 8 5 4 2 5 5 5 5 5 5 5 5 5 5
100 98 80 78 86 88 88 84 100 100 97 91 74 48 64 96 100 96 100 99 99 76 92 78 85 100 86 97 58 10 21 5 5 2 4 5 5 5 22 10 19 5 52

GFSSE_prec_cloud_045.txt.gz
Cloud_Cover
27 13 77 100 100 100 100 94 27 100 100 100 99 96 37 10 35 6 23 5 0 0 0 0 0 0 0 0 0 0 0 0 0 0 0 0 0 0 0 0 1 48 0
40 8 33 54 100 98 78 93 5 44 39 62 100 100 98 9 5 4 2 0 0 0 0 0 0 0 0 0 0 0 0 0 0 0 0 0 0 0 0 0 0 1 6
94 100 90 100 99 16 5 6 6 5 5 15 7 73 51 5 5 5 5 4 0 0 0 0 0 0 0 0 0 0 0 0 0 0 0 0 0 0 0 0 0 0 0
97 22 77 100 92 26 45 73 50 5 5 5 5 5 5 24 5 5 5 5 5 1 1 0 0 0 0 0 0 0 0 0 0 0 0 0 0 13 14 0 0 0 1
100 100 100 100 100 99 100 54 5 5 5 5 5 5 5 11 5 5 5 5 5 5 5 5 4 5 4 2 0 0 0 0 0 0 0 0 0 0 0 0 0 2 84
100 100 100 100 100 100 8 5 13 98 93 99 10 5 5 5 5 2 5 5 35 5 5 5 5 6 4 5 0 0 0 0 0 0 0 0 0 0 0 0 4 0 0
100 100 100 100 100 62 74 42 41 100 100 84 88 6 12 38 79 5 18 8 6 5 35 5 96 14 80 51 0 0 0 0 0 0 0 0 0 0 4 1 0 5 2
100 100 100 100 100 85 20 38 97 99 98 100 100 43 96 100 95 100 90 97 88 34 7 5 5 5 21 14 0 0 1 2 0 5 5 0 0 0 0 0 0 4 0
100 100 100 100 100 100 100 96 100 99 99 100 100 66 100 100 100 100 100 100 100 82 5 5 79 33 4 3 0 3 0 1 2 4 7 0 0 2 2 1 0 2 1
100 100 100 100 100 100 100 100 100 100 100 100 100 100 100 100 100 100 100 86 10 5 14 59 63 5 0 0 0 4 0 0 5 5 5 4 0 0 1 2 0 0 0
100 100 100 100 100 100 100 100 100 100 100 100 100 100 100 100 100 100 100 79 70 68 91 22 6 0 1 2 4 5 5 50 6 6 32 35 71 10 9 5 67 54 99
100 100 100 100 100 100 100 100 100 100 100 100 100 100 100 100 100 100 100 100 100 81 44 12 5 24 5 5 5 69 87 53 84 82 97 84 48 16 5 13 14 39 5
100 100 100 100 100 100 100 100 100 100 100 100 100 100 100 100 100 100 100 98 58 83 46 11 15 55 34 17 8 81 98 99 100 12 1 4 4 7 10 14 12 6 0
100 100 100 100 100 100 100 100 100 100 100 100 100 100 100 100 100 100 100 100 100 100 68 85 94 36 8 8 45 8 38 100 87 100 63 22 50 47 4 11 28 14 0
100 100 100 100 100 100 100 100 100 100 100 100 100 100 100 100 100 100 100 100 100 91 64 99 94 76 94 98 100 100 99 78 4 34 76 63 2 1 0 0 25 34 21
95 100 100 100 100 100 100 100 100 100 100 100 100 100 100 100 100 100 100 98 100 75 98 81 56 97 97 97 100 99 18 94 50 5 0 3 0 0 0 0 12 5 28
100 100 100 100 100 100 100 100 100 100 100 100 100 100 100 100 100 100 100 100 100 100 100 100 10 60 21 89 26 75 49 5 1 2 4 0 0 0 0 0 0 1 31
100 100 100 100 100 100 100 100 100 100 100 100 100 100 100 100 100 100 100 100 100 99 93 96 15 32 86 97 84 42 5 5 5 3 0 0 0 0 0 0 0 0 0
98 100 100 100 100 100 100 100 100 100 100 100 100 100 100 100 100 100 100 100 100 95 84 65 95 50 6 61 3 7 15 7 3 1 0 0 0 0 0 0 0 0 0
96 100 100 100 100 100 100 100 100 100 100 100 100 100 100 100 100 100 100 100 100 84 95 70 62 87 85 6 26 7 2 2 2 5 0 0 0 0 0 0 0 0 0
100 100 100 100 100 100 100 100 100 100 100 100 100 100 100 100 100 100 89 53 83 15 45 4 5 5 11 56 8 3 1 5 4 4 0 0 0 0 0 0 0 0 1
100 100 100 100 100 100 100 100 100 100 100 100 100 100 100 100 99 89 86 30 6 37 28 5 61 62 27 2 5 5 17 100 59 4 0 1 3 3 1 5 2 0 2
17 100 96 81 100 100 100 100 100 100 100 100 100 100 100 99 73 32 53 39 30 21 38 69 96 95 5 4 5 24 40 84 34 5 2 0 0 0 4 3 5 5 5
18 92 12 26 97 100 100 100 100 100 100 100 100 100 100 100 100 89 73 67 8 59 100 100 100 8 6 20 71 54 58 5 5 6 5 5 4 5 4 4 5 5 12
23 3 5 5 33 100 100 100 100 100 100 100 98 98 97 100 100 78 82 93 92 100 99 96 78 56 100 90 100 89 7 5 5 6 5 5 5 30 82 94 81 7 8
100 97 53 52 44 76 78 96 100 100 92 94 98 100 97 100 99 64 88 100 67 86 100 54 79 100 100 100 100 100 76 68 61 99 84 53 70 41 5 44 10 55 21

GFSSE_prec_cloud_048.txt.gz
Cloud_Cover
59 81 45 41 8 20 18 12 16 32 65 45 61 90 100 66 100 67 63 51 7 5 0 0 0 0 0 0 0 0 0 0 0 0 0 0 0 0 0 0 0 3 0
100 100 100 100 100 99 99 35 85 82 40 38 18 24 98 69 100 96 95 58 5 5 1 0 0 0 0 0 0 0 0 0 0 0 0 0 0 0 0 0 0 16 16
100 100 100 100 100 100 100 89 87 57 5 16 7 5 5 10 9 16 8 4 0 0 0 0 0 0 0 0 0 0 0 0 0 0 0 0 45 20 0 0 0 0 1
100 100 100 100 100 93 97 74 35 5 5 5 2 0 5 1 5 2 4 1 0 2 5 5 4 3 0 0 0 0 0 0 0 0 0 0 0 16 0 0 2 0 0
100 100 100 100 100 100 100 100 81 94 5 46 5 3 5 5 5 0 0 0 4 5 5 5 3 4 3 2 0 0 0 0 0 0 0 0 0 0 0 0 0 0 0
100 100 100 100 100 100 100 100 8 28 80 75 9 5 5 5 5 5 2 0 4 5 5 5 5 5 5 5 0 0 0 0 0 0 0 0 0 0 0 0 0 0 0
100 100 100 100 100 100 100 95 95 97 80 98 37 5 5 5 5 5 5 5 5 5 5 5 5 5 5 0 5 5 0 0 0 0 0 0 0 0 0 0 0 0 0
100 100 100 100 100 100 100 100 100 100 100 91 23 5 5 5 46 65 5 5 31 63 11 6 5 5 5 5 5 0 0 0 16 0 0 0 0 0 0 0 1 0 0
100 100 100 100 100 100 100 100 100 100 100 100 100 99 5 37 95 100 75 100 100 63 42 37 5 5 5 5 5 0 0 0 28 0 0 0 0 2 0 0 5 2 0
100 100 100 92 100 100 100 100 100 100 79 100 100 100 100 76 98 100 100 100 100 94 6 5 5 5 5 5 0 0 0 0 27 0 5 5 5 5 8 8 45 92 9
100 100 100 100 100 100 100 100 100 100 100 100 100 100 100 100 100 100 100 100 100 90 25 13 29 36 4 2 0 0 0 3 7 5 5 5 4 4 10 2 59 55 8
100 100 100 100 100 100 100 100 100 100 100 100 100 100 100 100 100 100 100 100 100 100 96 97 100 100 5 2 5 5 4 5 95 33 47 86 95 100 91 41 0 0 1
100 100 100 100 100 100 100 100 100 100 100 100 100 100 100 100 100 100 100 100 100 100 71 55 26 91 5 21 22 48 6 6 83 99 97 100 100 57 15 4 5 5 4
100 100 100 100 100 100 100 100 100 100 100 100 100 100 100 100 100 100 100 100 100 100 100 80 52 78 5 5 59 100 98 100 98 68 64 36 5 2 5 15 17 3 4
100 100 100 100 100 100 100 100 100 100 100 100 100 100 100 100 100 100 100 100 100 100 72 97 84 100 19 90 72 90 9 62 5 58 18 5 49 5 1 2 18 11 21
100 100 100 100 100 100 100 100 100 100 100 100 100 100 100 100 100 100 100 100 100 100 100 100 100 100 100 100 96 66 7 10 5 13 7 5 0 0 0 0 5 24 23
100 100 100 100 100 100 100 100 100 100 100 100 100 100 100 100 100 100 100 100 100 100 100 45 99 100 99 73 100 76 6 7 33 5 8 29 5 2 0 0 0 2 33
100 100 100 100 100 100 100 100 100 100 100 100 100 100 100 100 100 100 98 100 100 100 100 100 100 100 100 96 84 5 7 4 5 1 5 4 2 0 0 0 0 0 0
94 100 100 100 100 100 100 100 100 100 96 100 100 100 100 100 100 100 100 100 100 100 100 100 100 100 77 85 38 57 5 5 3 5 5 4 1 0 0 0 0 0 0
99 68 100 100 100 100 100 100 100 100 100 100 100 100 100 100 100 100 100 100 100 100 100 100 100 100 69 6 9 1 0 3 5 5 2 0 0 0 0 0 0 0 0
100 100 100 100 100 100 100 100 100 100 100 100 100 100 100 100 100 100 100 100 100 100 100 100 100 17 5 5 5 3 1 0 5 5 5 0 5 0 0 0 0 0 0
100 100 100 100 100 100 100 100 100 100 100 100 100 100 100 100 100 100 100 100 100 57 82 24 6 5 6 5 15 24 5 7 10 5 5 5 5 1 0 4 0 0 0
100 100 100 100 100 100 100 100 100 100 100 100 100 100 100 100 100 79 67 100 100 91 73 34 6 38 78 59 89 34 36 22 5 5 5 5 5 5 5 5 0 0 0
99 85 100 100 100 100 100 100 100 100 100 100 100 100 100 100 100 100 99 95 98 91 100 100 83 68 85 34 68 86 95 100 62 25 19 7 5 5 5 5 2 5 6
33 1 48 100 100 90 93 100 100 100 41 92 100 100 100 81 57 100 100 100 98 100 97 99 100 100 100 73 88 100 100 100 100 95 98 89 7 5 20 67 13 5 5
87 92 5 5 15 62 40 79 86 100 100 100 100 100 100 93 100 100 100 100 92 100 100 100 100 100 100 100 100 100 100 53 100 100 100 69 62 100 100 100 10 5 5

GFSSE_prec_cloud_051.txt.gz
Cloud_Cover
100 100 100 83 99 100 100 100 5 5 2 5 5 86 70 24 13 28 84 97 95 38 28 23 2 0 0 0 0 0 0 0 0 0 0 0 0 0 10 21 0 3 1
100 100 100 100 100 100 100 32 5 71 86 85 8 5 5 34 24 25 49 93 96 67 7 5 2 0 0 0 0 0 0 0 0 0 0 0 0 0 0 0 0 1 11
100 100 100 100 92 100 100 100 47 10 2 16 63 100 68 6 5 0 5 5 5 4 4 0 0 0 0 0 0 0 0 0 0 0 0 0 0 0 3 3 0 12 16
100 100 100 100 100 100 100 100 100 100 88 91 92 100 100 8 1 0 0 0 0 0 0 3 0 0 3 5 1 0 0 0 0 0 0 0 0 0 0 0 0 0 1
100 100 100 100 100 100 100 100 100 100 100 100 100 100 94 4 0 5 0 0 0 0 4 5 2 3 0 0 0 4 0 0 0 0 0 0 0 0 0 0 0 10 98
100 100 100 100 100 100 100 100 100 100 100 100 100 99 21 5 5 5 3 0 0 0 5 5 5 1 0 5 2 0 0 0 0 0 0 0 0 0 0 0 0 47 100
100 100 100 100 100 100 100 100 100 91 100 100 100 100 100 12 5 5 5 5 1 0 5 13 5 5 5 5 3 5 0 5 0 0 0 0 0 0 0 0 0 0 0
100 100 100 100 100 100 100 100 100 81 100 100 100 86 95 5 5 5 5 5 5 5 5 5 5 5 5 3 5 5 3 2 0 0 0 0 0 0 0 0 0 0 0
100 100 100 100 100 100 100 100 100 100 100 100 91 98 100 67 40 32 63 5 88 91 100 46 22 5 3 5 5 2 62 0 0 0 0 0 0 0 0 0 0 0 0
100 100 100 100 100 100 100 100 100 100 100 9 62 83 100 100 100 98 100 100 100 100 100 100 100 5 5 5 5 3 2 0 0 0 0 3 0 0 0 0 5 5 11
100 100 100 100 100 100 100 100 100 100 100 100 100 100 100 100 100 100 100 100 100 100 98 41 27 53 5 41 34 47 2 2 5 0 0 0 0 4 5 28 93 49 56
100 100 100 100 100 100 100 100 100 100 100 100 100 100 100 100 100 100 100 100 100 100 99 95 18 28 80 99 100 40 32 5 0 0 0 1 5 9 27 1 2 2 8
100 100 100 100 100 100 100 100 100 100 100 100 100 100 100 100 100 100 100 100 100 100 100 83 69 96 100 100 25 70 49 5 3 4 67 17 50 5 24 26 14 5 4
100 100 100 100 100 100 100 100 100 100 100 100 99 100 99 100 98 100 100 100 100 100 37 89 100 100 100 100 100 93 89 44 77 100 100 94 18 3 7 18 21 16 1
100 100 100 100 100 100 100 100 100 100 100 100 99 95 100 100 100 100 100 100 100 100 99 77 100 100 100 100 100 61 18 99 100 99 5 15 65 7 5 5 12 19 20
100 100 100 100 100 100 100 100 100 100 100 100 100 96 100 100 100 100 100 100 100 99 100 98 100 100 100 100 100 100 100 100 100 99 25 22 5 5 0 1 2 22 29
100 100 100 100 100 100 100 100 100 100 100 100 100 100 99 100 100 100 100 100 100 100 100 100 100 100 100 100 100 42 100 95 100 74 6 5 3 1 0 0 0 14 35
100 100 100 100 100 100 100 100 100 100 93 76 100 98 100 100 100 100 100 100 100 100 100 100 100 100 100 87 90 100 72 90 11 84 8 5 5 4 5 0 0 0 0
100 100 100 100 100 100 100 100 100 100 100 100 93 100 100 100 100 100 100 100 100 100 100 100 100 100 100 100 55 100 100 100 22 5 4 4 4 5 5 3 3 0 0
100 100 100 100 100 100 100 100 100 100 100 100 100 100 100 100 100 100 100 100 100 100 100 100 100 100 100 100 100 100 91 52 5 5 5 5 0 0 3 1 0 0 4
29 100 100 100 100 100 100 100 100 100 100 100 100 100 100 100 100 100 100 100 100 100 100 100 100 100 100 100 100 88 82 15 47 69 94 5 29 98 5 5 5 5 5
100 55 79 58 100 100 100 100 100 100 100 100 100 100 100 100 100 100 100 100 100 100 97 100 100 100 72 87 45 63 30 99 75 5 5 7 96 100 99 38 62 26 5
100 88 46 99 100 100 100 100 100 100 100 100 100 100 100 100 100 100 100 100 100 100 100 100 81 94 68 76 92 45 48 52 5 5 15 95 80 86 95 65 5 5 6
100 100 98 97 51 98 97 100 100 100 100 100 100 96 100 100 100 100 100 100 100 100 100 100 100 100 100 100 100 100 59 19 74 95 100 100 100 100 76 5 5 5 0
69 76 100 100 100 100 100 100 100 100 100 100 100 100 100 100 100 100 100 100 100 100 100 100 100 81 96 100 100 100 100 100 100 100 100 100 100 100 21 5 5 5 5
96 33 9 7 97 100 100 100 100 100 100 100 100 100 100 100 99 84 100 100 100 100 100 99 97 100 100 100 100 100 100 100 100 100 100 85 71 97 46 5 11 14 53

GFSSE_prec_cloud_054.txt.gz
Cloud_Cover
100 76 69 99 100 100 51 5 40 94 13 43 100 8 4 8 27 11 5 5 3 96 91 58 38 22 5 1 0 0 0 0 0 0 0 0 50 100 88 4 0 0 8
89 16 43 100 100 98 77 78 100 100 99 100 95 0 1 5 22 100 37 5 12 3 5 4 5 5 5 4 0 0 0 0 0 0 0 0 0 2 45 6 0 94 100
26 5 100 100 100 100 100 100 100 100 100 100 97 5 28 34 84 15 72 43 99 23 3 0 0 0 2 0 0 0 2 0 0 0 0 0 0 0 0 0 0 12 100
5 86 100 100 100 100 100 100 100 100 100 100 100 100 66 80 47 14 57 97 48 4 0 0 0 0 3 0 1 0 2 0 0 0 0 0 0 0 0 0 17 24 100
74 100 100 100 100 100 100 100 100 100 100 100 100 100 100 100 98 99 59 45 8 5 0 0 0 0 2 0 5 4 0 0 0 0 0 0 0 0 0 0 100 100 100
92 15 100 100 100 100 100 100 100 100 100 100 100 100 100 100 100 100 100 23 5 5 0 0 0 5 5 5 5 5 0 0 0 0 0 0 0 0 0 0 2 70 100
46 100 100 100 100 100 100 100 100 100 100 99 99 89 100 100 94 99 100 100 60 3 0 2 6 34 90 12 6 28 5 2 0 0 0 0 0 0 0 0 0 0 0
100 100 100 100 100 100 100 100 100 100 100 64 98 100 97 100 100 100 100 100 100 5 2 5 27 5 98 100 5 5 5 4 3 2 0 0 0 0 0 0 0 0 1
100 100 100 100 100 100 100 100 100 100 100 100 100 96 97 86 97 100 90 20 10 6 7 15 5 5 95 100 2 5 5 0 0 0 0 0 0 0 0 0 0 0 1
100 100 100 100 100 100 100 100 100 100 100 100 100 100 87 68 77 100 100 100 90 35 82 100 100 40 90 100 38 0 3 16 5 6 2 0 0 0 0 0 0 0 0
100 100 100 100 100 100 100 100 100 100 100 100 100 100 100 85 74 96 100 100 100 100 100 89 87 90 69 100 100 10 5 93 100 8 1 5 0 2 0 0 1 10 2
100 100 100 100 100 100 100 100 100 100 100 100 100 100 100 100 100 100 100 100 100 100 100 100 95 73 43 100 94 79 65 92 100 88 20 5 40 5 5 11 53 72 38
100 100 100 100 100 100 100 100 100 100 100 100 100 100 100 100 100 77 100 100 100 100 96 100 88 94 38 100 100 99 100 100 100 100 91 100 97 99 72 70 38 7 30
100 100 100 100 100 100 100 100 100 100 100 100 100 100 100 100 100 85 84 98 100 100 100 100 98 95 5 90 100 100 100 100 22 52 100 100 100 100 100 52 100 48 10
100 100 100 100 100 100 100 100 100 100 97 100 100 100 100 100 100 100 100 99 96 100 93 100 79 95 28 20 100 100 100 72 100 100 100 100 100 99 34 5 40 14 21
100 100 100 100 100 100 100 100 100 100 100 100 100 100 100 100 100 100 99 94 100 100 100 100 96 79 100 100 100 100 100 81 100 100 100 58 31 25 60 100 5 6 28
100 100 100 100 100 100 100 100 100 100 100 100 100 100 100 100 100 100 78 95 100 100 94 100 100 100 69 100 95 88 100 100 100 100 100 100 85 100 64 5 5 4 8
100 100 100 100 100 100 100 100 100 100 100 100 100 100 100 100 100 82 100 96 100 100 100 100 100 100 99 98 61 100 82 100 97 100 73 100 97 100 98 5 5 47 7
100 100 100 100 100 100 100 100 100 100 100 100 100 100 100 99 39 100 100 100 100 100 100 100 100 100 100 100 100 100 100 20 100 100 100 100 100 50 5 6 20 5 5
100 100 100 100 100 100 100 100 100 100 100 100 100 100 100 54 95 100 100 100 100 100 96 100 100 100 100 100 100 100 100 100 100 100 100 100 94 50 79 22 5 5 5
100 100 98 94 100 100 100 100 100 100 100 100 83 100 97 100 100 100 100 100 100 100 100 100 100 100 100 100 100 100 100 100 100 62 6 85 100 86 97 59 29 19 95
100 84 92 100 100 100 100 100 100 100 100 100 100 100 100 100 100 100 100 100 100 100 100 100 100 100 100 100 100 100 100 100 100 77 100 94 16 42 73 100 100 100 100
100 100 90 100 100 100 100 100 100 100 100 100 100 100 100 100 100 100 100 100 87 95 97 100 65 94 70 100 100 100 100 100 100 100 85 83 89 100 100 100 100 100 100
100 100 100 95 100 100 100 100 100 100 100 100 100 100 100 100 100 100 100 100 100 100 100 100 99 100 94 100 100 100 100 100 100 100 100 96 100 100 100 100 100 54 55
100 100 100 100 100 100 100 100 100 100 100 100 100 100 100 100 100 100 100 100 100 100 100 100 100 100 96 95 92 100 100 100 98 100 97 100 100 100 100 100 100 100 60
100 95 86 92 96 100 100 100 100 100 100 100 100 100 100 100 95 100 100 100 100 99 99 100 100 100 99 83 100 100 99 100 100 100 100 97 100 100 100 98 91 100 51

GFSSE_prec_cloud_057.txt.gz
Cloud_Cover
100 100 100 100 38 17 21 100 99 100 98 96 48 8 99 38 12 5 5 7 7 64 50 52 83 5 0 5 0 0 0 0 0 0 74 99 100 100 40 4 0 98 81
100 64 5 51 20 52 70 97 97 25 100 88 100 89 74 96 18 4 5 79 97 75 100 96 96 5 5 4 0 0 0 0 75 17 0 10 100 100 57 2 85 75 54
100 76 3 19 58 13 100 100 96 100 100 100 100 100 100 100 100 100 13 7 100 39 2 47 100 100 77 0 0 0 0 0 0 0 0 0 0 3 24 2 96 75 86
59 0 52 44 68 99 100 100 100 100 100 100 100 100 100 100 100 100 91 2 2 8 96 100 100 46 4 0 0 0 0 2 0 0 0 0 0 5 35 45 100 93 100
58 68 5 38 99 100 100 100 100 100 100 100 100 100 100 100 100 100 100 100 100 100 99 100 96 5 1 4 1 5 1 5 0 0 0 0 0 5 88 100 100 100 58
82 97 66 5 100 100 100 100 100 100 100 100 100 100 100 100 100 100 78 97 100 87 40 100 44 4 4 2 2 4 5 5 5 4 5 0 0 0 0 1 34 5 44
19 57 9 100 100 100 100 100 100 100 100 100 100 100 100 100 100 100 95 100 68 25 100 85 44 1 5 5 5 5 5 5 5 12 5 0 0 0 0 0 0 0 0
94 94 67 100 100 100 100 100 100 100 100 100 100 98 100 100 97 94 98 100 93 92 55 6 6 5 5 5 56 5 5 5 59 5 1 4 0 0 0 0 5 0 0
100 93 78 100 100 100 100 100 100 100 100 100 100 100 100 100 80 98 97 52 5 5 32 34 5 64 6 5 77 100 94 28 5 5 5 5 0 0 0 0 0 0 0
100 100 100 100 100 100 100 100 100 100 100 100 100 100 100 99 100 100 95 76 10 5 8 42 52 98 27 94 77 58 90 46 7 10 46 37 12 4 1 5 2 1 4
100 100 100 100 100 100 100 100 100 100 100 100 100 100 100 100 81 15 76 85 98 100 91 100 100 100 5 20 93 99 87 73 62 33 89 100 37 53 71 13 5 15 55
100 100 100 100 100 100 100 100 100 100 100 100 99 100 100 100 100 100 71 96 100 100 87 81 100 100 97 28 10 96 94 80 54 94 99 100 100 93 100 44 96 100 99
100 100 100 100 100 100 100 100 100 100 100 100 100 100 100 100 100 100 68 100 65 99 89 98 100 100 88 91 95 91 48 94 33 15 100 68 100 58 63 100 100 100 100
100 100 100 100 100 100 100 100 100 100 100 100 100 100 100 100 100 100 100 100 100 99 94 96 96 100 100 100 86 27 60 16 5 5 89 20 20 100 100 100 100 92 7
100 100 100 100 100 100 100 100 100 100 100 100 100 100 100 98 100 100 100 73 96 90 96 100 100 100 100 88 88 52 68 65 5 5 46 100 100 100 100 100 100 63 100
100 100 100 100 100 100 100 100 100 100 100 100 100 99 100 100 100 100 100 100 100 100 100 100 100 100 100 100 76 79 38 51 74 98 100 100 100 100 100 100 100 100 92
100 100 100 100 100 100 100 100 100 100 100 100 100 100 100 96 100 100 100 100 100 100 100 100 92 100 100 99 100 100 94 84 82 100 100 100 100 100 100 100 100 54 60
100 100 100 100 100 100 100 100 100 100 100 100 100 100 100 100 100 100 100 100 100 100 100 100 100 100 100 100 100 100 100 87 100 100 100 100 100 100 100 100 100 100 51
100 100 100 100 100 100 100 100 100 100 100 100 100 100 100 100 100 100 100 100 100 99 100 100 100 97 100 100 99 100 100 100 100 100 100 100 100 100 65 43 100 100 93
100 100 100 100 100 100 100 100 100 100 100 100 100 100 100 100 100 100 100 100 100 100 100 100 100 100 100 100 100 100 100 100 100 100 100 100 100 100 98 100 100 100 44
100 99 31 100 100 100 100 100 100 100 100 100 100 100 100 100 100 100 100 100 100 100 100 100 100 100 100 100 100 100 100 100 100 100 100 79 100 100 100 100 21 11 5
100 100 100 90 100 100 100 100 100 100 100 100 100 100 100 100 100 100 100 100 100 100 100 100 100 100 100 100 100 100 100 100 100 100 98 100 100 100 72 88 81 92 100
100 100 100 92 100 100 100 100 100 100 100 100 100 100 100 98 100 100 100 97 100 100 100 100 100 100 100 100 100 100 100 100 100 100 100 98 100 100 94 85 75 100 100
100 100 100 100 59 100 100 100 100 100 100 100 100 100 100 100 100 100 100 100 100 100 100 100 100 100 100 100 100 100 100 100 100 100 100 94 100 92 99 100 100 100 100
81 61 82 100 99 100 100 100 100 100 100 100 100 100 100 100 100 100 100 100 100 100 100 100 100 100 100 100 100 100 100 100 100 100 100 100 100 100 100 96 100 100 100
87 31 30 53 97 100 100 95 100 100 100 100 100 100 100 100 100 100 100 100 100 100 100 100 100 100 100 100 100 100 94 84 100 100 100 100 100 100 100 100 100 100 100

GFSSE_prec_cloud_060.txt.gz
Cloud_Cover
63 33 14 94 100 100 82 55 4 100 100 100 96 82 50 36 5 4 48 56 5 1 5 27 56 95 84 76 82 87 26 3 0 0 1 18 95 100 7 0 0 8 46
46 86 87 95 64 95 89 5 5 80 100 100 98 100 88 77 88 5 69 80 100 73 96 96 18 97 100 100 62 100 73 1 0 48 91 94 52 100 62 0 0 0 0
66 40 20 95 88 98 100 21 9 36 100 100 39 100 100 99 26 36 100 100 100 100 61 6 12 5 14 7 81 98 2 0 0 0 0 2 24 33 3 67 58 74 78
97 90 25 100 56 96 38 4 5 5 100 100 100 100 100 100 100 100 100 100 100 100 100 34 8 10 70 100 76 0 0 0 0 0 0 0 40 67 48 62 100 100 92
99 98 80 36 94 47 3 5 6 77 100 100 99 100 100 100 100 100 100 100 100 90 47 47 80 100 100 33 0 0 0 4 2 0 0 2 93 100 100 56 7 100 100
100 100 100 100 100 54 76 79 75 96 100 100 100 100 100 100 100 100 100 100 41 68 21 100 100 74 4 2 0 5 3 5 5 2 5 5 5 5 5 3 1 11 17
91 96 43 31 30 6 44 100 100 98 100 100 100 100 100 100 100 100 100 100 100 98 99 92 6 9 5 3 5 5 28 16 5 5 9 5 5 3 0 0 0 0 0
68 5 23 40 60 4 100 100 100 100 100 100 100 100 100 100 100 100 100 100 100 100 46 32 13 7 80 55 6 42 5 5 15 5 15 5 4 4 1 4 5 4 0
88 61 99 3 24 58 100 100 100 100 100 100 100 100 100 100 100 82 100 99 100 92 73 6 12 6 52 18 5 5 6 11 67 96 42 12 68 5 5 5 5 4 4
100 49 98 100 100 100 100 100 100 100 100 100 100 100 100 100 100 100 86 100 78 10 12 5 5 8 5 14 5 10 83 97 28 76 90 8 50 61 17 41 33 40 5
100 100 100 100 100 100 100 100 100 100 100 100 100 100 100 100 100 8 37 100 100 73 92 92 96 99 100 100 43 100 100 71 100 75 99 69 39 89 34 73 35 5 7
100 100 100 100 100 100 100 100 100 100 100 100 100 100 100 100 93 100 62 54 62 94 82 73 63 100 100 100 15 99 83 57 89 17 61 67 29 67 22 5 47 98 95
100 100 100 100 100 100 100 100 100 100 100 100 100 100 100 100 100 100 96 75 100 96 100 100 90 73 100 100 100 81 99 99 95 78 37 40 100 99 12 6 79 92 64
100 100 100 100 100 100 100 100 100 100 100 100 100 100 100 100 100 100 100 63 69 68 100 91 56 84 99 97 100 100 100 100 82 100 100 100 100 99 88 96 100 92 58
100 100 100 100 100 100 100 100 100 100 100 100 100 100 100 100 100 100 100 99 84 95 99 99 63 80 94 100 100 100 100 100 100 100 100 100 100 100 100 100 100 100 100
100 100 100 100 100 100 100 100 100 100 100 100 100 100 100 100 100 100 96 100 99 88 87 96 88 73 91 97 100 100 100 100 100 100 100 59 90 100 93 87 100 100 100
100 100 100 100 100 100 100 100 100 100 100 100 100 100 100 100 99 100 100 100 100 100 100 100 100 100 100 100 100 100 100 100 100 100 100 100 100 100 100 100 100 100 100
100 100 100 100 100 100 100 100 100 100 100 100 100 100 100 100 100 100 100 100 100 100 100 100 100 100 100 100 100 100 100 100 100 100 100 100 100 100 100 100 100 100 100
100 100 100 100 100 100 100 100 100 100 100 100 100 100 100 100 100 100 100 100 100 100 100 100 100 100 100 100 87 100 100 100 100 100 100 100 100 100 100 100 100 100 100
100 100 100 100 100 100 100 100 100 100 100 100 100 100 100 100 100 100 100 100 100 100 100 100 100 100 100 100 100 100 100 100 100 100 100 100 100 100 100 100 100 100 100
100 100 100 100 100 100 100 100 100 100 90 100 100 100 100 100 100 100 100 100 100 100 100 100 100 100 100 100 100 100 100 100 100 100 100 100 100 100 100 100 100 100 60
100 100 100 100 100 100 100 100 100 100 100 100 100 100 100 100 100 100 100 100 100 100 100 100 100 100 100 100 100 100 100 100 100 100 100 100 100 100 100 100 81 50 47
91 100 100 100 100 100 100 100 100 100 100 100 100 100 100 100 100 100 100 100 100 100 100 100 100 100 100 100 100 100 100 100 100 100 100 100 100 100 100 99 100 96 99
42 82 100 98 100 100 100 100 100 100 100 100 100 100 100 100 100 100 100 100 100 100 100 100 100 100 100 100 100 100 100 100 88 100 100 99 100 100 100 100 100 100 100
100 70 100 99 98 100 100 98 100 100 100 100 100 100 100 100 100 100 100 100 100 100 100 100 100 100 100 100 100 100 100 92 100 100 99 100 100 100 100 100 100 100 100
100 100 100 98 98 99 68 55 98 99 100 100 100 100 100 100 100 100 100 100 100 100 100 100 100 95 99 100 82 76 91 100 99 100 100 80 100 100 100 100 100 100 100

GFSSE_prec_cloud_063.txt.gz
Cloud_Cover
22 41 0 2 11 91 76 97 100 58 30 91 100 98 28 84 100 90 98 99 17 5 78 93 45 62 78 49 34 14 5 41 7 0 0 100 100 89 7 0 60 69 2
30 1 0 16 25 95 100 100 91 69 8 100 100 100 96 98 100 100 100 100 100 100 75 100 77 92 47 34 17 40 76 7 1 5 11 92 99 64 18 0 29 28 22
78 36 5 61 44 41 100 97 42 92 6 100 99 100 100 100 26 93 100 100 100 100 100 95 12 5 100 15 15 4 0 5 93 16 64 53 72 38 24 0 0 8 62
35 30 87 50 5 5 99 84 95 51 27 3 98 100 92 100 97 100 100 100 100 99 61 7 51 92 28 3 1 57 72 93 5 0 0 0 1 5 1 0 6 47 68
31 29 67 3 50 0 80 83 45 27 57 5 86 100 100 100 93 100 100 100 100 14 78 73 19 6 51 85 98 79 16 4 2 1 0 18 72 5 55 100 100 86 40
100 82 50 98 69 84 100 37 100 100 94 6 88 100 100 98 100 100 100 100 76 99 99 77 7 93 34 5 1 4 1 5 1 22 72 6 2 5 4 84 49 99 51
81 66 35 89 100 100 54 42 100 100 7 64 84 100 98 100 100 100 100 100 100 100 100 66 80 21 28 8 3 2 2 1 4 17 5 1 3 2 5 34 7 5 5
100 52 53 6 64 97 100 100 56 74 90 100 100 100 100 100 100 100 100 100 100 100 98 61 100 28 18 20 2 0 5 5 5 62 6 5 70 5 5 5 36 8 5
100 97 100 14 33 100 100 26 70 95 100 100 100 100 100 100 100 100 100 100 100 100 100 100 99 58 18 4 4 5 5 5 9 55 5 5 78 66 63 14 6 55 68
100 100 36 100 98 94 64 100 98 100 100 100 100 100 100 100 100 100 100 100 100 100 100 98 71 44 79 10 7 71 7 38 87 51 99 72 90 45 43 42 6 54 28
100 99 98 100 100 100 100 100 100 100 100 100 100 100 100 100 100 100 100 100 85 35 42 100 83 99 91 100 100 95 91 18 99 94 84 72 77 78 6 72 38 5 5
100 100 100 100 97 100 100 100 100 100 100 100 100 100 100 100 100 100 100 62 60 52 9 50 72 97 100 100 82 100 100 100 100 100 100 90 55 87 50 26 8 5 5
100 100 100 100 100 100 100 100 100 100 100 100 100 100 100 100 100 100 95 93 77 71 98 92 56 60 100 98 100 98 100 100 100 83 100 99 85 100 95 90 100 88 90
100 100 100 100 100 100 100 100 100 100 100 100 100 100 100 100 100 100 94 76 90 30 83 34 91 90 100 85 90 75 100 99 100 95 97 78 9 73 97 100 100 100 100
100 100 100 100 100 100 100 100 100 100 100 100 100 100 100 100 100 100 100 100 60 99 100 78 82 84 87 99 89 100 99 100 100 100 100 93 54 58 97 100 100 100 100
100 100 100 100 100 100 100 100 100 100 100 100 100 100 100 100 100 100 100 99 76 90 62 100 95 67 91 96 96 100 99 100 100 100 100 94 100 100 100 100 100 100 100
100 100 100 100 100 100 100 100 100 100 100 100 100 100 100 100 100 100 100 97 92 100 100 93 90 100 100 100 100 100 100 100 100 100 100 100 100 100 100 100 100 100 82
100 100 100 100 100 100 100 100 100 100 100 100 100 100 100 100 100 100 100 89 100 99 100 100 100 100 100 100 100 100 100 100 100 100 100 100 100 100 100 100 100 100 100
100 100 100 100 100 100 100 100 100 100 100 100 100 100 100 100 100 100 100 100 100 100 100 100 100 100 100 100 100 100 100 100 100 100 100 100 100 100 100 100 100 100 100
100 100 100 100 100 100 100 100 100 100 100 100 100 100 100 100 100 100 100 100 100 95 100 100 100 100 100 100 100 100 100 100 100 100 100 100 100 100 100 100 100 100 100
100 100 100 100 100 100 100 100 100 100 100 100 100 100 100 100 100 100 100 100 100 100 100 100 100 100 100 100 100 100 100 100 100 100 100 100 100 100 100 100 100 100 100
100 100 100 100 100 100 100 100 100 100 86 100 100 100 100 100 100 100 100 100 100 100 100 100 100 100 100 100 100 100 100 100 100 100 100 100 100 100 100 100 100 95 99
100 100 100 100 100 100 100 100 100 100 100 100 100 100 100 100 100 100 100 100 100 100 100 100 100 100 100 100 100 100 100 100 100 97 100 100 100 99 81 100 100 100 100
81 100 100 100 100 100 98 88 100 100 100 100 100 100 100 100 100 100 100 100 100 100 100 100 100 100 100 100 100 100 82 83 100 100 94 100 100 100 100 100 100 100 100
100 64 55 100 100 100 100 100 100 100 100 100 100 100 100 100 100 100 100 100 100 100 100 100 100 100 100 100 100 100 100 100 100 98 100 100 100 100 100 100 100 100 100
87 75 56 98 100 100 100 100 100 100 100 100 100 100 100 100 100 100 100 100 100 100 100 100 100 91 100 94 100 100 100 98 99 100 100 100 100 100 100 100 100 100 100

GFSSE_prec_cloud_069.txt.gz
Cloud_Cover
0 0 0 1 14 22 99 53 6 25 5 2 5 5 5 5 47 73 100 97 100 69 15 44 48 5 10 9 20 42 5 4 3 0 3 5 10 13 24 62 59 65 12
0 0 13 0 15 20 6 13 16 10 3 0 9 5 5 31 5 5 100 100 100 100 100 75 89 90 73 47 100 18 32 6 2 0 0 41 100 78 23 5 44 46 8
0 26 1 0 0 7 20 17 9 1 5 58 53 6 88 44 5 5 6 71 100 72 77 69 89 99 100 96 10 4 4 4 5 0 19 84 84 100 82 62 77 96 84
0 50 4 0 0 0 5 14 23 0 6 100 99 13 81 92 5 5 5 100 98 50 47 94 100 100 100 100 52 89 4 0 0 1 1 61 97 64 48 2 14 7 47
8 69 95 0 0 0 0 3 2 4 7 100 97 78 68 25 5 5 8 91 88 5 96 100 100 100 100 90 90 5 30 3 2 3 5 5 75 100 100 100 89 84 53
33 78 15 0 0 21 4 33 32 34 5 100 100 100 93 13 41 35 40 70 23 28 100 100 89 36 5 5 5 15 20 5 5 5 1 14 12 93 25 5 5 2 9
42 60 79 54 23 74 100 100 100 100 100 100 100 89 70 98 100 25 96 36 5 79 100 100 84 17 42 6 4 4 0 14 88 5 11 7 4 5 0 1 0 2 6
16 40 84 92 100 100 100 89 100 100 100 100 100 100 100 100 98 100 100 96 5 7 100 100 100 100 97 15 82 5 12 88 25 6 22 25 33 5 6 5 17 6 25
39 92 100 92 100 10 100 100 100 100 100 100 100 100 100 100 99 100 100 91 14 76 100 100 100 100 100 100 28 6 95 78 52 19 31 35 48 91 40 98 100 83 64
87 100 100 100 74 100 100 100 100 100 100 100 100 99 100 71 98 100 100 34 99 100 100 100 100 100 100 67 100 100 80 84 84 100 82 67 99 98 99 39 100 100 96
99 100 100 100 100 88 100 100 100 100 100 100 100 100 90 82 100 100 94 20 80 100 98 100 100 100 100 100 78 100 100 94 100 100 70 23 95 100 100 100 100 100 99
98 99 100 100 100 92 100 100 100 100 100 100 100 95 100 90 89 100 99 92 100 100 100 100 100 98 15 100 100 100 100 100 100 100 56 40 94 69 100 100 100 93 86
100 100 100 100 100 100 100 100 100 100 100 100 100 100 100 100 100 100 100 100 100 100 100 100 100 100 98 26 75 100 100 100 100 100 99 100 100 100 100 100 100 97 100
100 100 100 100 97 87 100 100 100 100 100 100 100 100 100 100 100 100 100 100 100 100 100 100 100 100 100 10 100 100 100 100 95 59 29 63 100 100 100 100 100 100 100
100 100 99 100 100 97 88 100 100 100 100 100 100 100 100 100 100 100 100 100 100 100 100 100 100 54 21 87 100 100 97 100 99 94 100 100 100 100 100 100 100 100 100
100 100 100 100 100 100 100 100 100 100 100 100 100 100 100 100 100 100 100 100 100 100 100 88 70 75 94 98 98 100 100 100 100 87 99 56 100 100 100 100 100 100 100
100 100 100 100 100 100 100 99 100 100 100 100 100 100 100 100 100 100 100 100 100 100 100 100 98 98 95 99 100 88 76 93 94 59 96 100 100 100 100 100 100 95 100
100 100 100 100 100 100 100 100 100 100 100 100 100 100 100 100 100 100 100 100 100 100 100 100 100 100 87 82 48 86 78 56 67 100 100 100 100 100 100 100 100 100 100
98 100 100 100 100 100 100 100 100 100 100 100 100 100 100 100 100 100 100 100 100 100 100 95 99 80 94 26 38 11 84 96 100 100 100 100 100 100 100 100 100 100 100
83 100 100 100 100 100 100 100 100 100 100 100 100 100 100 100 100 100 100 100 100 100 93 100 100 99 100 92 86 94 100 100 100 100 100 100 100 100 100 100 100 100 100
91 100 100 100 100 100 100 100 100 100 100 100 100 100 100 100 100 100 100 100 100 100 100 100 100 100 100 100 100 100 100 100 100 100 100 100 100 100 100 100 100 100 100
99 94 100 100 100 100 100 100 100 100 100 100 100 100 100 100 100 100 100 100 100 100 100 100 100 100 100 100 100 100 100 100 100 100 100 100 100 100 100 100 100 100 100
100 100 100 100 99 100 100 100 100 100 100 100 100 100 100 100 100 100 90 100 100 100 100 100 100 100 100 100 100 100 100 100 100 100 100 100 100 100 100 100 100 100 100
87 100 100 98 100 99 100 98 100 100 100 92 100 100 100 100 100 100 95 100 100 100 100 100 100 100 100 100 96 100 100 99 100 100 100 100 100 100 100 100 100 66 76
19 100 100 100 100 100 100 100 100 100 100 100 100 100 100 100 100 100 100 100 100 100 100 100 100 100 100 100 99 100 94 84 100 100 100 100 100 100 100 100 100 98 79
8 84 100 100 100 100 100 100 100 100 99 100 100 100 100 100 100 100 100 100 100 100 100 100 100 100 100 100 100 100 100 100 100 100 100 100 100 100 100 100 92 69 49

GFSSE_prec_cloud_072.txt.gz
Cloud_Cover
0 0 0 0 0 0 2 13 73 100 75 43 0 0 0 4 5 4 5 5 22 5 5 5 5 5 7 14 4 0 3 5 5 2 0 0 27 10 5 8 5 1 5
0 0 3 0 0 0 39 10 22 15 5 5 5 5 5 3 5 5 8 10 53 70 5 8 10 45 83 20 5 47 68 64 5 2 32 100 100 100 64 37 6 30 67
0 0 0 0 0 2 9 40 8 94 5 4 10 5 5 4 7 59 36 96 4 5 63 14 83 90 74 66 100 100 100 71 38 5 23 82 86 100 83 2 11 87 100
1 0 0 0 0 0 100 96 26 5 1 0 2 18 46 5 82 100 100 42 0 5 5 100 93 48 98 100 100 100 89 10 92 19 98 100 100 100 100 100 100 90 97
0 0 0 0 0 15 62 77 100 5 0 26 63 100 100 100 91 100 92 5 4 11 38 94 62 94 99 100 54 47 34 74 98 15 55 96 100 100 100 75 91 97 94
0 0 31 0 0 0 0 36 83 5 36 100 100 100 100 100 100 100 100 6 10 20 89 88 100 16 39 53 7 8 11 37 37 70 5 25 100 100 100 100 100 100 100
0 45 0 0 0 1 0 50 100 100 100 100 100 100 100 100 100 100 100 100 81 100 100 88 48 87 8 35 7 5 10 19 3 5 5 5 100 83 36 36 2 4 5
18 2 0 3 66 33 3 67 100 100 100 100 100 100 100 100 100 100 100 100 95 98 34 60 63 92 6 12 98 86 6 3 5 2 4 71 77 9 5 5 5 14 12
8 8 41 100 91 76 100 96 100 100 100 100 100 100 100 100 100 100 100 100 100 96 26 8 100 67 6 75 49 100 78 5 5 61 6 18 76 5 56 100 99 98 52
11 16 36 100 95 100 100 100 100 100 100 100 100 100 100 100 100 100 70 100 100 99 17 53 99 100 8 100 100 100 7 18 29 85 90 22 84 98 86 100 68 49 94
40 31 69 97 100 99 80 100 98 100 100 100 100 100 100 100 100 100 100 100 100 94 5 97 81 100 100 100 100 100 98 100 100 94 72 33 40 100 100 100 97 97 100
12 32 82 62 100 100 89 100 100 100 100 100 100 100 100 100 99 100 100 100 96 100 24 83 100 100 100 100 100 100 100 100 97 92 83 100 49 40 99 100 55 14 15
96 37 100 100 100 100 100 100 100 100 100 100 100 100 100 50 34 76 92 100 86 6 44 100 100 100 100 100 100 8 93 100 100 100 100 100 100 63 12 94 86 34 32
50 28 100 100 100 100 100 100 100 100 100 100 100 100 100 100 100 100 92 95 100 100 100 100 100 100 100 100 100 99 51 100 92 99 82 82 100 92 14 44 100 99 82
74 100 58 100 100 100 100 100 100 100 100 100 100 100 100 100 98 100 100 82 98 100 100 100 100 100 100 100 100 6 95 100 88 75 100 98 100 100 100 64 100 100 97
47 98 46 88 99 100 100 100 100 100 100 100 100 100 100 100 100 100 100 100 100 100 100 100 100 100 100 100 100 72 94 100 54 89 100 96 100 96 89 100 100 100 100
76 100 53 100 100 99 100 100 100 100 100 100 100 100 100 100 100 100 100 100 100 100 100 100 100 100 100 100 99 99 100 100 100 100 93 99 56 73 100 100 100 100 100
100 100 99 100 100 100 100 100 100 100 100 100 100 100 100 100 90 100 100 100 100 100 100 100 100 100 100 98 96 91 100 98 100 72 18 99 79 100 100 100 100 100 100
100 100 100 100 100 100 100 100 100 100 100 100 100 100 100 100 100 100 100 100 100 100 100 100 100 100 100 92 87 76 61 81 55 84 46 99 100 100 100 100 100 100 100
100 100 100 92 100 100 100 100 100 100 100 100 100 100 100 100 100 100 100 100 100 100 100 100 100 100 100 100 97 100 100 100 64 66 66 100 100 100 100 100 100 100 100
100 100 100 69 100 100 100 100 100 100 100 100 100 100 100 100 100 100 100 100 100 100 100 100 100 100 100 100 100 100 100 97 94 94 100 100 100 100 100 100 100 100 100
100 100 100 100 96 100 100 100 100 100 100 100 100 100 100 100 100 78 98 98 100 100 100 100 100 100 100 100 100 100 100 100 100 100 100 100 100 98 100 100 96 96 100
92 100 100 100 100 100 100 100 100 100 100 100 100 100 100 100 100 100 100 100 100 100 100 100 100 100 100 100 100 100 100 100 100 100 100 100 95 57 100 98 100 100 100
20 100 100 100 100 100 100 100 100 100 100 100 100 100 100 100 100 100 100 100 100 100 100 100 100 100 100 100 100 100 100 100 100 100 99 100 15 59 96 100 100 100 100
0 100 100 100 98 100 100 100 100 98 100 100 100 100 100 100 100 100 100 100 100 100 100 100 100 100 100 100 100 100 82 100 100 100 100 99 100 100 100 100 100 100 100
0 98 100 100 100 100 100 100 100 100 86 100 96 99 100 100 100 100 100 97 100 100 100 100 100 100 100 100 100 100 100 100 100 100 100 99 100 100 100 100 100 100 100

GFSSE_prec_cloud_075.txt.gz
Cloud_Cover
1 53 0 0 0 0 0 0 0 0 44 15 96 89 39 3 0 0 0 0 5 2 4 0 1 6 9 4 1 2 2 5 4 0 2 21 54 55 44 12 5 5 3
0 9 0 0 0 0 0 0 0 0 82 5 6 60 5 1 1 4 5 3 5 5 67 5 5 100 5 5 3 5 5 5 9 49 23 98 100 98 84 6 4 28 45
0 0 10 0 0 0 0 0 0 36 96 28 93 5 5 5 5 5 5 6 6 100 100 90 99 98 5 5 6 83 18 19 79 55 100 100 99 100 76 36 100 100 100
0 0 9 0 0 0 0 50 10 1 18 74 5 15 5 5 5 5 34 97 100 100 98 100 91 10 5 70 7 5 50 100 100 100 54 100 100 100 99 100 100 100 100
0 0 0 0 3 0 0 0 58 65 7 25 33 2 12 5 5 5 47 100 100 99 99 70 48 5 5 41 91 100 100 97 84 78 100 100 100 100 100 100 97 74 83
0 0 0 0 5 11 0 0 42 12 46 98 84 99 50 99 100 5 78 100 100 100 71 40 3 5 47 12 100 100 100 9 83 78 98 100 100 98 75 98 100 83 79
0 0 0 0 0 0 0 25 98 100 99 100 100 88 100 100 100 81 90 100 98 99 64 76 56 6 90 86 14 16 93 6 4 12 24 100 90 58 89 100 100 72 15
0 0 0 0 0 0 0 51 87 100 100 99 100 100 100 100 100 100 100 100 100 100 100 100 100 98 90 41 21 44 7 82 5 8 7 92 57 4 1 16 6 72 23
0 0 19 7 5 24 80 16 100 100 100 100 100 100 100 100 100 100 100 100 100 100 100 100 100 100 25 91 63 95 86 97 70 90 0 43 48 5 5 8 8 43 21
0 0 83 99 36 50 100 97 100 100 100 100 100 100 100 100 100 100 100 100 100 100 100 100 100 90 100 7 88 100 82 92 100 16 5 15 15 45 42 98 100 97 34
4 4 0 54 100 62 100 100 99 100 100 100 100 100 100 100 100 100 97 100 100 100 100 100 91 95 23 88 100 100 100 100 100 97 52 50 91 48 80 58 81 42 5
2 14 3 0 99 100 100 100 98 100 100 100 100 100 100 100 100 100 100 100 100 98 100 92 100 88 100 100 100 100 100 100 100 100 100 100 99 99 100 18 94 89 38
87 5 5 16 100 100 100 100 100 100 100 100 100 100 100 100 100 100 60 100 100 100 100 97 91 46 100 100 100 100 100 100 100 100 100 100 100 100 95 14 86 40 5
42 75 62 70 100 100 100 100 100 100 100 100 100 100 100 100 100 100 72 54 48 83 100 100 92 100 100 100 100 100 100 100 100 99 98 95 94 100 99 100 100 100 100
82 94 5 73 100 100 100 100 100 100 100 100 100 100 100 100 100 100 100 98 74 18 100 100 66 100 100 100 100 100 100 100 100 100 100 100 100 35 100 100 62 99 95
47 100 13 21 100 100 100 100 100 100 100 100 100 100 100 100 100 100 85 97 63 17 69 59 79 98 100 100 100 100 100 100 100 98 98 94 87 96 100 100 91 65 100
96 100 100 63 96 100 100 100 100 100 100 100 100 100 100 100 100 100 100 82 56 61 93 98 98 100 100 100 100 100 100 100 95 100 99 100 100 97 98 100 100 100 100
35 100 100 89 100 100 100 100 100 100 100 100 100 100 100 100 100 100 100 98 61 86 99 100 100 100 100 100 100 100 100 57 97 74 100 100 77 93 96 98 98 100 100
22 100 100 95 100 100 100 100 100 100 100 100 100 100 100 100 100 100 93 100 100 100 100 100 100 100 100 100 100 100 100 96 98 98 100 100 86 91 100 100 100 100 100
87 100 66 100 98 100 100 100 100 100 100 100 100 100 100 100 100 100 100 100 100 94 99 84 100 100 100 100 100 100 100 100 100 96 100 99 56 38 76 100 100 100 100
100 100 100 100 100 98 100 100 100 100 100 100 100 100 100 100 100 100 100 100 60 100 100 100 100 100 100 100 100 100 100 100 97 100 99 24 100 98 48 100 100 100 100
63 100 100 100 100 99 84 99 100 100 100 100 100 100 100 100 100 100 100 100 100 100 99 97 100 100 100 100 100 100 100 100 93 40 88 99 98 100 100 100 100 100 100
62 96 100 100 100 99 100 100 100 100 100 100 100 100 100 100 100 100 100 100 100 100 100 100 100 100 100 100 100 100 100 99 78 100 88 100 100 100 100 100 100 100 98
1 80 100 100 100 76 99 100 100 100 100 100 100 100 100 100 100 100 100 100 100 100 100 100 100 100 100 100 100 100 100 100 100 100 100 100 100 100 100 100 100 100 51
0 88 100 100 100 100 100 100 100 100 100 100 100 100 100 100 100 100 100 100 100 100 100 100 100 100 100 100 100 100 100 100 100 100 100 100 100 100 100 100 100 95 100
0 80 67 100 100 100 100 100 100 100 100 100 100 100 100 100 100 100 100 100 100 100 100 100 100 94 96 100 100 100 100 100 100 100 100 100 100 100 100 100 99 76 100

GFSSE_prec_cloud_078.txt.gz
Cloud_Cover
70 52 0 40 0 0 0 0 0 0 1 0 1 78 16 86 5 0 0 0 0 0 4 2 0 0 78 89 3 0 3 2 4 24 5 12 53 78 57 13 1 0 0
11 44 0 0 0 0 0 0 0 0 0 0 50 5 86 6 65 5 0 0 0 0 34 5 3 100 93 54 0 1 2 5 60 100 8 95 100 100 97 100 72 5 1
26 51 21 0 3 7 22 1 0 0 3 82 3 4 20 80 5 5 0 0 0 0 5 5 5 97 93 5 5 4 5 5 88 69 43 100 100 100 100 68 10 21 40
2 51 30 0 0 6 0 6 0 46 0 21 6 38 8 26 5 5 5 1 5 4 5 20 66 93 24 5 5 5 11 100 56 79 100 100 100 99 92 100 100 100 100
0 35 40 0 0 8 0 0 0 0 38 61 5 18 63 86 11 5 5 5 56 93 77 98 100 56 54 5 5 5 22 5 100 100 100 100 96 98 100 100 100 100 100
0 1 36 1 0 0 0 0 3 13 98 73 89 21 63 33 36 37 8 30 82 100 100 100 57 29 39 60 50 42 10 100 100 100 100 100 100 100 100 100 46 99 100
0 0 26 13 0 0 0 0 14 100 100 88 78 100 54 92 100 99 100 100 100 81 100 98 99 99 100 91 33 5 40 100 100 80 100 100 100 100 99 82 100 100 27
0 0 0 6 16 0 0 0 18 88 100 100 100 97 100 100 100 100 100 100 100 82 71 69 82 98 75 100 100 5 97 100 87 10 99 100 100 100 100 5 65 33 44
0 0 0 0 41 67 1 1 94 100 100 100 100 100 100 100 100 100 100 100 100 96 39 64 95 66 100 100 86 5 99 88 100 86 49 100 96 32 24 54 11 20 14
0 0 0 63 99 48 59 54 87 100 100 100 100 100 100 100 100 100 100 100 100 100 85 87 65 100 100 100 80 100 32 100 100 99 36 59 44 12 20 41 22 20 99
0 0 5 20 54 100 100 100 100 100 100 100 100 100 100 100 100 100 100 100 100 78 53 58 78 100 100 100 100 12 65 100 100 100 100 92 68 52 10 98 99 33 53
0 0 0 42 47 93 100 95 100 100 100 100 100 100 100 100 100 100 100 100 100 100 100 100 100 84 100 100 100 5 100 100 100 99 100 100 100 100 100 96 100 80 40
0 0 0 38 48 54 100 100 100 100 100 100 100 100 100 100 100 100 100 100 84 72 93 96 44 74 100 100 91 75 100 100 100 100 100 100 100 100 100 100 100 100 92
0 0 0 3 75 95 84 100 79 94 100 100 100 100 100 100 100 100 100 100 100 100 100 99 81 66 88 100 13 100 100 100 100 100 100 100 100 37 100 100 100 100 99
0 16 10 8 76 100 99 100 100 100 100 100 100 100 100 100 100 100 100 99 100 100 100 79 60 84 99 100 100 100 100 100 100 100 100 100 100 100 100 86 95 10 17
13 22 4 5 46 100 100 100 100 100 100 100 100 100 100 100 100 100 100 100 100 99 97 94 99 82 100 100 100 100 100 100 100 100 100 100 100 100 96 43 95 100 55
3 12 5 5 88 93 100 100 100 100 100 100 100 100 100 100 100 100 100 100 100 86 80 73 79 93 100 100 100 99 100 100 100 100 100 100 100 98 26 100 100 92 96
25 13 15 7 62 100 100 100 100 100 100 100 100 100 100 100 100 100 100 100 100 100 94 14 99 97 75 100 100 100 100 100 100 100 100 100 100 100 97 100 100 31 87
13 16 24 60 90 95 100 100 100 100 100 100 100 100 100 100 100 100 100 97 100 99 100 100 93 99 98 100 100 100 100 100 100 98 100 88 100 99 100 100 98 98 65
23 2 25 79 100 100 100 100 100 100 100 100 100 100 100 100 100 100 100 100 100 100 100 98 99 100 90 100 100 100 100 100 100 72 85 100 100 83 100 100 91 100 100
45 21 41 99 100 97 100 100 100 100 100 100 100 100 100 100 100 100 100 100 100 100 100 100 97 100 100 100 100 100 100 100 97 91 100 100 100 98 100 100 99 100 89
94 42 53 68 100 100 100 100 100 100 100 100 100 100 100 100 100 100 100 100 100 100 100 100 100 100 100 100 100 100 100 100 100 100 98 99 99 100 100 100 100 100 100
100 92 100 66 100 100 100 100 100 100 100 100 100 100 100 100 100 100 100 100 100 100 100 100 100 100 100 100 100 100 100 100 100 100 100 95 70 100 100 100 100 100 100
92 52 58 64 100 100 100 100 100 100 100 100 100 100 100 100 100 100 100 100 100 100 100 100 100 97 79 78 86 100 100 100 100 97 100 100 100 100 87 98 100 100 100
62 64 21 28 76 100 100 99 100 100 100 100 100 100 100 100 100 100 100 100 100 100 100 100 100 100 83 100 100 100 100 100 100 100 100 100 100 100 100 100 100 100 100
50 36 55 100 100 100 100 42 100 100 100 100 100 100 100 100 100 100 100 100 100 100 100 100 100 100 96 95 100 100 100 100 100 100 100 100 99 100 100 100 100 100 100

GFSSE_prec_cloud_081.txt.gz
Cloud_Cover
6 46 2 62 28 46 0 0 0 1 6 13 9 94 99 99 92 68 0 5 5 4 2 60 0 0 44 100 28 0 24 0 0 2 70 67 62 80 41 17 5 95 19
0 42 4 2 16 10 8 7 0 0 6 21 24 15 94 1 91 82 4 5 5 5 98 48 0 100 100 52 1 2 3 4 2 6 78 100 100 100 89 19 86 6 44
6 56 26 0 10 16 25 11 1 0 3 30 18 2 4 42 13 98 2 5 0 5 13 0 4 100 100 5 10 5 35 5 34 67 100 62 100 100 56 64 98 69 12
28 46 51 18 12 7 4 2 0 0 22 1 0 45 3 87 4 4 27 8 0 0 0 28 95 100 96 100 100 100 100 5 35 98 94 100 100 94 100 91 50 31 88
35 56 46 34 20 20 4 10 0 0 46 81 100 18 82 5 5 61 56 2 0 0 4 22 94 100 100 100 87 64 99 11 5 99 37 100 100 91 100 100 100 100 100
30 98 46 44 22 46 53 11 2 21 100 39 100 89 5 35 9 12 24 2 2 4 47 71 79 100 100 88 61 5 60 34 40 33 100 100 46 96 100 100 100 100 100
14 65 100 42 33 71 82 2 11 21 72 88 88 100 93 62 79 84 91 5 45 86 100 100 58 100 100 54 6 100 100 54 100 100 100 98 100 100 100 100 100 100 100
0 20 93 60 32 5 4 1 6 12 30 68 82 87 5 97 100 100 100 100 99 100 100 100 100 100 99 76 98 100 100 5 12 100 100 100 100 100 100 100 100 82 7
4 19 58 100 90 13 1 0 5 35 95 100 100 100 100 100 100 100 100 100 100 100 100 100 100 100 54 6 80 100 11 81 100 98 100 100 100 86 80 8 29 61 5
15 17 24 66 100 100 79 31 57 58 100 100 100 100 100 100 100 100 100 100 100 100 100 100 100 98 7 5 26 100 100 100 97 38 93 100 86 36 71 37 12 35 16
34 16 27 39 39 86 99 99 60 93 100 100 100 100 100 100 100 100 100 100 100 100 100 100 100 94 49 7 91 100 96 100 74 88 58 99 43 23 96 100 100 65 92
18 40 32 40 86 83 94 100 100 100 100 100 100 100 100 100 100 100 100 100 100 100 89 100 86 89 33 34 53 100 100 100 100 6 100 100 99 96 98 100 100 100 100
0 0 33 70 96 84 100 100 100 100 100 100 100 100 100 100 100 100 100 100 100 100 89 85 100 100 100 98 100 100 100 100 100 76 100 100 98 100 100 100 100 100 100
0 0 20 77 100 100 100 100 100 100 100 100 100 100 88 100 100 100 100 100 100 84 69 100 100 100 96 100 89 100 100 100 76 100 100 100 100 100 100 100 93 82 100
0 0 9 23 100 100 100 90 100 100 100 100 100 70 100 100 100 100 100 100 44 14 22 73 100 100 100 94 80 100 100 100 100 100 100 100 100 100 100 100 84 90 89
1 15 29 34 71 100 100 100 100 100 100 100 100 100 100 100 100 100 100 100 100 55 99 99 97 100 100 56 26 100 98 100 100 100 100 100 100 100 100 100 84 100 65
0 16 31 22 66 100 100 100 100 81 100 100 100 100 100 100 100 100 100 100 100 100 100 100 100 100 100 84 98 100 100 100 100 100 100 100 100 100 99 96 100 88 98
19 26 6 1 55 100 100 100 100 100 100 100 100 100 100 100 100 100 100 100 100 100 100 100 100 100 97 60 100 100 100 100 100 100 100 100 100 100 100 100 100 100 93
15 28 48 24 54 100 100 100 100 100 100 100 100 100 100 100 100 100 100 100 100 100 100 83 100 98 100 100 98 94 99 100 100 100 100 100 100 100 98 100 100 96 72
27 27 99 31 13 93 32 100 100 100 100 100 100 100 100 100 100 100 100 100 100 94 100 100 95 100 100 75 94 100 75 99 100 100 100 100 100 99 100 100 100 87 88
41 74 100 100 100 100 96 100 100 100 100 100 100 100 100 100 100 100 100 100 100 100 100 100 100 99 85 95 100 95 100 100 100 100 100 100 100 100 100 100 100 96 94
74 70 100 100 100 100 100 100 100 100 100 100 100 100 100 100 100 100 100 100 100 100 100 100 98 85 77 100 100 100 100 100 100 100 100 100 100 100 100 100 100 100 98
100 100 100 100 69 100 48 100 100 100 100 100 100 100 100 100 100 100 100 100 100 100 100 100 100 100 97 100 99 100 93 100 100 100 100 100 100 100 95 100 100 100 98
100 100 100 48 54 99 87 100 100 100 100 100 100 100 100 100 100 100 100 100 100 100 100 100 100 100 100 100 100 100 100 100 100 100 100 100 100 100 100 96 100 100 100
100 100 100 20 76 100 100 100 100 100 100 100 100 100 100 100 100 100 100 100 100 100 100 100 100 100 100 100 95 100 100 100 100 100 100 100 100 100 100 100 100 100 100
100 100 100 80 100 100 100 100 100 100 100 100 100 100 100 100 100 100 100 100 100 100 100 100 100 100 95 97 100 100 99 100 100 100 100 100 100 100 100 100 100 100 100

GFSSE_prec_cloud_084.txt.gz
Cloud_Cover
0 15 7 100 100 11 0 5 18 2 0 0 0 0 4 4 0 89 67 5 5 5 4 0 5 5 12 56 0 0 19 1 0 0 98 100 100 86 62 6 5 5 5
11 77 0 100 100 21 0 8 29 23 0 0 0 0 0 16 5 12 82 90 5 5 5 3 0 1 4 32 0 0 0 4 0 5 5 98 100 100 74 5 8 24 13
10 64 14 100 100 57 0 13 20 47 39 25 1 0 17 18 72 61 9 91 58 5 97 4 0 24 24 6 5 4 5 5 7 16 32 88 100 100 51 36 100 81 10
6 54 58 100 100 100 0 0 12 100 48 36 2 0 11 22 10 2 5 24 2 8 7 0 0 91 62 94 69 34 46 69 100 100 99 100 95 50 95 99 33 15 12
34 64 87 41 99 100 15 0 3 76 100 47 50 91 42 66 78 50 63 15 58 93 5 18 0 75 96 100 82 31 92 100 99 48 53 99 83 53 93 9 20 49 30
60 48 77 57 79 100 82 0 0 10 100 100 34 2 31 100 74 77 63 5 6 2 2 14 3 74 63 100 95 100 100 100 100 46 14 87 76 100 79 98 100 100 100
99 55 98 97 52 100 100 0 0 0 9 9 0 0 74 66 46 58 22 5 5 2 0 2 22 32 67 100 100 100 100 100 57 63 59 93 98 95 100 100 100 100 100
60 100 100 98 19 100 100 14 0 0 16 53 4 18 82 100 100 100 100 62 78 96 99 88 100 94 85 37 100 100 100 93 94 78 70 96 100 100 100 100 100 100 100
12 93 100 100 92 95 100 38 20 0 1 2 100 100 100 100 100 100 100 100 100 100 100 100 100 100 16 22 100 100 100 100 100 69 100 100 100 100 100 100 100 100 100
26 39 100 100 100 64 61 88 50 8 0 56 100 100 100 100 100 100 100 100 100 100 100 100 100 100 99 97 100 100 100 100 99 100 100 100 100 100 100 100 100 100 99
58 44 94 100 100 68 96 99 95 64 65 100 100 100 100 100 100 100 100 100 100 100 100 100 100 100 100 100 86 100 100 92 100 100 87 100 100 100 100 100 98 100 100
99 84 54 100 100 100 100 100 99 87 100 100 100 100 100 100 100 100 100 100 100 100 100 100 100 100 88 98 49 100 99 100 98 100 88 100 100 100 100 100 32 98 100
24 53 71 71 100 100 100 100 100 100 99 100 100 100 100 100 100 100 100 100 100 100 100 74 100 100 100 78 88 84 64 100 100 100 100 100 100 100 48 74 100 100 100
8 20 89 100 100 100 100 100 100 100 100 100 100 100 100 100 100 100 99 100 100 100 100 100 100 82 99 48 84 100 100 100 100 99 100 100 100 100 90 100 100 100 100
0 0 32 100 100 100 100 100 100 100 100 100 100 100 100 100 100 100 72 100 100 100 100 100 92 90 95 76 100 91 100 99 100 100 100 100 100 100 100 100 100 100 100
0 0 26 100 100 100 100 100 100 100 100 100 100 99 100 100 100 100 100 99 100 100 94 89 99 100 100 96 84 93 90 93 100 100 99 100 100 100 100 100 100 100 100
4 1 28 52 100 100 100 100 100 100 100 100 100 100 100 100 100 100 100 100 100 100 74 58 100 100 100 94 100 100 97 60 66 99 100 100 100 100 100 100 100 100 100
8 4 30 47 100 100 100 100 100 100 100 100 100 100 100 100 100 100 100 100 100 100 100 100 100 100 99 44 83 85 64 19 79 100 100 100 100 100 100 100 100 100 100
6 14 32 39 100 100 100 100 100 100 100 100 100 100 100 100 100 100 100 100 100 89 100 100 100 100 91 73 85 93 39 70 74 93 100 90 91 100 100 100 100 100 100
18 14 18 24 68 100 100 100 100 100 100 100 100 100 100 100 100 100 100 100 100 100 100 100 100 100 100 100 75 55 81 87 100 100 100 99 100 100 100 100 100 100 100
52 83 100 52 45 100 100 100 100 100 100 100 100 100 100 100 100 100 100 100 100 100 100 100 100 100 100 79 38 38 99 54 48 93 100 100 62 100 100 100 99 74 100
94 100 100 98 25 56 61 56 100 100 100 100 100 100 100 100 100 100 100 100 100 100 100 100 100 86 68 96 71 51 53 22 100 100 100 100 100 100 100 100 100 100 100
100 100 100 92 80 100 100 94 100 100 100 100 100 100 100 100 100 100 100 100 100 100 100 100 100 100 100 100 100 71 97 100 100 100 100 100 100 100 100 100 100 100 100
100 100 100 100 100 100 100 100 100 100 100 100 100 100 100 100 100 100 100 100 100 100 100 100 100 100 100 100 100 100 100 100 100 100 100 100 100 100 100 100 100 100 100
98 100 100 100 62 71 99 78 99 100 100 94 100 100 100 100 100 100 100 100 100 100 100 100 100 100 100 100 100 100 100 100 100 100 100 100 100 100 100 100 100 100 100
100 100 100 100 81 100 100 100 100 100 100 100 100 100 100 100 100 100 100 100 100 100 100 100 100 100 100 100 100 100 100 100 100 100 100 100 100 100 100 100 100 100 100

GFSSE_prec_cloud_087.txt.gz
Cloud_Cover
0 0 0 100 93 0 0 0 0 0 0 0 0 0 0 0 0 5 4 61 5 4 5 5 5 5 5 12 0 0 0 0 0 32 44 20 100 94 28 98 30 52 5
0 0 0 37 30 0 3 8 0 0 0 0 0 0 0 3 0 1 61 50 87 5 5 6 5 5 5 5 1 0 0 0 0 5 5 84 76 96 98 5 11 11 74
0 0 1 24 54 0 8 36 19 0 0 1 0 0 0 0 5 0 6 8 90 44 7 5 5 5 10 5 5 4 5 5 5 12 20 95 95 99 49 5 35 54 5
0 0 0 38 100 8 11 4 66 19 4 23 28 7 8 18 38 0 5 87 32 71 22 6 27 8 4 1 5 5 42 6 84 94 100 99 71 78 18 24 33 5 0
0 0 11 90 100 46 1 4 100 100 49 18 9 2 0 0 5 5 3 5 62 95 6 40 4 10 1 12 11 30 93 89 74 84 68 48 97 20 24 78 5 0 0
0 0 95 76 100 96 0 4 100 100 100 21 40 0 0 0 4 5 4 33 10 33 9 73 5 0 18 17 99 78 68 88 100 100 99 29 100 21 99 100 1 0 6
1 15 90 63 100 100 24 0 62 100 100 36 0 3 0 0 34 7 60 29 22 5 5 82 5 13 29 30 81 86 34 100 99 92 72 78 91 100 100 100 100 100 100
5 19 93 97 100 100 100 0 0 29 43 100 10 0 24 100 100 42 95 100 100 5 99 5 5 18 52 9 48 75 100 87 92 99 81 77 44 20 95 99 100 100 100
76 85 100 100 100 100 100 22 0 0 0 4 0 0 86 86 100 100 100 100 100 100 63 23 32 18 97 97 6 24 60 98 100 100 67 98 89 59 47 100 99 100 100
43 100 100 100 100 100 100 100 19 0 0 0 0 24 100 100 100 100 100 100 100 100 100 100 100 100 100 100 33 6 100 100 97 72 100 98 100 90 100 100 100 100 100
58 89 100 79 100 65 100 100 52 3 0 0 0 99 100 100 100 100 100 100 100 100 100 100 100 100 100 100 85 10 98 80 100 99 72 99 100 100 97 67 100 62 100
100 100 100 100 100 78 96 100 98 82 36 79 96 100 100 100 100 100 100 100 100 100 100 100 100 100 100 97 91 100 99 94 100 99 72 99 100 100 100 100 100 72 92
52 100 100 100 100 100 100 100 100 99 97 95 100 100 100 100 100 100 100 100 100 100 100 100 100 100 100 99 96 100 24 25 89 92 98 100 100 100 100 100 100 85 100
8 61 100 100 100 100 100 100 100 100 100 100 85 100 100 100 100 100 98 100 100 100 100 100 100 100 100 100 65 100 43 77 87 100 100 100 100 100 100 100 100 100 100
5 0 95 100 100 100 100 100 100 100 100 100 98 100 100 100 100 100 100 100 100 100 100 100 90 100 100 62 100 73 44 74 100 100 100 100 98 100 100 100 100 100 100
0 0 23 100 100 100 100 100 100 100 100 100 100 100 100 100 100 100 100 100 100 100 100 100 100 100 92 74 95 68 100 97 100 100 100 100 100 100 100 100 100 100 100
0 0 1 100 100 100 100 100 100 100 100 100 100 100 100 100 100 100 100 100 100 100 100 100 100 100 97 79 87 100 95 98 100 100 98 97 100 100 100 100 100 100 100
0 0 0 74 100 100 100 96 100 100 100 100 100 100 100 100 100 100 100 100 100 100 100 100 100 100 100 100 92 92 96 99 82 100 86 54 96 100 100 100 100 100 100
0 0 0 68 100 100 94 95 98 100 100 100 100 100 100 100 100 100 100 100 100 100 100 100 100 100 100 100 97 82 89 99 79 14 100 66 100 100 100 100 100 100 100
0 0 2 58 100 97 80 70 80 100 100 100 100 100 100 100 100 100 100 100 100 100 100 100 100 94 100 100 96 100 100 72 99 20 75 93 100 100 97 100 100 100 100
0 4 5 62 100 81 100 100 100 100 100 100 100 100 100 100 100 100 100 100 100 100 100 100 100 96 100 100 100 83 75 68 100 98 100 100 100 100 95 100 100 100 100
0 5 84 72 74 100 96 96 100 100 100 100 100 100 100 100 100 100 100 100 100 100 100 100 100 100 100 100 53 73 97 89 93 97 89 100 97 97 100 93 100 100 100
4 50 95 64 5 80 98 81 100 100 100 100 100 100 100 100 100 100 100 100 100 100 100 100 100 100 100 100 100 72 97 92 100 100 100 97 99 98 100 100 100 100 100
48 100 100 16 3 36 41 60 100 97 100 100 100 100 100 100 100 100 100 100 100 100 100 100 100 100 100 100 66 68 100 100 60 71 15 99 76 100 100 100 100 100 100
86 100 100 57 18 35 59 100 59 100 100 100 100 100 100 100 100 100 100 100 100 100 100 100 100 100 100 100 100 100 100 85 96 100 100 100 100 100 100 100 100 100 100
100 100 100 94 69 62 93 100 100 92 100 100 100 100 100 100 100 100 100 100 100 100 100 100 100 100 100 100 100 97 100 78 100 98 100 100 100 100 100 100 100 100 100

GFSSE_prec_cloud_090.txt.gz
Cloud_Cover
0 0 0 0 0 0 0 0 0 0 0 0 0 0 0 0 0 0 58 5 10 5 1 4 3 31 9 8 0 0 0 0 0 0 0 0 19 12 5 5 31 40 5
0 0 0 0 0 0 0 0 0 0 0 0 0 0 0 0 0 0 5 11 81 95 24 5 5 7 10 0 4 2 0 0 0 0 2 6 100 5 5 5 53 20 5
0 0 0 0 0 1 4 0 0 0 0 0 1 3 0 0 4 26 5 5 29 93 9 47 6 4 5 5 5 0 0 0 5 5 3 26 84 8 46 5 5 66 5
0 0 0 0 0 0 13 8 0 0 0 6 15 0 0 0 3 43 66 7 6 85 58 15 17 5 21 5 5 5 5 5 5 18 82 93 83 65 20 5 59 13 5
0 0 0 0 5 2 0 0 0 0 3 8 8 4 0 2 0 1 7 0 31 6 99 5 5 15 4 1 3 5 5 6 5 66 88 91 100 39 11 71 98 6 2
0 0 40 3 16 6 0 0 15 100 8 3 14 0 0 0 0 0 0 5 3 22 5 5 8 8 5 0 0 5 5 10 5 100 90 100 99 23 80 100 14 2 0
0 0 0 9 81 17 1 0 100 100 96 6 89 0 1 0 0 0 20 5 58 23 41 3 11 11 4 1 2 18 70 5 72 100 100 100 88 87 90 11 8 23 11
0 0 0 83 45 8 0 0 91 100 100 87 52 0 0 0 2 77 100 13 100 70 100 92 79 73 5 5 5 39 79 33 100 100 100 100 82 91 18 54 99 100 100
4 0 8 50 40 22 16 0 1 33 77 97 0 0 37 61 48 90 100 99 100 99 100 100 93 97 53 5 10 5 12 3 100 100 100 83 100 58 92 65 100 90 84
0 0 7 100 43 14 66 22 0 0 0 7 0 0 0 0 75 93 100 100 100 100 100 100 100 100 97 10 35 5 5 66 100 100 100 72 97 98 41 100 99 89 100
3 10 27 84 81 23 27 47 28 24 1 6 1 1 48 1 100 100 100 100 100 100 100 100 100 100 100 100 92 32 4 96 100 100 100 100 72 63 100 97 88 100 98
0 18 100 47 20 58 56 49 40 27 8 5 6 9 0 13 82 100 97 100 100 100 100 100 100 100 100 100 100 98 54 100 100 100 100 100 100 100 100 95 97 82 68
0 30 100 70 100 100 80 91 53 46 72 56 49 44 46 65 100 100 100 100 100 100 100 100 100 100 100 100 100 100 100 100 100 100 100 100 100 100 100 100 71 100 92
0 0 95 100 91 100 87 99 100 53 70 40 65 85 66 100 100 100 100 100 100 100 100 100 100 100 100 100 100 100 100 84 95 84 80 100 100 100 100 100 99 98 100
0 0 12 77 99 100 100 99 97 100 100 98 62 58 51 100 100 100 100 100 100 100 100 100 100 100 100 100 92 89 100 77 100 100 99 100 100 100 100 100 100 100 100
0 0 6 99 99 100 100 100 100 100 98 100 100 46 100 100 100 100 100 100 100 100 100 100 100 100 100 100 95 100 100 100 100 96 93 99 100 100 100 100 100 100 100
0 0 0 77 100 100 100 100 100 100 98 100 100 91 100 100 100 100 100 100 100 100 100 100 100 100 100 100 100 100 100 100 89 85 100 100 100 100 100 98 100 100 100
1 0 0 32 100 100 100 100 100 100 100 100 100 100 98 100 100 100 100 100 100 100 100 100 100 100 100 100 100 100 100 100 78 100 100 100 100 100 91 100 100 100 100
4 0 0 14 100 80 100 100 100 100 100 100 100 100 100 100 100 100 100 100 100 100 100 100 100 100 100 100 100 100 99 92 100 85 93 100 99 99 92 100 100 100 100
0 0 0 0 91 100 100 100 100 99 100 100 100 100 100 100 100 100 100 100 100 100 100 100 100 100 100 100 100 91 70 62 54 100 98 100 100 100 91 98 100 98 100
0 0 0 0 96 100 100 98 100 67 100 100 100 100 100 100 100 100 100 100 100 100 100 100 100 100 100 100 100 100 100 100 100 100 100 100 100 100 100 88 90 79 100
0 0 0 0 100 94 85 39 48 100 100 95 100 100 100 100 100 100 100 100 100 100 100 100 100 100 100 100 92 100 100 100 100 100 96 87 100 93 78 55 78 60 87
0 0 0 0 82 99 26 26 99 100 99 100 100 100 100 100 100 100 100 100 100 100 100 100 100 100 100 100 100 100 100 100 100 100 100 100 75 42 82 99 100 88 83
0 0 0 2 100 54 25 23 44 15 76 100 100 100 100 100 100 100 100 100 100 100 100 100 100 100 100 100 100 100 100 100 100 65 100 89 51 24 56 5 59 50 91
0 0 2 40 19 36 24 8 31 13 65 99 100 100 100 100 100 100 100 100 100 100 100 100 100 100 100 100 100 100 100 98 100 85 97 74 100 98 85 30 64 97 100
0 18 9 54 34 33 30 2 0 18 62 93 100 100 100 100 100 100 100 100 100 100 100 100 100 100 100 100 100 100 100 98 100 100 89 83 96 82 75 98 100 100 100

GFSSE_prec_cloud_093.txt.gz
Cloud_Cover
0 0 0 0 0 0 0 0 0 0 0 0 0 0 0 0 0 0 0 2 2 5 0 16 13 5 0 0 0 4 0 0 0 0 0 0 4 0 0 0 1 27 4
0 0 20 0 0 0 0 0 0 0 0 0 0 0 0 0 0 0 0 1 0 5 15 5 6 4 4 0 3 0 0 0 0 0 0 0 12 1 0 0 5 31 5
0 0 1 0 0 0 0 0 0 0 0 0 0 0 0 0 0 0 0 1 5 5 10 5 5 6 4 17 0 0 0 0 0 0 0 38 47 10 5 1 5 5 5
0 0 0 0 0 0 0 0 0 0 0 0 0 2 0 0 0 51 9 8 5 5 5 5 86 6 13 4 0 0 0 0 0 0 57 100 69 15 5 4 5 5 6
0 0 0 0 0 0 0 0 0 0 9 1 2 0 0 0 0 51 65 70 4 5 5 5 18 47 5 5 5 3 0 0 0 10 41 96 71 18 5 1 8 12 6
0 0 40 0 0 0 0 0 0 0 5 96 1 0 0 0 0 12 8 11 0 4 5 5 8 25 5 0 25 5 5 0 0 99 100 52 67 5 18 16 77 5 5
0 0 0 0 0 0 0 0 0 35 33 100 32 0 0 0 0 0 0 1 1 5 3 5 16 5 2 5 0 0 0 0 90 100 36 56 50 54 41 67 28 5 5
5 0 0 0 0 0 0 0 1 100 100 99 98 54 0 0 14 28 100 90 90 51 18 2 30 100 100 30 2 0 3 4 86 100 47 95 20 40 47 36 12 32 17
37 34 1 0 0 2 0 0 1 88 100 100 100 2 0 90 99 100 96 34 100 100 86 80 92 100 100 100 5 33 5 3 89 100 84 92 58 30 16 21 38 97 100
33 65 1 0 0 5 11 7 0 0 90 100 81 1 0 0 0 1 84 93 99 17 93 100 99 100 100 100 100 74 5 5 74 53 100 100 5 99 37 5 8 71 100
7 51 46 0 0 0 1 9 53 13 1 28 30 3 61 0 1 5 100 100 100 100 100 100 100 100 100 100 100 13 34 91 4 96 97 63 100 28 80 68 90 100 100
20 61 85 14 0 0 0 8 33 42 1 1 0 0 0 2 10 11 76 100 100 100 100 100 100 100 100 100 100 100 84 100 85 96 100 88 74 90 86 100 100 100 100
93 100 63 3 2 1 0 0 10 42 53 37 17 27 2 21 8 5 100 100 100 100 100 100 100 100 100 100 100 100 100 100 100 55 90 98 100 89 100 100 100 100 100
99 71 19 58 4 18 0 1 0 0 14 22 0 78 68 39 15 9 91 100 96 100 100 100 100 100 100 100 95 100 100 100 100 75 62 100 100 97 100 100 100 100 100
95 8 1 73 2 14 34 42 36 5 1 18 96 86 67 78 27 88 95 100 83 100 100 100 100 100 100 100 100 100 100 100 100 98 85 73 99 100 100 100 100 100 100
49 2 4 17 28 11 16 63 72 99 85 37 39 97 45 18 77 39 100 100 100 100 100 100 100 100 100 100 100 100 100 100 100 100 94 24 100 100 100 100 100 100 92
5 5 2 0 69 61 92 99 94 16 96 100 42 35 60 61 60 36 100 100 100 100 100 100 100 100 100 100 100 100 100 100 100 100 84 100 98 100 100 100 100 100 98
5 6 5 0 8 100 100 100 95 32 59 72 99 94 32 59 43 99 100 100 100 100 100 100 100 100 100 100 100 100 100 100 100 100 99 100 100 92 70 100 100 100 100
5 5 4 3 63 77 100 100 84 92 55 45 91 100 98 100 85 92 100 99 100 100 100 100 100 100 100 100 100 100 100 100 100 91 100 100 100 97 100 100 98 100 100
5 5 1 0 21 84 100 100 100 100 98 99 98 79 98 100 100 91 100 100 100 100 100 100 100 100 100 100 100 100 100 100 100 88 96 95 100 100 100 100 18 98 100
5 5 0 0 0 60 100 100 100 100 100 100 100 100 100 100 100 98 100 100 100 100 100 100 100 100 100 100 100 100 100 100 100 100 98 100 77 89 88 100 93 71 100
2 2 0 0 0 35 100 100 65 98 100 100 100 100 97 100 100 100 100 100 100 100 100 100 100 100 100 100 100 100 100 100 99 98 97 100 100 100 100 100 100 70 33
5 5 0 0 0 65 88 84 96 100 100 100 100 100 85 98 92 100 100 100 100 100 100 100 100 100 100 100 100 100 100 100 100 99 100 100 100 100 100 100 90 87 32
5 5 0 0 0 49 13 12 100 79 100 100 100 74 78 96 100 100 100 100 100 100 100 100 100 100 100 100 100 100 100 100 100 100 100 100 100 100 100 100 86 90 62
65 3 0 0 0 23 0 43 63 82 40 28 70 89 100 100 100 100 100 100 100 100 100 100 100 100 100 100 100 100 100 100 100 100 100 100 100 59 100 100 96 81 75
1 0 0 0 0 16 5 82 62 51 15 18 99 86 100 100 100 100 100 100 100 100 100 100 100 100 100 100 100 100 100 100 100 100 100 100 100 86 100 85 55 83 85

GFSSE_prec_cloud_096.txt.gz
Cloud_Cover
0 0 0 0 0 0 0 0 0 0 0 0 0 0 0 0 0 0 0 0 0 0 2 0 0 0 4 1 0 0 0 0 0 0 0 0 0 0 0 0 0 21 1
0 0 5 0 0 0 0 0 0 0 0 0 0 0 0 0 0 0 0 0 0 0 10 5 0 0 3 3 0 1 1 0 0 0 0 0 0 0 0 0 0 8 0
0 0 0 0 0 0 0 0 0 0 0 0 0 0 0 0 0 0 0 0 0 0 6 15 9 5 7 0 0 0 0 0 0 0 0 0 4 8 0 0 0 5 6
0 0 0 0 0 0 0 0 0 0 0 0 0 0 0 0 0 0 0 0 0 2 1 2 25 22 10 0 0 0 0 0 0 0 14 0 24 0 0 0 5 8 8
1 0 0 0 0 0 0 0 0 0 0 0 0 0 0 0 0 0 0 0 4 5 5 5 10 26 5 5 0 0 0 0 0 0 55 0 10 2 42 100 95 48 91
0 5 21 0 0 0 0 0 0 0 3 0 0 0 0 0 0 0 0 5 3 3 2 5 16 5 5 5 5 1 0 0 0 0 5 1 5 5 5 60 7 5 5
86 5 5 5 7 0 0 0 0 0 2 100 54 0 0 0 0 0 0 0 0 11 2 19 41 4 5 5 5 5 4 0 6 0 97 5 5 87 65 18 3 5 4
8 34 24 5 5 2 5 7 0 0 2 100 100 0 0 0 0 0 3 10 30 48 38 80 66 5 6 5 32 5 5 0 34 60 68 5 95 100 100 21 5 5 3
100 39 5 59 98 72 2 5 0 0 94 100 100 100 0 0 0 5 0 5 2 92 91 42 76 64 9 83 21 95 60 5 14 4 7 12 29 100 92 100 94 26 18
94 100 100 23 8 0 4 7 0 8 100 100 100 99 0 0 0 4 5 3 7 100 75 100 100 100 100 100 100 62 55 38 26 68 100 53 5 68 47 30 73 83 100
100 91 100 96 8 0 0 5 31 0 64 100 100 66 67 0 0 0 0 1 99 100 100 100 100 100 100 100 100 100 100 23 30 32 100 10 6 99 54 100 100 98 100
100 100 100 100 30 5 12 5 0 0 1 44 77 13 4 0 0 0 0 0 68 100 100 100 100 100 100 100 100 100 100 100 66 57 73 42 42 100 100 100 100 95 100
100 100 100 100 100 24 94 6 0 0 0 0 0 0 0 0 0 1 16 0 67 100 100 100 100 100 100 100 100 100 100 100 100 100 99 96 63 99 100 100 100 100 100
98 99 100 100 100 100 77 5 0 0 0 0 0 0 0 0 0 0 36 3 100 100 100 100 100 100 100 100 100 100 100 100 100 100 100 100 100 99 100 100 100 100 100
100 100 100 100 100 100 19 5 0 0 0 0 0 0 0 0 0 0 40 23 90 100 100 100 100 100 100 100 100 100 94 100 100 100 100 100 95 100 100 100 100 100 100
100 100 100 100 100 100 75 5 0 0 0 0 0 0 0 0 0 0 47 100 45 100 100 100 100 100 100 100 100 100 100 100 100 100 100 100 96 100 99 100 100 100 100
100 100 100 100 100 100 15 4 3 0 0 0 0 0 0 0 0 0 28 39 13 73 100 100 100 100 100 100 100 100 100 100 100 100 92 93 100 100 100 100 100 97 92
100 100 83 96 100 9 5 5 97 40 1 0 0 0 0 0 0 17 44 94 48 59 100 100 100 100 100 100 100 100 100 100 100 100 100 58 60 100 100 100 100 96 96
100 94 36 85 100 58 9 0 100 92 31 6 71 62 6 15 0 0 20 8 67 100 92 100 100 100 100 100 100 100 100 100 100 100 100 100 93 100 100 100 100 90 100
98 98 99 94 99 43 5 26 100 100 100 84 36 34 99 50 43 100 51 41 34 95 100 100 100 100 100 100 100 100 100 100 100 100 100 100 100 100 100 100 100 100 100
100 100 100 100 100 100 9 38 100 100 100 100 97 49 61 100 100 100 100 55 87 100 100 100 100 100 100 100 100 100 100 100 100 100 100 100 100 89 100 100 100 100 100
100 100 100 100 100 77 4 97 86 100 100 100 100 82 100 100 100 100 83 66 100 100 100 100 100 100 100 100 100 100 100 100 100 100 100 100 100 93 96 100 100 100 96
100 100 100 100 82 6 18 92 71 100 100 100 100 88 100 100 100 100 100 100 100 100 100 100 100 100 100 100 100 100 100 100 100 100 100 94 98 100 100 100 100 100 99
100 100 100 100 56 5 0 97 25 43 98 72 97 100 100 96 50 59 96 100 100 100 100 100 100 100 100 100 100 100 100 100 100 100 100 100 99 100 100 100 100 100 90
100 100 100 95 1 5 0 0 0 34 34 88 99 100 100 100 100 95 94 100 100 100 100 100 100 100 100 100 100 100 100 100 100 100 100 100 100 100 100 100 97 100 100
100 100 73 8 0 4 0 0 35 14 9 7 3 8 20 68 37 100 100 100 100 100 100 100 100 100 100 100 100 100 100 100 100 100 100 100 100 100 100 100 100 96 100

GFSSE_prec_cloud_102.txt.gz
Cloud_Cover
0 24 0 0 0 0 0 0 0 0 0 0 0 0 0 0 0 0 0 0 0 0 0 0 0 0 0 0 5 3 4 2 0 0 5 89 100 100 97 80 66 99 100
0 19 0 0 0 0 0 0 0 0 0 0 0 0 0 0 0 0 0 0 0 0 0 0 0 0 0 0 4 2 0 5 2 0 0 4 100 100 100 100 96 100 100
0 14 1 0 0 0 0 0 0 0 0 0 0 0 0 0 0 0 0 0 0 0 3 0 5 12 3 0 0 0 0 4 2 0 0 12 100 100 78 86 90 99 100
3 6 6 0 0 0 0 0 0 0 0 0 0 0 0 0 0 0 0 0 0 0 6 5 15 23 6 0 3 4 2 0 0 0 3 21 82 100 67 26 13 24 60
5 6 5 5 3 0 0 0 0 1 2 0 0 1 1 0 0 0 0 0 0 0 2 62 41 23 0 24 74 12 2 0 0 0 10 25 100 99 25 37 16 8 34
55 5 8 7 47 5 0 0 0 71 22 0 0 5 4 0 0 0 0 0 0 0 8 5 16 5 13 100 27 85 74 3 0 0 0 12 29 81 86 40 7 76 100
18 45 28 84 100 99 5 5 3 2 5 19 33 5 5 5 0 0 0 0 0 0 0 3 5 5 100 100 93 80 60 5 0 1 0 3 25 64 100 49 100 100 100
27 31 89 100 100 100 81 32 4 1 52 98 47 100 5 4 0 0 0 0 0 0 0 0 0 4 85 100 79 12 7 81 5 5 5 5 27 100 100 100 89 100 100
13 33 94 95 100 100 100 12 23 20 50 10 48 90 5 4 1 0 0 0 0 0 0 2 8 97 100 100 100 96 9 5 12 8 19 5 36 82 100 100 100 100 100
89 99 100 100 100 100 100 22 37 21 5 6 93 100 18 8 2 0 0 0 0 2 3 19 8 98 100 100 100 100 100 6 5 7 100 5 42 100 100 100 100 100 100
100 100 100 100 100 100 100 55 37 32 68 81 26 100 100 100 2 0 0 0 0 0 7 5 27 26 99 100 100 100 100 97 6 59 28 28 73 100 100 100 100 100 100
100 100 100 99 98 100 100 41 52 78 75 97 97 100 100 45 10 5 0 0 0 0 0 3 5 5 97 100 100 100 96 100 100 100 92 14 31 88 100 100 100 100 100
100 100 100 94 99 100 100 98 74 100 98 100 100 100 100 100 27 22 28 30 22 0 15 10 28 5 84 100 100 100 99 100 100 100 100 99 100 40 63 100 98 100 100
100 100 100 100 100 80 100 100 100 100 100 100 100 100 100 100 45 32 27 30 24 6 10 16 27 11 5 99 100 100 100 100 100 100 100 100 100 100 92 100 100 100 100
78 100 100 100 93 65 82 98 100 100 100 100 100 100 100 55 46 30 32 38 40 48 9 12 29 36 10 90 100 100 100 100 100 100 100 100 100 100 100 100 100 100 100
3 100 100 100 100 39 75 100 100 100 100 100 100 100 99 24 12 16 46 55 88 46 15 0 0 18 24 89 100 100 100 100 100 99 100 91 100 100 100 100 100 100 100
0 100 100 100 100 75 100 100 100 100 100 100 100 100 49 5 5 9 39 88 96 67 18 5 25 99 98 100 100 100 100 100 100 100 100 100 100 100 100 100 100 100 100
4 99 100 100 100 84 100 100 100 100 100 100 100 84 5 5 5 14 33 58 99 100 72 76 92 100 100 100 100 100 100 100 100 100 100 100 100 100 100 100 99 100 100
6 100 100 94 100 100 100 100 100 100 100 68 68 52 6 4 5 9 26 49 98 100 99 100 100 100 100 100 100 100 100 100 100 100 100 100 100 100 100 100 98 100 100
26 100 100 100 100 100 98 100 100 100 100 100 100 51 5 11 11 23 46 93 99 100 100 100 100 100 100 100 100 100 100 100 100 100 100 100 100 100 100 100 97 100 100
88 100 100 100 100 100 100 100 100 95 100 100 100 42 65 19 28 36 70 100 100 100 100 100 100 100 100 100 100 100 100 100 100 100 100 100 100 100 100 100 100 100 100
41 65 100 100 100 100 100 100 47 11 100 100 100 100 100 100 86 98 88 100 100 100 100 100 100 100 100 100 100 100 100 100 100 100 100 100 100 100 100 100 100 100 98
2 84 80 78 100 100 100 100 100 100 100 99 100 100 100 100 100 100 100 100 100 100 100 100 100 100 100 100 100 100 100 100 100 100 100 100 100 100 100 100 100 100 99
5 32 100 100 100 100 100 100 100 100 100 98 100 100 24 100 100 100 100 100 100 100 100 100 100 98 100 100 100 100 100 100 100 100 100 100 100 100 100 100 100 100 100
36 100 100 100 100 100 100 100 88 55 99 100 100 99 91 65 100 100 100 100 100 100 100 100 100 100 100 100 100 100 100 100 100 100 100 100 100 100 100 100 100 100 100
100 100 100 100 100 100 100 100 100 100 100 100 100 100 100 98 100 100 100 100 100 100 100 100 100 100 100 100 100 100 100 100 100 100 100 100 100 100 100 100 100 100 100

GFSSE_prec_cloud_105.txt.gz
Cloud_Cover
0 0 0 12 25 0 0 0 0 0 0 0 0 0 5 0 0 0 0 0 0 0 0 0 0 0 0 1 0 38 55 68 8 5 5 5 55 100 100 100 100 100 100
0 0 0 54 51 7 0 0 0 0 0 0 0 0 0 0 0 0 0 0 0 0 0 0 0 0 0 0 0 0 4 17 10 5 4 5 16 100 100 100 100 100 100
0 2 4 40 27 7 0 0 0 0 0 0 0 0 0 0 0 0 0 0 0 0 0 0 0 0 0 0 0 0 5 5 4 5 5 99 100 99 44 5 84 100 100
5 4 29 54 27 4 0 0 0 0 0 0 0 0 0 0 0 0 0 0 0 0 1 0 7 2 0 0 0 0 5 5 3 2 52 100 100 100 43 2 4 5 19
5 9 23 15 16 4 5 0 0 0 0 0 0 8 4 11 10 2 0 0 0 0 39 100 62 13 0 0 20 83 23 50 5 4 40 100 100 100 34 18 7 26 50
100 33 21 4 5 5 88 13 1 0 0 0 0 5 0 5 15 4 0 0 0 0 23 100 56 7 0 1 100 100 57 5 5 10 19 100 100 83 87 33 5 77 100
9 79 100 49 21 44 100 100 7 2 2 0 1 0 0 4 6 9 5 0 0 1 0 8 4 2 4 5 98 100 97 5 13 18 18 26 100 98 74 7 89 100 100
33 100 100 100 100 70 77 100 100 13 3 2 0 0 2 8 5 37 1 0 0 0 0 0 0 2 5 5 97 100 80 5 5 6 10 5 1 14 97 7 54 100 100
87 61 71 98 100 100 100 100 100 67 6 5 24 4 5 5 16 5 5 4 0 0 25 5 2 24 13 71 90 100 100 50 13 24 6 4 7 43 96 100 100 100 100
22 67 94 100 100 99 90 100 100 88 27 100 94 52 29 6 61 5 9 49 3 2 76 6 5 6 5 5 51 99 100 100 18 7 28 5 12 41 100 100 100 99 100
9 87 79 100 100 100 100 100 100 100 29 85 100 100 88 72 36 10 100 100 22 0 0 0 5 3 2 20 84 60 99 99 94 43 38 29 56 100 100 100 100 100 100
22 28 100 100 100 100 100 100 100 100 48 91 75 100 100 100 100 100 100 92 5 3 0 0 5 3 4 6 31 95 100 59 98 100 78 32 45 100 100 100 100 100 100
1 6 82 97 100 100 100 100 100 100 93 20 8 100 100 100 100 100 100 81 37 5 6 0 8 20 12 28 24 78 94 100 99 100 100 100 94 96 100 99 72 100 100
9 60 100 59 98 100 89 94 100 100 100 6 72 100 100 100 100 100 100 99 78 24 18 19 25 15 4 4 5 12 100 100 100 100 100 100 100 100 100 100 88 93 99
99 65 96 67 74 100 79 62 70 94 100 100 99 100 100 100 100 100 100 100 100 43 8 20 4 16 15 3 5 12 98 100 100 100 100 100 100 100 100 100 100 99 99
9 100 99 69 99 97 55 64 53 85 100 100 100 100 100 100 100 100 82 93 83 30 16 0 0 0 19 20 10 7 93 100 100 100 100 100 100 100 100 100 100 100 92
24 19 45 100 92 39 42 49 89 99 100 100 100 100 100 100 100 100 92 100 100 71 23 7 12 14 52 33 8 18 81 100 100 100 100 100 100 100 100 100 100 100 100
2 3 16 72 83 100 12 100 77 71 100 100 100 100 100 100 100 80 86 100 100 100 55 33 18 41 71 100 77 54 100 100 100 100 100 100 100 100 100 100 100 100 100
0 2 30 88 100 100 84 48 28 47 79 100 100 100 100 100 100 55 61 100 100 100 98 57 68 100 100 100 100 100 100 100 100 100 100 100 100 99 100 100 100 100 100
0 0 37 87 94 99 100 78 58 78 99 100 100 100 100 100 99 96 67 100 100 100 100 88 100 100 100 100 100 100 100 100 100 100 100 100 100 100 100 100 100 100 100
0 4 0 60 98 44 100 100 100 100 100 100 100 100 100 100 100 100 98 100 100 100 100 100 100 100 100 100 100 100 100 100 100 100 100 100 100 100 100 100 100 100 100
0 4 0 19 100 73 100 100 100 100 100 77 72 98 100 100 100 100 100 100 100 100 100 100 100 100 100 100 100 100 100 100 100 100 100 100 100 100 100 100 100 100 100
0 0 0 5 83 97 100 100 100 86 62 100 100 100 99 78 98 100 100 100 100 100 100 100 100 93 100 100 100 100 100 100 100 100 100 100 100 100 100 100 100 100 100
0 0 0 5 90 99 100 100 100 100 88 100 92 71 100 100 100 100 100 100 100 100 100 100 100 84 87 100 100 100 100 100 100 100 100 100 100 100 100 100 100 100 100
29 41 1 5 99 84 100 100 100 100 100 100 100 100 100 100 100 100 100 100 100 100 100 100 100 100 100 100 100 100 100 100 100 100 100 100 100 100 100 100 100 100 100
93 21 53 5 87 96 100 100 100 100 74 100 100 100 100 100 100 100 100 100 100 100 100 100 100 100 100 100 100 100 100 100 100 100 100 100 100 100 100 100 100 100 100

GFSSE_prec_cloud_108.txt.gz
Cloud_Cover
0 1 0 17 12 0 0 0 0 0 0 0 0 0 0 0 0 0 0 0 0 0 0 0 0 0 0 0 0 0 8 60 97 63 79 82 62 42 78 100 100 100 100
0 0 5 21 17 4 0 0 0 0 0 16 17 5 0 0 0 0 0 0 0 0 5 0 0 0 0 0 0 1 2 7 22 65 92 13 6 48 68 80 100 100 100
0 1 2 4 8 12 1 1 5 0 0 0 16 14 0 0 0 0 0 0 0 0 0 0 0 0 0 0 0 0 0 5 5 5 5 5 87 100 30 5 90 100 100
1 3 11 34 100 93 37 5 2 0 0 0 0 0 0 0 0 0 0 0 0 0 0 0 0 0 0 0 0 0 4 4 3 5 58 100 100 100 64 2 7 91 61
0 2 16 50 40 100 100 82 5 5 4 5 0 0 0 0 0 1 0 0 0 0 0 1 0 2 0 0 1 8 2 82 61 4 99 100 100 100 55 17 5 5 5
0 0 38 83 87 99 100 100 89 29 5 0 0 0 0 0 1 0 0 0 0 0 46 100 14 0 0 0 0 0 4 17 100 26 100 100 100 30 27 2 0 44 94
5 3 54 54 54 93 100 100 93 73 29 5 5 0 0 4 19 0 0 0 3 4 60 94 5 0 0 5 5 5 10 26 47 17 98 100 100 100 99 0 5 66 96
5 35 50 63 45 45 100 100 100 100 100 94 5 5 9 24 19 2 3 0 0 30 4 5 2 5 5 5 5 12 85 60 82 16 69 99 100 94 97 4 71 100 100
23 72 83 82 52 8 97 82 98 100 98 68 48 6 2 2 5 5 5 2 0 5 39 7 52 40 11 5 8 70 71 26 7 63 15 17 98 74 93 12 92 100 76
95 98 100 100 59 41 98 100 100 78 100 98 23 10 15 16 43 7 34 17 0 3 6 15 6 0 0 2 5 6 23 5 8 12 72 99 6 100 100 100 69 91 95
56 99 100 100 95 47 48 100 100 100 100 100 50 93 100 100 98 24 47 8 5 14 100 37 7 3 1 2 4 5 7 19 17 25 100 30 100 100 100 100 99 100 98
27 97 100 100 100 88 100 98 73 92 100 100 90 76 100 100 100 94 74 8 5 100 100 74 60 3 2 18 15 8 27 61 100 85 97 100 88 100 100 100 91 100 100
0 1 99 100 100 100 100 100 100 100 100 100 100 100 99 100 100 42 78 57 92 100 100 64 40 16 18 16 44 38 21 53 43 81 100 100 100 100 100 100 99 85 100
4 5 4 100 100 100 100 100 100 100 100 96 76 82 100 100 100 100 100 94 55 100 100 82 32 32 25 16 19 28 31 38 92 100 100 100 100 100 100 100 100 100 99
2 58 98 100 100 100 100 100 100 100 100 99 100 17 34 92 100 100 100 100 100 100 100 72 22 25 31 31 24 8 21 36 57 76 74 100 100 100 100 100 100 100 83
0 20 79 100 100 100 100 100 80 88 91 48 5 7 5 34 100 100 100 100 100 100 100 42 7 14 18 14 27 13 15 23 95 98 100 100 100 100 100 100 100 100 100
68 1 2 4 96 100 100 100 94 29 39 72 100 68 8 100 100 100 100 100 100 100 53 26 18 23 38 28 15 22 12 5 99 100 100 100 100 100 100 100 97 100 100
0 0 0 0 24 73 100 100 100 100 30 31 81 100 99 100 100 100 100 100 100 100 97 40 6 15 42 47 20 43 32 44 100 98 100 100 100 100 100 100 100 100 100
2 0 0 0 7 24 92 100 99 87 75 100 99 100 100 100 100 100 100 100 100 100 100 70 34 14 39 97 42 100 53 97 100 100 100 100 100 100 100 100 100 100 100
0 0 0 0 0 8 100 100 100 100 100 100 100 100 100 100 100 100 100 100 100 100 100 100 59 58 86 98 82 100 100 100 100 100 100 100 100 100 100 100 100 100 100
0 0 0 0 0 0 58 100 100 100 100 100 100 100 100 100 100 100 100 100 100 100 100 100 100 100 100 100 100 82 100 100 100 100 100 100 100 100 100 100 100 100 100
0 0 0 0 0 0 0 18 92 100 100 100 100 100 100 100 100 100 100 100 100 100 100 100 100 100 100 100 70 73 100 100 100 100 100 100 100 100 100 100 100 100 100
14 18 2 0 0 0 0 14 84 100 74 100 100 100 100 100 100 100 100 100 100 100 100 100 100 100 100 100 95 23 100 100 98 100 100 100 100 100 100 100 100 100 100
19 2 8 41 0 0 0 6 46 100 100 99 100 100 100 100 100 100 100 100 100 100 100 100 100 100 100 100 100 96 100 100 100 100 100 100 100 100 100 100 100 100 100
100 97 2 2 15 0 2 0 30 100 100 75 100 100 100 100 100 100 100 100 100 100 100 100 100 100 100 100 98 100 100 100 100 100 100 100 100 100 100 100 100 100 100
100 100 94 74 34 0 0 5 40 100 100 100 100 100 100 100 100 100 100 100 100 100 100 100 100 100 100 100 100 100 100 100 100 100 100 100 100 100 100 100 100 100 100

GFSSE_prec_cloud_111.txt.gz
Cloud_Cover
0 0 14 4 0 0 0 0 0 0 0 0 0 0 0 0 0 0 0 0 0 0 0 0 0 0 0 0 0 0 0 0 5 5 5 5 78 60 79 99 100 100 66
0 0 10 8 0 0 0 0 0 0 0 5 5 0 0 0 0 0 0 0 0 0 0 0 0 0 0 0 0 0 3 2 5 5 47 91 51 97 38 28 69 72 100
0 0 1 3 4 1 0 0 0 2 17 6 2 0 0 0 0 0 0 0 0 0 0 0 0 0 0 0 0 0 0 2 5 5 5 62 91 77 16 5 5 62 53
0 0 0 11 5 64 51 3 0 3 21 36 15 2 0 0 0 0 0 0 0 0 0 0 0 0 0 0 0 0 0 0 0 4 55 38 63 97 2 0 2 5 70
0 0 0 1 1 3 5 95 92 24 6 21 8 5 5 2 0 0 0 0 0 0 0 0 0 1 4 0 0 0 0 0 2 21 55 100 65 33 5 10 1 5 5
0 0 38 6 4 0 1 5 21 100 57 34 68 13 5 9 5 2 4 2 0 0 0 0 6 5 0 0 3 0 0 5 5 39 100 100 97 13 1 2 16 5 5
0 0 33 98 15 0 0 0 0 4 96 9 98 100 24 99 7 5 5 6 5 5 5 12 6 5 5 2 5 5 5 5 23 43 100 100 57 6 6 3 5 34 14
5 9 27 100 98 13 6 0 0 5 2 72 31 100 100 100 56 37 6 64 47 43 28 99 5 37 5 5 64 5 5 5 40 58 100 100 30 70 50 5 5 6 98
52 38 48 100 100 33 9 3 0 5 5 17 98 81 48 65 30 5 40 30 86 48 15 5 5 99 81 70 60 5 5 5 34 54 64 93 50 98 100 93 90 93 88
84 74 54 100 100 95 62 22 5 5 100 75 5 74 48 19 65 100 41 77 32 82 98 11 5 27 100 85 76 5 5 14 30 46 52 43 5 100 100 74 100 96 44
97 92 99 100 100 99 49 30 36 14 4 8 10 25 98 43 21 57 72 100 100 100 40 5 7 79 100 10 5 5 6 26 42 52 44 5 5 75 100 100 32 69 9
33 100 100 100 100 100 74 78 58 58 26 9 5 20 32 61 100 100 100 100 100 97 98 15 22 100 100 40 8 34 32 35 33 38 20 5 4 100 100 100 82 40 96
2 0 57 100 100 100 100 100 100 100 100 100 97 84 71 89 52 47 96 100 100 62 70 86 96 100 100 91 33 56 40 23 15 5 7 5 15 14 100 100 100 100 47
23 4 0 9 84 100 100 100 100 100 100 100 100 100 99 100 100 100 36 60 60 96 100 78 100 100 100 50 34 45 32 48 41 45 51 98 100 100 100 100 100 100 100
100 61 15 5 8 60 100 100 100 100 100 100 100 100 100 100 100 100 79 46 55 62 50 100 100 100 100 50 52 36 23 29 48 39 27 14 100 100 100 100 100 100 100
100 100 83 5 5 0 46 67 100 100 100 100 100 83 100 100 100 100 100 68 67 59 100 100 100 100 100 71 50 46 31 32 19 20 32 96 100 100 100 100 100 100 100
100 100 100 6 0 0 0 13 100 100 100 100 100 86 95 100 100 100 100 100 79 95 100 100 100 100 100 63 57 59 51 43 20 30 0 93 100 100 100 100 100 100 100
100 100 100 64 2 14 12 77 31 48 100 100 100 100 100 52 61 22 100 100 100 100 100 100 100 100 80 64 70 94 76 61 36 48 10 7 62 100 100 100 100 100 100
100 100 100 96 16 9 5 28 91 9 23 100 100 100 100 100 26 74 100 100 100 100 100 100 100 100 74 81 74 54 53 52 80 99 20 96 100 100 100 100 100 100 100
100 81 53 100 100 71 4 19 74 68 36 4 94 100 100 93 100 100 100 100 100 100 100 100 100 100 98 89 58 72 75 46 96 44 34 100 100 100 100 100 100 100 100
100 100 100 100 99 53 5 33 95 100 100 51 18 100 100 94 100 100 100 100 100 100 100 100 100 97 100 100 100 100 77 75 100 99 100 100 100 100 100 100 100 100 100
100 100 100 100 100 15 0 0 0 0 98 64 44 56 100 100 100 100 100 100 100 100 100 100 100 100 100 83 100 100 100 100 95 73 100 100 100 100 100 100 100 100 100
100 100 100 87 100 19 3 0 0 21 58 94 100 100 100 100 100 100 100 100 100 100 100 100 100 100 100 100 100 100 97 66 72 100 100 100 100 100 100 100 100 100 100
100 100 100 100 100 100 95 4 0 0 34 86 97 100 100 100 100 100 100 100 100 100 100 100 100 100 100 100 100 100 99 26 70 100 100 100 100 100 100 100 100 100 100
74 66 100 91 31 100 65 3 0 0 0 0 39 82 100 100 100 100 100 100 100 100 100 100 100 100 100 78 84 100 100 62 42 100 100 93 100 100 100 100 100 100 100
100 100 100 100 100 56 52 0 0 0 0 0 42 59 100 100 100 100 100 100 100 100 100 100 100 100 100 92 100 100 100 100 100 100 100 100 99 100 100 100 100 100 100

GFSSE_prec_cloud_114.txt.gz
Cloud_Cover
0 0 0 0 0 0 0 0 0 0 0 0 0 0 0 0 0 0 0 0 0 0 0 1 0 0 0 0 0 0 0 0 5 5 5 5 6 53 24 29 60 19 100
0 0 16 0 0 0 0 0 0 0 0 0 0 0 0 0 0 0 0 0 0 0 0 0 0 0 0 0 0 0 0 3 2 5 5 10 83 30 87 14 5 42 87
0 0 1 0 0 0 0 0 0 0 2 1 0 0 0 4 1 0 0 0 0 0 0 0 0 0 0 0 0 0 0 0 2 10 2 98 49 70 5 4 1 5 5
0 0 0 3 0 0 0 2 5 2 3 5 5 5 5 4 5 2 0 0 0 0 0 0 0 0 0 0 0 0 0 0 0 0 32 100 85 8 2 0 71 8 5
0 0 0 0 0 0 0 0 4 7 7 4 5 24 51 10 5 5 5 4 1 4 2 0 0 0 0 4 4 2 0 0 0 11 100 99 96 23 0 0 2 4 5
0 0 52 1 0 0 0 0 0 0 4 5 5 6 63 100 100 93 5 3 5 5 5 1 2 1 2 5 5 5 0 0 0 34 46 20 100 2 5 5 5 2 4
0 0 4 21 0 0 0 0 0 0 0 0 2 32 6 100 100 99 86 42 38 9 6 10 5 5 5 5 62 10 5 6 6 59 100 58 64 1 4 5 5 4 2
0 10 34 77 4 0 0 0 0 0 0 0 0 0 0 33 100 100 100 100 41 70 64 5 5 12 5 5 6 34 74 61 14 83 100 98 44 4 2 87 5 38 5
4 14 71 83 31 44 0 0 0 0 0 0 0 0 0 5 13 51 100 100 21 79 73 100 57 24 10 7 5 84 27 47 42 58 89 100 0 3 24 97 93 10 5
46 53 81 100 50 0 1 13 0 0 0 0 0 0 7 9 2 8 9 53 94 100 100 98 46 63 100 24 39 100 100 32 36 41 73 44 2 8 100 100 100 52 10
64 98 100 100 100 59 25 12 53 25 1 9 15 10 68 1 2 7 5 5 5 21 88 100 100 100 100 16 54 100 100 59 24 29 41 12 4 1 100 100 100 100 8
84 51 100 100 100 100 5 30 6 0 0 0 0 0 0 21 92 52 22 99 100 100 100 100 100 100 96 8 95 100 100 82 31 17 45 5 5 4 24 100 100 100 79
100 100 100 77 100 100 6 85 13 12 1 6 10 8 2 42 100 35 90 84 100 100 100 100 100 100 82 50 100 100 100 84 69 36 34 19 5 5 6 97 100 100 100
100 100 100 100 100 100 100 100 100 30 85 72 41 14 3 26 44 97 50 78 79 16 94 100 100 100 100 99 100 100 100 98 44 31 43 6 6 93 35 52 96 100 100
100 100 100 100 100 100 100 100 100 28 3 43 90 99 18 87 66 28 9 45 48 92 93 100 100 100 100 100 100 100 99 88 46 54 60 4 5 93 100 91 100 100 100
82 99 100 100 100 100 100 100 78 100 8 43 98 98 98 20 17 100 7 24 26 92 78 99 100 100 98 100 100 100 100 78 50 40 88 13 24 46 100 100 100 100 100
67 95 79 100 100 100 100 100 100 100 82 2 99 100 100 100 67 100 97 6 28 77 92 97 100 100 100 100 100 100 93 82 62 73 52 52 16 51 96 100 100 100 100
5 32 6 5 81 100 100 100 100 100 96 5 19 0 44 98 100 97 100 93 24 90 100 94 100 100 100 100 100 100 100 99 100 98 88 75 14 0 69 100 100 100 100
36 97 66 26 28 74 100 100 100 100 99 5 5 1 0 51 100 100 99 100 100 96 100 100 100 100 100 100 100 100 76 94 100 93 80 69 38 0 27 100 100 100 100
18 96 100 100 94 87 100 100 100 100 88 10 6 3 1 2 96 100 100 97 100 100 100 94 100 100 100 100 100 91 100 100 90 32 40 28 41 0 20 100 100 100 100
68 100 100 63 6 16 98 95 100 100 100 84 6 4 0 0 9 100 100 100 97 100 100 100 100 100 100 100 100 100 90 59 50 33 55 74 79 17 35 100 100 100 100
100 89 86 87 100 11 3 100 100 100 100 100 70 5 22 38 2 5 100 100 100 100 100 100 100 100 100 100 94 100 96 75 52 68 83 100 85 83 100 100 100 100 100
100 100 100 93 100 100 59 4 63 100 100 100 91 62 96 18 0 0 71 100 100 100 100 100 100 100 100 100 100 98 69 49 23 99 69 94 86 100 100 100 100 100 100
100 100 100 100 100 91 100 100 95 96 100 100 100 100 22 15 44 52 64 100 100 100 100 100 100 100 100 100 95 99 38 81 31 70 41 76 99 100 100 100 100 100 100
100 100 100 100 100 100 93 16 31 63 98 100 100 100 100 75 84 100 99 100 100 100 100 100 100 100 100 100 100 100 82 100 100 17 100 98 47 56 100 100 100 100 100
51 41 53 84 94 91 90 80 66 39 8 33 100 100 100 54 79 100 100 100 100 100 100 100 100 100 100 100 100 93 59 93 87 71 79 9 72 59 80 100 100 100 100

GFSSE_prec_cloud_117.txt.gz
Cloud_Cover
0 0 0 0 0 0 0 0 0 0 0 0 0 0 0 0 0 0 0 0 0 0 0 1 6 0 0 0 0 0 0 2 2 5 5 5 5 5 18 5 5 8 7
0 0 20 0 0 0 0 0 0 0 0 0 0 0 0 0 0 0 0 0 0 0 6 13 14 0 0 0 0 0 0 3 0 5 5 5 35 95 69 5 5 7 5
0 0 1 0 0 0 0 0 0 0 0 0 0 2 3 5 5 4 4 4 5 2 0 0 0 1 0 0 0 0 0 0 2 5 5 46 14 5 4 2 5 3 29
0 0 0 0 0 0 0 0 0 0 0 0 1 2 2 4 5 0 5 0 5 15 5 10 8 11 0 1 0 0 0 0 0 0 8 99 76 0 0 0 2 11 8
0 0 0 0 0 0 0 0 0 0 0 0 0 0 0 3 4 5 26 90 5 5 5 1 3 4 1 5 2 0 0 0 0 5 97 100 97 16 0 0 87 77 48
0 0 65 0 0 0 0 0 0 0 0 0 0 0 0 0 5 7 28 100 100 100 12 5 5 5 5 4 5 1 1 2 7 43 97 75 100 2 0 0 12 5 5
0 12 0 0 0 0 0 0 0 0 0 0 0 0 0 0 0 2 11 100 100 81 63 26 7 4 26 5 17 5 5 5 23 98 7 100 58 2 0 1 99 93 100
2 21 2 25 0 0 0 0 0 0 0 0 0 0 0 0 0 0 0 0 24 48 86 95 100 4 46 46 66 6 12 6 8 58 80 100 3 1 0 0 14 52 100
3 3 35 29 4 44 0 0 0 0 0 0 0 0 0 0 0 0 0 0 0 62 65 100 100 42 19 10 57 25 88 6 57 98 59 100 5 0 5 5 100 26 87
18 41 28 59 29 0 1 7 0 0 0 0 0 0 0 6 0 8 3 16 3 1 5 93 100 79 87 35 5 82 100 13 85 95 89 40 5 5 3 100 100 100 100
24 100 100 71 92 28 3 5 53 26 1 9 10 8 68 0 1 8 1 2 5 5 5 5 5 9 36 33 100 100 100 8 100 100 100 12 5 5 52 36 100 100 92
80 15 89 100 100 78 32 39 19 3 10 0 0 0 0 0 54 23 18 3 70 5 56 100 100 95 98 100 100 100 88 63 100 100 100 12 6 22 5 5 89 100 98
100 100 99 100 100 100 98 90 98 100 55 28 6 4 0 3 21 31 42 5 11 28 96 100 100 100 100 86 100 100 26 94 100 100 100 24 20 10 11 5 56 100 100
33 66 64 100 100 100 95 100 100 100 100 100 6 6 3 5 20 44 63 98 30 26 73 100 74 100 100 100 100 100 100 99 100 100 100 58 80 33 42 86 91 88 100
60 42 95 88 100 100 100 100 100 100 100 100 100 28 5 5 5 20 23 87 75 69 48 85 99 100 100 100 100 100 98 100 100 100 100 91 5 4 3 49 100 100 92
89 64 100 33 51 100 96 100 100 100 100 72 95 79 4 5 6 5 28 96 96 100 100 97 44 100 100 100 100 100 100 100 100 100 100 33 5 4 5 2 86 100 100
100 43 31 60 5 6 73 100 100 100 100 89 78 100 100 20 33 7 21 80 83 54 66 98 73 100 100 100 100 100 100 100 100 100 100 45 73 43 3 5 5 91 100
9 77 100 51 12 25 5 5 56 100 100 100 100 100 100 88 16 21 37 41 100 54 72 97 96 70 79 100 100 100 98 100 100 100 76 10 100 100 65 5 0 2 100
90 11 14 59 36 5 5 3 58 100 100 100 100 100 100 100 100 16 29 74 98 51 59 99 100 100 69 76 69 100 100 100 100 98 89 6 84 100 100 39 0 18 100
28 5 2 5 5 13 80 99 100 69 77 62 99 100 100 100 100 93 5 40 69 97 65 100 100 100 100 100 74 100 100 100 100 100 100 92 100 89 4 34 2 12 90
18 5 5 5 0 4 5 36 100 100 100 100 100 100 100 100 100 100 72 4 5 76 48 70 92 89 100 100 100 100 100 100 100 99 81 98 33 100 9 12 64 18 96
5 2 5 94 48 35 23 61 81 69 38 12 24 89 100 100 100 100 89 46 13 30 99 100 92 100 100 100 100 100 100 100 87 69 31 50 72 76 68 56 99 100 100
5 3 4 0 29 91 46 6 16 81 67 5 33 30 100 100 100 100 100 22 0 17 90 100 100 100 100 100 100 100 100 100 61 41 13 72 99 35 43 100 98 86 100
5 8 35 47 18 86 100 100 85 4 4 5 6 100 36 100 100 100 100 54 4 27 28 99 100 100 100 100 100 100 100 100 100 78 30 35 61 87 19 53 100 100 100
65 74 74 92 88 100 100 100 81 94 95 100 85 84 100 18 100 100 100 93 57 61 31 79 100 100 100 100 100 100 100 100 100 59 100 100 15 31 14 50 100 100 100
100 100 100 100 99 81 94 97 100 84 52 19 9 100 100 95 68 100 100 100 43 76 83 57 100 88 100 100 100 100 100 100 100 67 88 99 99 98 41 100 73 26 98

GFSSE_prec_cloud_123.txt.gz
Cloud_Cover
5 5 59 71 100 100 71 5 6 26 6 4 5 4 0 0 0 0 0 5 5 5 4 5 3 0 0 2 2 0 0 0 0 1 4 5 5 80 84 5 5 5 3
0 0 0 0 0 1 1 5 5 7 6 15 10 4 0 0 0 0 0 0 5 4 43 5 97 92 5 98 7 4 0 0 0 1 2 5 5 62 96 5 5 4 0
0 0 0 0 0 0 0 0 0 0 0 0 0 0 0 0 0 0 0 0 0 0 0 5 9 6 6 89 11 29 0 2 0 3 0 2 4 5 5 5 0 0 3
0 0 0 0 0 0 0 0 0 0 0 0 0 0 0 0 0 0 0 0 0 0 0 0 5 47 33 72 56 71 8 0 1 0 1 49 24 81 5 1 0 2 5
0 0 0 0 0 0 0 0 0 0 0 0 0 0 0 0 0 0 0 0 0 0 0 1 0 2 36 100 100 100 73 4 0 0 9 100 100 100 41 5 5 5 12
1 0 0 0 0 0 0 0 0 0 0 0 0 0 0 0 0 0 0 0 0 0 0 0 0 0 2 27 100 100 4 87 57 2 100 100 100 100 100 7 66 5 40
4 14 1 0 0 0 0 0 0 0 0 0 0 0 0 0 0 0 0 0 0 0 0 0 0 0 0 5 87 100 100 100 62 80 100 100 100 100 100 100 7 4 79
60 100 8 5 3 0 0 5 0 0 0 0 0 0 0 0 0 0 0 0 0 0 0 0 0 0 0 0 1 43 98 98 4 7 100 100 100 100 100 69 5 50 63
100 100 40 24 66 7 100 95 7 0 0 0 0 0 0 0 0 0 0 1 1 0 0 0 0 0 0 0 5 5 31 79 14 7 97 100 100 100 71 22 5 29 49
89 100 100 97 100 100 100 100 18 6 1 0 0 0 1 4 31 5 1 82 28 1 0 0 0 2 2 4 5 5 5 68 5 2 26 48 100 100 100 56 12 5 100
100 98 100 100 100 100 100 100 7 7 10 3 2 2 96 24 32 5 99 100 79 3 1 0 0 0 0 4 54 84 87 100 50 25 50 99 86 100 100 100 6 2 100
100 95 98 100 100 98 100 100 89 25 83 100 66 90 64 21 14 5 58 100 29 99 7 0 0 0 6 35 29 12 54 99 100 100 100 98 100 100 100 100 8 5 12
93 100 100 72 67 99 100 100 21 15 43 60 54 89 99 73 89 78 53 5 88 100 27 25 25 42 30 6 25 21 27 59 100 29 65 93 99 100 96 82 76 63 47
79 24 95 100 100 100 91 95 52 44 99 87 100 57 95 100 91 99 99 18 28 38 61 60 70 42 12 0 2 34 45 6 50 66 53 6 5 20 12 100 54 5 5
100 97 66 100 100 100 60 64 100 100 100 100 100 100 88 100 100 100 98 20 47 34 25 53 46 21 0 0 0 6 92 38 87 99 100 100 98 100 42 100 100 4 5
100 100 100 100 100 100 95 82 100 100 100 100 100 100 100 100 100 100 100 6 100 4 24 100 45 5 2 5 7 1 74 92 6 98 100 100 100 100 100 100 100 17 13
80 98 100 100 100 100 100 23 6 17 53 100 100 100 100 100 100 80 100 30 5 5 8 100 99 39 23 0 80 5 15 14 30 14 94 99 100 100 100 100 100 20 21
75 85 100 100 100 100 100 94 95 94 58 30 93 96 100 100 100 100 100 43 21 5 0 19 97 100 72 2 5 5 100 80 28 82 62 6 44 75 100 100 100 100 75
71 75 95 100 100 100 100 100 100 52 5 30 65 17 96 100 100 100 100 54 77 65 13 0 74 99 94 100 6 62 21 42 5 53 98 85 98 94 98 99 100 75 5
1 7 5 12 100 100 100 100 100 100 100 79 27 29 78 96 100 100 100 100 100 99 5 4 0 9 26 100 90 7 66 26 23 99 70 100 73 100 74 12 100 11 5
0 0 0 0 0 25 100 100 100 100 100 100 30 30 10 8 76 100 100 96 100 100 47 4 0 0 6 87 35 100 12 8 24 53 61 49 100 100 99 12 28 13 12
0 0 0 0 0 0 1 87 100 100 100 100 100 73 50 3 14 48 92 100 100 100 100 9 5 4 5 3 51 66 98 36 63 42 87 53 82 100 100 100 19 5 6
0 0 0 0 0 5 5 12 19 100 100 100 100 100 92 94 14 5 82 100 100 100 100 30 11 24 5 43 69 5 94 26 19 25 92 98 87 100 100 100 44 13 38
0 4 5 1 0 0 5 82 35 4 45 100 100 100 90 87 54 6 9 100 100 100 100 98 8 15 63 100 100 99 99 15 0 20 44 97 100 38 89 97 100 52 16
100 100 100 87 7 5 5 5 30 18 2 31 12 58 85 11 96 43 84 12 98 100 100 100 76 100 100 100 100 100 77 100 22 5 100 100 98 12 65 39 100 100 100
47 94 65 60 74 61 5 5 5 6 7 20 61 18 5 3 16 84 99 92 10 70 100 100 100 100 100 100 100 100 100 100 100 5 68 100 100 9 88 98 100 100 98

GFSSE_prec_cloud_126.txt.gz
Cloud_Cover
0 1 0 0 0 2 2 5 21 42 48 36 52 6 5 3 3 3 4 2 0 0 0 1 0 0 22 10 45 48 6 60 0 0 0 5 3 5 5 5 5 5 2
0 0 0 0 0 0 0 0 0 0 0 0 0 0 0 2 0 0 0 0 0 0 0 0 1 0 0 5 89 28 57 97 5 0 0 0 4 13 5 5 5 5 2
0 0 0 0 0 0 0 0 0 0 0 0 0 0 0 0 0 0 0 0 0 0 0 0 0 0 0 5 19 21 91 34 59 4 2 1 4 5 98 100 12 4 1
0 0 0 0 0 0 0 0 0 0 0 0 0 0 0 0 0 0 0 0 0 0 0 0 0 0 1 0 2 5 5 100 87 5 4 1 1 14 99 96 29 52 19
0 0 14 0 0 0 0 0 0 0 0 0 0 0 0 0 0 0 0 0 0 0 9 12 2 0 0 0 0 5 5 9 83 4 3 11 87 100 100 100 100 6 36
4 2 5 5 0 0 4 0 0 0 0 0 0 0 0 0 0 0 0 0 0 0 0 0 0 0 0 0 0 0 5 5 5 64 95 39 99 29 100 100 100 5 41
5 5 5 2 3 5 5 0 0 0 11 5 0 0 0 0 0 0 0 0 0 0 1 0 0 0 0 0 0 0 0 0 4 5 29 100 100 100 98 100 100 91 100
5 5 5 3 5 5 17 7 19 59 100 82 22 0 0 0 0 0 0 0 0 1 59 4 0 0 0 0 0 0 2 0 0 17 6 5 75 100 100 100 100 82 38
24 4 5 5 0 5 8 99 100 100 100 100 100 6 0 0 0 0 0 0 1 1 93 74 4 2 0 0 0 1 0 0 5 2 27 79 100 100 100 100 100 100 92
91 1 100 90 12 100 100 61 22 100 100 100 100 10 0 0 5 5 5 5 2 7 96 5 98 65 0 0 0 16 4 3 1 0 4 12 5 100 100 100 100 100 77
96 93 22 52 100 100 100 95 30 10 56 100 99 100 80 29 11 16 8 5 35 10 9 90 99 5 0 1 0 4 0 5 6 48 96 97 93 100 100 100 100 100 100
4 16 99 39 75 85 62 36 32 53 100 89 97 83 99 85 100 100 70 56 91 100 71 12 5 0 4 33 33 9 29 3 5 6 2 15 66 91 100 100 100 55 100
1 59 13 100 50 48 83 45 93 93 99 100 100 100 100 100 100 100 82 74 58 100 86 71 18 29 43 37 34 31 17 5 2 15 5 0 4 14 97 86 10 71 100
4 2 68 68 100 100 100 97 100 100 80 100 100 100 100 100 100 100 100 100 100 78 100 98 85 78 44 22 12 14 10 6 1 5 5 11 5 5 5 25 78 98 100
0 5 14 98 100 100 100 100 100 100 100 96 100 100 100 100 100 100 100 53 90 100 100 100 100 100 62 32 100 5 0 0 2 5 17 9 27 41 27 100 100 100 100
3 3 5 14 97 88 100 100 100 100 100 100 100 100 100 100 100 100 100 98 99 100 97 99 100 94 86 32 7 5 0 0 0 21 96 99 45 5 7 93 100 89 100
88 37 5 1 82 61 77 66 79 5 88 100 100 100 100 100 100 100 100 100 100 100 100 100 98 74 80 23 0 5 0 0 0 0 6 11 5 5 5 90 100 100 100
15 44 23 3 0 5 4 1 3 5 0 58 100 100 100 100 100 100 100 100 100 100 100 100 100 100 96 60 87 5 5 2 2 0 5 14 23 6 5 25 99 100 80
6 5 8 62 5 14 5 5 5 0 3 0 58 53 100 100 100 100 100 100 100 100 100 100 98 76 100 100 100 12 4 0 0 0 1 5 23 5 21 47 89 100 67
4 0 0 0 0 0 0 0 5 93 0 5 2 16 100 100 100 100 100 100 100 100 100 100 86 97 100 100 100 100 9 1 0 1 2 2 5 11 59 91 100 100 12
0 0 0 0 0 0 0 0 0 0 24 5 11 75 46 100 100 100 100 100 100 100 100 100 100 100 100 61 100 100 100 43 4 2 2 5 5 8 47 72 60 100 14
0 0 0 0 0 0 0 0 0 0 2 0 85 18 100 38 90 100 100 100 100 100 100 100 100 100 100 100 100 100 100 69 71 6 31 0 5 32 30 5 95 14 18
0 0 2 2 0 0 0 0 1 0 0 5 3 67 88 62 30 31 98 100 100 100 100 100 100 100 100 100 100 100 100 100 84 68 26 59 3 7 60 5 100 14 40
5 5 5 5 5 5 5 5 5 5 5 4 6 52 6 64 100 93 95 98 100 100 100 100 100 100 100 98 100 100 100 100 100 100 97 99 54 31 29 5 80 44 6
5 5 6 6 5 20 66 89 14 5 5 5 5 81 99 50 5 74 100 98 60 100 100 100 87 100 56 99 100 100 100 100 100 100 100 97 100 60 100 16 86 27 5
5 22 52 54 5 5 7 13 70 49 11 16 5 5 78 79 99 40 5 44 86 61 97 100 29 92 83 100 100 100 100 100 100 100 100 63 95 100 88 95 88 73 29

GFSSE_prec_cloud_129.txt.gz
Cloud_Cover
0 3 3 13 3 2 2 2 0 0 0 0 0 0 0 0 3 4 4 1 0 0 68 36 0 0 0 0 0 3 0 5 5 5 3 1 38 35 15 1 0 0 4
0 0 0 0 0 0 0 0 0 0 0 0 0 0 0 0 0 0 0 0 0 0 10 0 0 0 0 0 0 0 0 5 5 5 3 0 96 63 5 5 5 73 78
0 0 0 0 0 0 0 0 0 0 0 0 0 0 0 0 0 0 0 0 0 0 0 0 0 0 0 0 0 0 0 0 0 0 0 5 4 4 29 100 99 100 16
0 0 0 0 0 0 0 0 0 0 0 0 0 0 0 0 0 0 0 0 0 0 0 0 0 0 0 0 0 0 0 0 0 4 5 5 5 4 100 100 75 100 78
0 0 0 0 0 0 0 0 0 0 0 0 0 0 0 0 0 0 0 0 0 0 0 0 6 0 0 0 0 0 0 0 0 0 5 44 62 95 75 59 47 37 72
0 0 2 6 0 0 0 0 0 5 4 0 0 5 9 3 0 0 0 0 0 0 0 0 0 0 0 0 0 0 0 0 0 0 0 68 3 6 56 74 50 47 24
0 4 5 5 5 5 4 2 4 28 9 5 3 45 100 7 2 0 0 0 0 0 0 0 3 3 0 0 0 0 0 0 0 0 2 0 5 0 83 100 100 97 100
0 0 1 5 11 5 28 6 5 12 5 5 6 59 100 67 44 4 0 0 0 0 0 0 0 0 0 4 0 0 0 0 0 0 0 0 0 0 6 83 100 100 100
0 4 0 3 44 52 98 25 22 13 92 88 100 100 100 100 98 93 0 1 5 2 2 5 2 0 2 32 0 0 0 0 0 0 0 2 2 0 35 48 100 99 100
0 0 0 0 9 66 31 31 99 100 98 100 92 98 100 100 100 100 5 5 38 5 5 5 5 5 5 5 0 4 0 0 0 4 5 5 3 28 7 4 100 100 100
5 0 5 1 0 1 46 76 100 99 100 100 100 100 94 100 100 100 48 5 48 40 5 30 52 18 30 5 5 2 0 16 2 9 11 8 18 32 78 95 99 100 100
3 5 81 28 64 23 51 24 99 100 100 97 99 99 94 100 100 100 89 16 100 58 72 39 5 21 25 72 33 13 30 12 5 0 17 0 3 4 4 71 95 100 100
0 7 98 100 100 100 74 100 93 100 100 100 100 100 100 100 100 87 47 100 61 40 66 31 34 25 91 98 49 33 28 13 19 4 0 3 5 5 5 19 100 100 100
0 3 3 5 5 24 90 95 99 100 100 100 99 73 100 100 100 100 100 100 100 100 100 100 80 98 69 98 67 29 96 19 19 8 0 0 1 0 1 100 100 100 100
0 0 0 0 0 0 12 11 3 20 98 100 98 91 100 98 99 100 100 100 100 100 100 100 100 100 100 99 92 68 94 79 6 7 16 0 0 3 2 100 100 100 100
36 2 0 0 0 0 0 0 0 0 3 58 98 100 100 100 100 100 100 100 100 100 100 100 100 100 100 100 69 100 60 100 72 17 13 0 0 1 4 5 37 100 100
15 5 5 9 8 53 14 2 0 0 0 0 15 99 100 100 100 100 100 100 100 100 100 100 100 100 100 100 55 100 100 46 100 100 10 6 0 0 0 5 4 5 70
8 5 5 6 22 6 5 4 3 0 0 0 0 70 91 70 100 100 100 100 100 100 100 100 100 100 100 100 93 95 100 100 100 100 78 4 0 0 0 0 3 5 5
29 48 54 88 11 2 2 3 36 5 0 0 0 0 4 48 30 100 100 100 100 100 100 100 100 100 100 100 100 100 100 100 94 100 100 60 5 2 0 4 0 0 4
98 100 58 41 3 7 3 0 0 0 0 0 0 0 0 26 14 99 100 100 100 100 100 100 100 100 100 100 100 100 100 84 100 100 100 100 31 76 4 0 8 5 4
1 7 88 91 93 7 2 3 0 0 0 0 0 0 0 1 26 87 100 100 100 100 100 100 100 100 100 100 100 100 100 44 89 100 100 100 100 31 100 100 7 23 30
2 4 5 5 5 5 5 5 5 5 0 0 0 0 4 0 1 81 64 81 100 100 100 100 100 100 100 100 100 100 100 100 100 77 97 100 100 62 100 95 90 53 34
5 5 5 5 5 5 5 5 5 5 5 3 0 0 0 0 0 8 84 38 98 100 100 100 100 100 100 100 100 100 100 100 100 96 100 100 100 100 100 93 24 98 14
5 14 14 17 5 5 5 5 5 5 5 5 5 5 5 3 0 0 31 48 98 100 100 100 100 100 100 100 100 100 100 100 100 100 100 100 100 100 100 100 100 64 90
7 74 98 100 26 42 77 98 100 100 94 83 66 14 6 5 0 0 3 75 14 51 100 100 100 100 100 100 100 100 100 100 100 100 100 100 100 100 100 100 100 43 61
96 100 92 93 55 100 100 100 100 100 100 100 100 100 99 83 36 28 8 12 36 63 40 100 100 100 100 100 100 100 100 100 100 100 100 100 100 100 100 100 100 100 62

GFSSE_prec_cloud_132.txt.gz
Cloud_Cover
0 0 0 0 0 0 0 0 0 0 2 44 2 0 0 0 0 0 0 0 0 0 56 44 0 0 0 0 0 0 0 0 0 0 0 0 26 3 15 0 0 36 9
0 0 0 0 0 0 0 0 0 0 0 0 0 0 0 0 0 0 0 0 0 3 99 2 0 0 0 0 0 0 0 0 0 0 0 29 100 24 7 0 79 100 54
0 0 0 0 0 0 0 0 0 0 0 0 0 0 0 0 0 0 0 0 0 1 0 0 0 0 0 0 0 0 0 0 0 0 0 6 61 15 4 3 100 100 100
0 0 1 0 0 0 0 0 0 0 1 0 0 0 0 0 0 0 0 0 0 0 0 0 0 0 0 0 0 0 0 0 0 0 0 0 0 3 8 38 91 77 100
0 0 0 0 0 0 0 0 0 0 4 2 0 0 0 0 1 5 1 0 0 0 0 0 0 0 0 0 0 0 0 0 0 0 0 0 0 9 5 0 7 6 96
0 0 0 0 4 5 5 4 5 5 5 2 0 5 2 0 5 5 5 2 0 0 0 0 0 0 0 0 0 0 0 0 0 0 0 0 0 0 2 0 13 9 99
0 0 0 10 0 0 0 5 5 16 9 5 5 5 2 1 0 90 43 5 0 0 0 0 0 0 0 1 0 3 0 0 0 0 0 0 0 0 0 27 1 83 90
0 0 0 0 0 0 0 2 3 60 99 25 28 11 5 5 5 17 53 10 5 0 0 0 0 2 5 1 0 0 0 0 0 0 0 0 3 5 5 5 4 2 21
0 0 0 0 0 8 28 24 23 22 24 100 97 100 88 100 54 5 5 52 88 4 0 3 31 5 5 5 5 5 0 0 0 0 0 0 5 47 2 69 9 5 88
0 1 1 0 0 8 17 33 47 43 31 50 100 100 100 100 14 4 5 34 24 16 0 9 7 5 5 5 5 5 5 5 0 0 0 0 0 93 5 74 100 100 78
16 98 96 68 34 24 5 12 30 98 98 100 60 91 100 100 100 71 74 97 70 5 52 19 11 35 11 33 20 5 56 5 4 0 0 0 0 0 5 2 98 100 100
100 100 100 100 100 100 100 38 23 62 99 100 100 99 89 100 94 62 49 62 89 16 80 7 64 82 8 31 35 13 34 33 5 4 1 0 0 0 1 83 18 100 100
100 99 100 92 41 4 13 14 48 100 99 61 100 100 100 100 100 100 77 46 43 65 79 78 36 83 34 97 41 52 30 49 54 36 2 0 0 0 0 8 100 71 94
100 100 100 96 96 8 4 0 0 0 22 98 100 100 100 100 100 100 100 100 100 100 100 100 100 100 100 40 87 100 34 26 81 100 99 9 0 0 0 0 15 100 100
100 100 86 43 84 98 86 6 0 0 3 9 96 100 100 100 100 100 100 100 100 100 100 100 100 100 100 98 100 100 90 25 87 88 100 100 1 0 0 5 45 58 100
64 94 77 91 100 100 100 68 1 0 0 4 1 18 95 100 100 100 100 100 100 100 100 100 100 100 100 100 100 100 100 38 33 100 100 100 99 1 0 0 3 12 82
72 98 100 100 100 100 100 16 4 4 0 3 0 0 0 2 94 100 100 100 100 100 100 71 89 100 100 100 100 100 100 22 92 100 100 100 100 62 0 0 0 1 3
100 100 100 95 93 49 34 97 28 35 6 2 0 0 0 0 1 6 89 36 100 100 100 100 100 100 100 100 100 100 100 100 100 85 100 100 100 100 47 5 1 0 1
93 50 18 5 5 5 22 89 94 97 85 5 0 0 0 0 0 5 27 93 98 100 100 100 100 100 100 100 100 100 100 100 100 100 98 100 100 100 100 98 20 5 5
28 26 17 5 5 5 28 20 6 59 100 67 7 0 0 2 0 0 5 83 100 63 100 100 100 100 100 100 100 100 100 100 100 100 100 99 100 100 100 100 99 64 5
5 5 5 5 93 100 100 83 5 0 5 51 65 1 0 0 0 0 0 9 91 99 100 100 100 100 100 100 100 100 100 100 100 100 100 43 100 100 100 100 100 79 100
5 5 5 5 5 5 5 5 14 46 77 21 93 100 100 100 33 0 0 0 4 100 79 100 100 100 100 100 100 100 100 100 100 100 100 31 76 100 99 100 100 100 100
5 5 5 5 5 5 5 5 10 5 7 10 5 6 21 5 3 0 0 0 0 31 100 100 100 100 100 100 100 100 100 100 100 100 100 65 33 22 86 99 100 100 100
5 5 5 30 17 10 24 47 91 100 100 100 100 100 59 5 5 0 0 0 0 0 90 98 100 100 100 100 100 100 100 100 100 100 100 100 97 35 100 100 98 100 100
65 72 5 100 58 100 98 100 100 100 100 100 100 100 100 100 100 83 1 0 0 1 5 17 100 100 100 100 100 100 100 100 100 100 100 100 100 100 100 100 100 100 100
78 22 48 99 68 56 62 96 100 100 100 100 100 100 100 100 100 100 92 93 80 18 1 56 98 56 100 100 100 100 100 100 100 100 100 100 100 100 100 100 100 100 98